<?xml version='1.0' encoding='UTF-8'?><gpx version="1.1" creator="JPX - https://github.com/jenetics/jpx" xmlns="http://www.topografix.com/GPX/1/1"><trk><trkseg><trkpt lat="45.5235733" lon="8.7828617"><ele>165.0</ele><time>2026-04-05T07:46:30.012Z</time></trkpt><trkpt lat="45.5236417" lon="8.78282"><ele>165.0</ele><time>2026-04-05T07:46:31.012Z</time></trkpt><trkpt lat="45.5237267" lon="8.7828"><ele>165.0</ele><time>2026-04-05T07:46:33.012Z</time></trkpt><trkpt lat="45.5237867" lon="8.7827667"><ele>165.0</ele><time>2026-04-05T07:46:35.012Z</time></trkpt><trkpt lat="45.5237833" lon="8.7826317"><ele>165.0</ele><time>2026-04-05T07:46:37.012Z</time></trkpt><trkpt lat="45.5237583" lon="8.7824983"><ele>165.0</ele><time>2026-04-05T07:46:39.012Z</time></trkpt><trkpt lat="45.523735" lon="8.7823883"><ele>165.16666666666666</ele><time>2026-04-05T07:46:41.012Z</time></trkpt><trkpt lat="45.5236917" lon="8.78227"><ele>165.33333333333334</ele><time>2026-04-05T07:46:43.012Z</time></trkpt><trkpt lat="45.523655" lon="8.78216"><ele>165.5</ele><time>2026-04-05T07:46:45.012Z</time></trkpt><trkpt lat="45.523615" lon="8.7820433"><ele>165.66666666666669</ele><time>2026-04-05T07:46:47.012Z</time></trkpt><trkpt lat="45.5235833" lon="8.781935"><ele>165.83333333333334</ele><time>2026-04-05T07:46:49.012Z</time></trkpt><trkpt lat="45.5235367" lon="8.7818167"><ele>166.0</ele><time>2026-04-05T07:46:51.012Z</time></trkpt><trkpt lat="45.5234983" lon="8.7816983"><ele>166.0</ele><time>2026-04-05T07:46:53.012Z</time></trkpt><trkpt lat="45.523455" lon="8.781585"><ele>166.0</ele><time>2026-04-05T07:46:55.012Z</time></trkpt><trkpt lat="45.52342" lon="8.7814817"><ele>166.0</ele><time>2026-04-05T07:46:57.012Z</time></trkpt><trkpt lat="45.5233667" lon="8.7813833"><ele>166.0</ele><time>2026-04-05T07:46:59.012Z</time></trkpt><trkpt lat="45.523295" lon="8.7812967"><ele>166.0</ele><time>2026-04-05T07:47:01.013Z</time></trkpt><trkpt lat="45.5232183" lon="8.7812133"><ele>166.0</ele><time>2026-04-05T07:47:03.013Z</time></trkpt><trkpt lat="45.523145" lon="8.7811333"><ele>166.0</ele><time>2026-04-05T07:47:05.012Z</time></trkpt><trkpt lat="45.52308" lon="8.7810383"><ele>166.0</ele><time>2026-04-05T07:47:07.012Z</time></trkpt><trkpt lat="45.523035" lon="8.7809267"><ele>166.0</ele><time>2026-04-05T07:47:09.012Z</time></trkpt><trkpt lat="45.5229983" lon="8.780805"><ele>166.0</ele><time>2026-04-05T07:47:11.012Z</time></trkpt><trkpt lat="45.522955" lon="8.7806883"><ele>166.0</ele><time>2026-04-05T07:47:13.012Z</time></trkpt><trkpt lat="45.52292" lon="8.7805717"><ele>166.20000000000002</ele><time>2026-04-05T07:47:15.011Z</time></trkpt><trkpt lat="45.522885" lon="8.7804467"><ele>166.4</ele><time>2026-04-05T07:47:17.011Z</time></trkpt><trkpt lat="45.522855" lon="8.780305"><ele>166.6</ele><time>2026-04-05T07:47:19.011Z</time></trkpt><trkpt lat="45.5228167" lon="8.7801883"><ele>166.8</ele><time>2026-04-05T07:47:21.012Z</time></trkpt><trkpt lat="45.5227833" lon="8.7800767"><ele>167.0</ele><time>2026-04-05T07:47:23.011Z</time></trkpt><trkpt lat="45.5227467" lon="8.7799683"><ele>167.0</ele><time>2026-04-05T07:47:25.011Z</time></trkpt><trkpt lat="45.5227" lon="8.7798617"><ele>167.0</ele><time>2026-04-05T07:47:27.011Z</time></trkpt><trkpt lat="45.5226433" lon="8.77976"><ele>167.0</ele><time>2026-04-05T07:47:29.011Z</time></trkpt><trkpt lat="45.5225917" lon="8.77966"><ele>167.0</ele><time>2026-04-05T07:47:31.011Z</time></trkpt><trkpt lat="45.5225433" lon="8.7795583"><ele>167.0</ele><time>2026-04-05T07:47:33.011Z</time></trkpt><trkpt lat="45.5225033" lon="8.779465"><ele>167.0</ele><time>2026-04-05T07:47:35.011Z</time></trkpt><trkpt lat="45.5224683" lon="8.7793833"><ele>167.16666666666666</ele><time>2026-04-05T07:47:37.011Z</time></trkpt><trkpt lat="45.5224267" lon="8.7792933"><ele>167.33333333333331</ele><time>2026-04-05T07:47:39.011Z</time></trkpt><trkpt lat="45.52239" lon="8.7792"><ele>167.5</ele><time>2026-04-05T07:47:41.011Z</time></trkpt><trkpt lat="45.5223483" lon="8.7791167"><ele>167.66666666666666</ele><time>2026-04-05T07:47:43.011Z</time></trkpt><trkpt lat="45.5222967" lon="8.779015"><ele>167.83333333333334</ele><time>2026-04-05T07:47:46.011Z</time></trkpt><trkpt lat="45.5222283" lon="8.778905"><ele>168.0</ele><time>2026-04-05T07:47:49.011Z</time></trkpt><trkpt lat="45.5221883" lon="8.7788017"><ele>168.0</ele><time>2026-04-05T07:47:51.011Z</time></trkpt><trkpt lat="45.5221383" lon="8.7786883"><ele>168.0</ele><time>2026-04-05T07:47:53.011Z</time></trkpt><trkpt lat="45.5220833" lon="8.778585"><ele>168.0</ele><time>2026-04-05T07:47:55.011Z</time></trkpt><trkpt lat="45.5220267" lon="8.7784867"><ele>168.0</ele><time>2026-04-05T07:47:57.011Z</time></trkpt><trkpt lat="45.521965" lon="8.7783733"><ele>168.0</ele><time>2026-04-05T07:47:59.011Z</time></trkpt><trkpt lat="45.5219017" lon="8.778265"><ele>167.60000000000002</ele><time>2026-04-05T07:48:01.011Z</time></trkpt><trkpt lat="45.5218267" lon="8.7781633"><ele>167.20000000000002</ele><time>2026-04-05T07:48:03.011Z</time></trkpt><trkpt lat="45.5217533" lon="8.778065"><ele>166.8</ele><time>2026-04-05T07:48:05.012Z</time></trkpt><trkpt lat="45.5216733" lon="8.7779567"><ele>166.4</ele><time>2026-04-05T07:48:07.011Z</time></trkpt><trkpt lat="45.5216" lon="8.7778533"><ele>166.0</ele><time>2026-04-05T07:48:09.011Z</time></trkpt><trkpt lat="45.5215417" lon="8.77775"><ele>165.60000000000002</ele><time>2026-04-05T07:48:11.011Z</time></trkpt><trkpt lat="45.5214867" lon="8.7776283"><ele>165.2</ele><time>2026-04-05T07:48:13.011Z</time></trkpt><trkpt lat="45.5214367" lon="8.7775117"><ele>164.8</ele><time>2026-04-05T07:48:15.012Z</time></trkpt><trkpt lat="45.5213867" lon="8.7773983"><ele>164.39999999999998</ele><time>2026-04-05T07:48:17.011Z</time></trkpt><trkpt lat="45.5213483" lon="8.777285"><ele>164.0</ele><time>2026-04-05T07:48:19.011Z</time></trkpt><trkpt lat="45.5212883" lon="8.777175"><ele>164.0</ele><time>2026-04-05T07:48:21.011Z</time></trkpt><trkpt lat="45.5212317" lon="8.7770583"><ele>164.0</ele><time>2026-04-05T07:48:23.011Z</time></trkpt><trkpt lat="45.5211817" lon="8.7769417"><ele>164.0</ele><time>2026-04-05T07:48:25.011Z</time></trkpt><trkpt lat="45.521125" lon="8.776825"><ele>164.0</ele><time>2026-04-05T07:48:27.011Z</time></trkpt><trkpt lat="45.52109" lon="8.776705"><ele>164.0</ele><time>2026-04-05T07:48:29.011Z</time></trkpt><trkpt lat="45.5210367" lon="8.7765783"><ele>164.0</ele><time>2026-04-05T07:48:31.011Z</time></trkpt><trkpt lat="45.5209867" lon="8.7764617"><ele>164.0</ele><time>2026-04-05T07:48:33.011Z</time></trkpt><trkpt lat="45.5209267" lon="8.7763583"><ele>164.0</ele><time>2026-04-05T07:48:35.011Z</time></trkpt><trkpt lat="45.52088" lon="8.7762467"><ele>164.0</ele><time>2026-04-05T07:48:37.011Z</time></trkpt><trkpt lat="45.5208217" lon="8.7761333"><ele>164.0</ele><time>2026-04-05T07:48:39.011Z</time></trkpt><trkpt lat="45.5207683" lon="8.7760167"><ele>163.6</ele><time>2026-04-05T07:48:41.012Z</time></trkpt><trkpt lat="45.5207233" lon="8.7759"><ele>163.2</ele><time>2026-04-05T07:48:43.011Z</time></trkpt><trkpt lat="45.5206767" lon="8.7757783"><ele>162.79999999999998</ele><time>2026-04-05T07:48:45.011Z</time></trkpt><trkpt lat="45.520635" lon="8.775655"><ele>162.39999999999998</ele><time>2026-04-05T07:48:47.011Z</time></trkpt><trkpt lat="45.520595" lon="8.7755383"><ele>162.0</ele><time>2026-04-05T07:48:49.012Z</time></trkpt><trkpt lat="45.5205433" lon="8.7754267"><ele>162.0</ele><time>2026-04-05T07:48:51.011Z</time></trkpt><trkpt lat="45.5204917" lon="8.7753133"><ele>162.0</ele><time>2026-04-05T07:48:53.011Z</time></trkpt><trkpt lat="45.5204317" lon="8.7752167"><ele>162.0</ele><time>2026-04-05T07:48:55.011Z</time></trkpt><trkpt lat="45.5203683" lon="8.77512"><ele>162.0</ele><time>2026-04-05T07:48:57.012Z</time></trkpt><trkpt lat="45.52031" lon="8.7750167"><ele>162.0</ele><time>2026-04-05T07:48:59.011Z</time></trkpt><trkpt lat="45.5202483" lon="8.7749217"><ele>162.39999999999998</ele><time>2026-04-05T07:49:01.011Z</time></trkpt><trkpt lat="45.5201867" lon="8.7748217"><ele>162.79999999999998</ele><time>2026-04-05T07:49:03.011Z</time></trkpt><trkpt lat="45.5201183" lon="8.7747233"><ele>163.2</ele><time>2026-04-05T07:49:05.011Z</time></trkpt><trkpt lat="45.5200433" lon="8.7746317"><ele>163.6</ele><time>2026-04-05T07:49:07.011Z</time></trkpt><trkpt lat="45.51997" lon="8.7745367"><ele>164.0</ele><time>2026-04-05T07:49:09.011Z</time></trkpt><trkpt lat="45.5198967" lon="8.7744483"><ele>164.2</ele><time>2026-04-05T07:49:11.011Z</time></trkpt><trkpt lat="45.5198267" lon="8.7743517"><ele>164.39999999999998</ele><time>2026-04-05T07:49:13.011Z</time></trkpt><trkpt lat="45.51977" lon="8.77424"><ele>164.6</ele><time>2026-04-05T07:49:15.011Z</time></trkpt><trkpt lat="45.5197167" lon="8.7741117"><ele>164.8</ele><time>2026-04-05T07:49:17.011Z</time></trkpt><trkpt lat="45.51968" lon="8.7739717"><ele>165.0</ele><time>2026-04-05T07:49:19.011Z</time></trkpt><trkpt lat="45.519655" lon="8.7738383"><ele>165.0</ele><time>2026-04-05T07:49:21.011Z</time></trkpt><trkpt lat="45.5196567" lon="8.77369"><ele>165.0</ele><time>2026-04-05T07:49:23.011Z</time></trkpt><trkpt lat="45.51967" lon="8.773535"><ele>165.0</ele><time>2026-04-05T07:49:25.011Z</time></trkpt><trkpt lat="45.519715" lon="8.77339"><ele>165.0</ele><time>2026-04-05T07:49:27.011Z</time></trkpt><trkpt lat="45.5197583" lon="8.7732333"><ele>165.0</ele><time>2026-04-05T07:49:29.011Z</time></trkpt><trkpt lat="45.51978" lon="8.7730683"><ele>164.5</ele><time>2026-04-05T07:49:31.011Z</time></trkpt><trkpt lat="45.51979" lon="8.7729033"><ele>164.0</ele><time>2026-04-05T07:49:33.011Z</time></trkpt><trkpt lat="45.5198033" lon="8.7727317"><ele>163.5</ele><time>2026-04-05T07:49:35.011Z</time></trkpt><trkpt lat="45.5198267" lon="8.77254"><ele>163.0</ele><time>2026-04-05T07:49:37.011Z</time></trkpt><trkpt lat="45.51981" lon="8.7723867"><ele>162.4</ele><time>2026-04-05T07:49:39.011Z</time></trkpt><trkpt lat="45.519785" lon="8.7722333"><ele>161.8</ele><time>2026-04-05T07:49:41.011Z</time></trkpt><trkpt lat="45.5197717" lon="8.772085"><ele>161.2</ele><time>2026-04-05T07:49:43.011Z</time></trkpt><trkpt lat="45.5197733" lon="8.7719333"><ele>160.6</ele><time>2026-04-05T07:49:45.011Z</time></trkpt><trkpt lat="45.5197633" lon="8.771765"><ele>160.0</ele><time>2026-04-05T07:49:47.011Z</time></trkpt><trkpt lat="45.5197467" lon="8.7715933"><ele>159.16666666666669</ele><time>2026-04-05T07:49:49.011Z</time></trkpt><trkpt lat="45.5197433" lon="8.7714083"><ele>158.33333333333334</ele><time>2026-04-05T07:49:51.011Z</time></trkpt><trkpt lat="45.519735" lon="8.7713033"><ele>157.5</ele><time>2026-04-05T07:49:52.011Z</time></trkpt><trkpt lat="45.519725" lon="8.7712067"><ele>156.66666666666666</ele><time>2026-04-05T07:49:53.011Z</time></trkpt><trkpt lat="45.5197217" lon="8.771115"><ele>155.83333333333331</ele><time>2026-04-05T07:49:54.011Z</time></trkpt><trkpt lat="45.5197133" lon="8.7710167"><ele>155.0</ele><time>2026-04-05T07:49:55.011Z</time></trkpt><trkpt lat="45.5197" lon="8.7709233"><ele>154.16666666666666</ele><time>2026-04-05T07:49:56.011Z</time></trkpt><trkpt lat="45.5196867" lon="8.7708267"><ele>153.33333333333331</ele><time>2026-04-05T07:49:57.011Z</time></trkpt><trkpt lat="45.5196817" lon="8.770725"><ele>152.5</ele><time>2026-04-05T07:49:58.011Z</time></trkpt><trkpt lat="45.5196767" lon="8.7706017"><ele>151.66666666666666</ele><time>2026-04-05T07:49:59.012Z</time></trkpt><trkpt lat="45.5196783" lon="8.7704767"><ele>150.83333333333334</ele><time>2026-04-05T07:50:00.011Z</time></trkpt><trkpt lat="45.5196667" lon="8.7703567"><ele>150.0</ele><time>2026-04-05T07:50:01.011Z</time></trkpt><trkpt lat="45.5196533" lon="8.7702283"><ele>149.0</ele><time>2026-04-05T07:50:02.011Z</time></trkpt><trkpt lat="45.5196433" lon="8.7701017"><ele>148.0</ele><time>2026-04-05T07:50:03.011Z</time></trkpt><trkpt lat="45.5196417" lon="8.76997"><ele>147.0</ele><time>2026-04-05T07:50:04.011Z</time></trkpt><trkpt lat="45.5196367" lon="8.7698267"><ele>146.0</ele><time>2026-04-05T07:50:05.011Z</time></trkpt><trkpt lat="45.51964" lon="8.769695"><ele>145.0</ele><time>2026-04-05T07:50:06.011Z</time></trkpt><trkpt lat="45.5196433" lon="8.7695733"><ele>145.0</ele><time>2026-04-05T07:50:07.011Z</time></trkpt><trkpt lat="45.5196467" lon="8.7694533"><ele>145.0</ele><time>2026-04-05T07:50:08.011Z</time></trkpt><trkpt lat="45.5196467" lon="8.7693433"><ele>145.0</ele><time>2026-04-05T07:50:09.011Z</time></trkpt><trkpt lat="45.5196517" lon="8.7692383"><ele>145.0</ele><time>2026-04-05T07:50:10.011Z</time></trkpt><trkpt lat="45.5196533" lon="8.769135"><ele>145.0</ele><time>2026-04-05T07:50:11.011Z</time></trkpt><trkpt lat="45.519655" lon="8.7690367"><ele>145.0</ele><time>2026-04-05T07:50:12.011Z</time></trkpt><trkpt lat="45.5196517" lon="8.7689417"><ele>145.0</ele><time>2026-04-05T07:50:13.011Z</time></trkpt><trkpt lat="45.519635" lon="8.768815"><ele>145.0</ele><time>2026-04-05T07:50:15.011Z</time></trkpt><trkpt lat="45.5195933" lon="8.7687383"><ele>145.0</ele><time>2026-04-05T07:50:35.011Z</time></trkpt><trkpt lat="45.5195217" lon="8.7687"><ele>145.0</ele><time>2026-04-05T07:50:37.011Z</time></trkpt><trkpt lat="45.5194417" lon="8.7686883"><ele>145.0</ele><time>2026-04-05T07:50:39.011Z</time></trkpt><trkpt lat="45.5193633" lon="8.7686883"><ele>145.0</ele><time>2026-04-05T07:50:41.012Z</time></trkpt><trkpt lat="45.5192867" lon="8.7686933"><ele>145.0</ele><time>2026-04-05T07:50:43.011Z</time></trkpt><trkpt lat="45.5192017" lon="8.7687033"><ele>144.0</ele><time>2026-04-05T07:50:45.011Z</time></trkpt><trkpt lat="45.5191133" lon="8.7687017"><ele>143.0</ele><time>2026-04-05T07:50:47.011Z</time></trkpt><trkpt lat="45.519025" lon="8.7686883"><ele>142.0</ele><time>2026-04-05T07:50:49.011Z</time></trkpt><trkpt lat="45.518935" lon="8.7686817"><ele>141.0</ele><time>2026-04-05T07:50:51.011Z</time></trkpt><trkpt lat="45.5188417" lon="8.7686683"><ele>140.0</ele><time>2026-04-05T07:50:53.011Z</time></trkpt><trkpt lat="45.5187433" lon="8.7686583"><ele>139.8</ele><time>2026-04-05T07:50:55.011Z</time></trkpt><trkpt lat="45.5186333" lon="8.7686317"><ele>139.6</ele><time>2026-04-05T07:50:57.011Z</time></trkpt><trkpt lat="45.51853" lon="8.76858"><ele>139.4</ele><time>2026-04-05T07:50:59.011Z</time></trkpt><trkpt lat="45.51842" lon="8.7685167"><ele>139.2</ele><time>2026-04-05T07:51:01.011Z</time></trkpt><trkpt lat="45.5183383" lon="8.7684417"><ele>139.0</ele><time>2026-04-05T07:51:03.011Z</time></trkpt><trkpt lat="45.5182467" lon="8.7683617"><ele>139.0</ele><time>2026-04-05T07:51:05.011Z</time></trkpt><trkpt lat="45.5181483" lon="8.7682717"><ele>139.0</ele><time>2026-04-05T07:51:07.011Z</time></trkpt><trkpt lat="45.5180467" lon="8.7681633"><ele>139.0</ele><time>2026-04-05T07:51:09.011Z</time></trkpt><trkpt lat="45.5179583" lon="8.76811"><ele>139.0</ele><time>2026-04-05T07:51:11.011Z</time></trkpt><trkpt lat="45.5178483" lon="8.7680833"><ele>139.0</ele><time>2026-04-05T07:51:13.011Z</time></trkpt><trkpt lat="45.5177383" lon="8.76806"><ele>139.0</ele><time>2026-04-05T07:51:15.011Z</time></trkpt><trkpt lat="45.5176383" lon="8.7680317"><ele>139.0</ele><time>2026-04-05T07:51:17.011Z</time></trkpt><trkpt lat="45.5175233" lon="8.7679967"><ele>139.0</ele><time>2026-04-05T07:51:19.011Z</time></trkpt><trkpt lat="45.51742" lon="8.76796"><ele>139.0</ele><time>2026-04-05T07:51:21.011Z</time></trkpt><trkpt lat="45.5173233" lon="8.7679283"><ele>139.0</ele><time>2026-04-05T07:51:23.011Z</time></trkpt><trkpt lat="45.517235" lon="8.7679533"><ele>139.0</ele><time>2026-04-05T07:51:25.012Z</time></trkpt><trkpt lat="45.5171667" lon="8.7680433"><ele>139.0</ele><time>2026-04-05T07:51:27.011Z</time></trkpt><trkpt lat="45.517115" lon="8.76816"><ele>139.0</ele><time>2026-04-05T07:51:29.011Z</time></trkpt><trkpt lat="45.51705" lon="8.7682683"><ele>139.0</ele><time>2026-04-05T07:51:31.011Z</time></trkpt><trkpt lat="45.51698" lon="8.768365"><ele>139.0</ele><time>2026-04-05T07:51:33.011Z</time></trkpt><trkpt lat="45.5169117" lon="8.76847"><ele>139.0</ele><time>2026-04-05T07:51:35.011Z</time></trkpt><trkpt lat="45.5168517" lon="8.7685617"><ele>139.0</ele><time>2026-04-05T07:51:37.011Z</time></trkpt><trkpt lat="45.51678" lon="8.768665"><ele>139.0</ele><time>2026-04-05T07:51:39.012Z</time></trkpt><trkpt lat="45.516715" lon="8.7687683"><ele>139.0</ele><time>2026-04-05T07:51:41.011Z</time></trkpt><trkpt lat="45.5166583" lon="8.7688567"><ele>139.0</ele><time>2026-04-05T07:51:43.011Z</time></trkpt><trkpt lat="45.5165783" lon="8.7689383"><ele>139.0</ele><time>2026-04-05T07:51:45.011Z</time></trkpt><trkpt lat="45.51648" lon="8.768985"><ele>139.0</ele><time>2026-04-05T07:51:47.011Z</time></trkpt><trkpt lat="45.516375" lon="8.7690067"><ele>139.0</ele><time>2026-04-05T07:51:49.011Z</time></trkpt><trkpt lat="45.5162717" lon="8.7690217"><ele>139.0</ele><time>2026-04-05T07:51:51.011Z</time></trkpt><trkpt lat="45.51617" lon="8.769045"><ele>139.0</ele><time>2026-04-05T07:51:53.011Z</time></trkpt><trkpt lat="45.5160667" lon="8.7690983"><ele>139.0</ele><time>2026-04-05T07:51:55.011Z</time></trkpt><trkpt lat="45.5159717" lon="8.7691433"><ele>139.0</ele><time>2026-04-05T07:51:57.011Z</time></trkpt><trkpt lat="45.5158817" lon="8.769175"><ele>139.0</ele><time>2026-04-05T07:51:59.011Z</time></trkpt><trkpt lat="45.5157917" lon="8.76921"><ele>139.0</ele><time>2026-04-05T07:52:01.011Z</time></trkpt><trkpt lat="45.5157" lon="8.76923"><ele>139.0</ele><time>2026-04-05T07:52:03.011Z</time></trkpt><trkpt lat="45.5156133" lon="8.7692583"><ele>139.0</ele><time>2026-04-05T07:52:05.011Z</time></trkpt><trkpt lat="45.5155333" lon="8.76923"><ele>139.0</ele><time>2026-04-05T07:52:07.012Z</time></trkpt><trkpt lat="45.515495" lon="8.76913"><ele>139.0</ele><time>2026-04-05T07:52:09.011Z</time></trkpt><trkpt lat="45.5154717" lon="8.7690267"><ele>139.0</ele><time>2026-04-05T07:52:11.011Z</time></trkpt><trkpt lat="45.51544" lon="8.7689183"><ele>139.0</ele><time>2026-04-05T07:52:13.011Z</time></trkpt><trkpt lat="45.5154" lon="8.7688133"><ele>139.83333333333334</ele><time>2026-04-05T07:52:15.011Z</time></trkpt><trkpt lat="45.515375" lon="8.7687217"><ele>140.66666666666669</ele><time>2026-04-05T07:52:17.011Z</time></trkpt><trkpt lat="45.5153333" lon="8.7686183"><ele>141.5</ele><time>2026-04-05T07:52:19.011Z</time></trkpt><trkpt lat="45.5152783" lon="8.76851"><ele>142.33333333333334</ele><time>2026-04-05T07:52:21.011Z</time></trkpt><trkpt lat="45.5152267" lon="8.7684167"><ele>143.16666666666666</ele><time>2026-04-05T07:52:23.011Z</time></trkpt><trkpt lat="45.5151733" lon="8.7683367"><ele>144.0</ele><time>2026-04-05T07:52:25.011Z</time></trkpt><trkpt lat="45.5151133" lon="8.7682183"><ele>144.0</ele><time>2026-04-05T07:52:27.011Z</time></trkpt><trkpt lat="45.5150617" lon="8.7681133"><ele>144.0</ele><time>2026-04-05T07:52:29.011Z</time></trkpt><trkpt lat="45.5150067" lon="8.7680233"><ele>144.0</ele><time>2026-04-05T07:52:31.011Z</time></trkpt><trkpt lat="45.5149383" lon="8.7679483"><ele>144.0</ele><time>2026-04-05T07:52:33.011Z</time></trkpt><trkpt lat="45.5148717" lon="8.76789"><ele>144.0</ele><time>2026-04-05T07:52:35.011Z</time></trkpt><trkpt lat="45.5147867" lon="8.7678617"><ele>144.0</ele><time>2026-04-05T07:52:37.011Z</time></trkpt><trkpt lat="45.5147213" lon="8.7678344"><ele>144.0</ele><time>2026-04-05T07:52:38.937Z</time></trkpt><trkpt lat="45.5146292" lon="8.7677996"><ele>144.0</ele><time>2026-04-05T07:52:41.011Z</time></trkpt><trkpt lat="45.514525" lon="8.7677367"><ele>144.0</ele><time>2026-04-05T07:52:43.011Z</time></trkpt><trkpt lat="45.5144533" lon="8.7676667"><ele>144.0</ele><time>2026-04-05T07:52:45.011Z</time></trkpt><trkpt lat="45.514385" lon="8.7676067"><ele>144.0</ele><time>2026-04-05T07:52:47.011Z</time></trkpt><trkpt lat="45.5143267" lon="8.7675367"><ele>143.5</ele><time>2026-04-05T07:52:49.011Z</time></trkpt><trkpt lat="45.5142633" lon="8.767475"><ele>143.0</ele><time>2026-04-05T07:52:51.011Z</time></trkpt><trkpt lat="45.514195" lon="8.7674233"><ele>142.5</ele><time>2026-04-05T07:52:53.011Z</time></trkpt><trkpt lat="45.5141167" lon="8.76736"><ele>142.0</ele><time>2026-04-05T07:52:55.011Z</time></trkpt><trkpt lat="45.514045" lon="8.7672983"><ele>141.5</ele><time>2026-04-05T07:52:57.011Z</time></trkpt><trkpt lat="45.5139817" lon="8.7672267"><ele>141.0</ele><time>2026-04-05T07:52:59.011Z</time></trkpt><trkpt lat="45.5139" lon="8.7671733"><ele>141.0</ele><time>2026-04-05T07:53:01.011Z</time></trkpt><trkpt lat="45.5138367" lon="8.767125"><ele>141.0</ele><time>2026-04-05T07:53:03.011Z</time></trkpt><trkpt lat="45.5137683" lon="8.7670733"><ele>141.0</ele><time>2026-04-05T07:53:05.011Z</time></trkpt><trkpt lat="45.5136933" lon="8.767015"><ele>141.0</ele><time>2026-04-05T07:53:07.011Z</time></trkpt><trkpt lat="45.513625" lon="8.76695"><ele>141.0</ele><time>2026-04-05T07:53:09.012Z</time></trkpt><trkpt lat="45.5135483" lon="8.7668983"><ele>141.0</ele><time>2026-04-05T07:53:11.011Z</time></trkpt><trkpt lat="45.5134733" lon="8.766855"><ele>140.33333333333334</ele><time>2026-04-05T07:53:13.01Z</time></trkpt><trkpt lat="45.5134017" lon="8.7667883"><ele>139.66666666666666</ele><time>2026-04-05T07:53:15.01Z</time></trkpt><trkpt lat="45.5133367" lon="8.7667183"><ele>139.0</ele><time>2026-04-05T07:53:17.01Z</time></trkpt><trkpt lat="45.51328" lon="8.7666367"><ele>138.33333333333331</ele><time>2026-04-05T07:53:19.01Z</time></trkpt><trkpt lat="45.513215" lon="8.76655"><ele>137.66666666666666</ele><time>2026-04-05T07:53:21.01Z</time></trkpt><trkpt lat="45.51316" lon="8.7664633"><ele>137.0</ele><time>2026-04-05T07:53:23.01Z</time></trkpt><trkpt lat="45.5130983" lon="8.7663883"><ele>137.0</ele><time>2026-04-05T07:53:25.01Z</time></trkpt><trkpt lat="45.513025" lon="8.7662917"><ele>137.0</ele><time>2026-04-05T07:53:27.01Z</time></trkpt><trkpt lat="45.5129617" lon="8.7661867"><ele>137.0</ele><time>2026-04-05T07:53:29.01Z</time></trkpt><trkpt lat="45.512905" lon="8.766095"><ele>137.0</ele><time>2026-04-05T07:53:31.01Z</time></trkpt><trkpt lat="45.5128533" lon="8.7660217"><ele>137.0</ele><time>2026-04-05T07:53:33.01Z</time></trkpt><trkpt lat="45.51281" lon="8.7659333"><ele>137.0</ele><time>2026-04-05T07:53:35.01Z</time></trkpt><trkpt lat="45.5127717" lon="8.7658417"><ele>137.16666666666666</ele><time>2026-04-05T07:53:37.01Z</time></trkpt><trkpt lat="45.5127317" lon="8.765765"><ele>137.33333333333331</ele><time>2026-04-05T07:53:39.01Z</time></trkpt><trkpt lat="45.5126833" lon="8.76569"><ele>137.5</ele><time>2026-04-05T07:53:41.01Z</time></trkpt><trkpt lat="45.5126333" lon="8.765615"><ele>137.66666666666666</ele><time>2026-04-05T07:53:43.01Z</time></trkpt><trkpt lat="45.5125883" lon="8.765535"><ele>137.83333333333334</ele><time>2026-04-05T07:53:45.01Z</time></trkpt><trkpt lat="45.512555" lon="8.765455"><ele>138.0</ele><time>2026-04-05T07:53:47.01Z</time></trkpt><trkpt lat="45.5125917" lon="8.7652183"><ele>138.16666666666666</ele><time>2026-04-05T07:54:13.01Z</time></trkpt><trkpt lat="45.512625" lon="8.7651383"><ele>138.33333333333334</ele><time>2026-04-05T07:54:17.011Z</time></trkpt><trkpt lat="45.51268" lon="8.765065"><ele>138.5</ele><time>2026-04-05T07:54:20.01Z</time></trkpt><trkpt lat="45.5127333" lon="8.76501"><ele>138.66666666666669</ele><time>2026-04-05T07:54:22.01Z</time></trkpt><trkpt lat="45.5128267" lon="8.764955"><ele>138.83333333333334</ele><time>2026-04-05T07:54:25.01Z</time></trkpt><trkpt lat="45.5129" lon="8.7648683"><ele>139.0</ele><time>2026-04-05T07:54:27.011Z</time></trkpt><trkpt lat="45.512975" lon="8.7647733"><ele>139.0</ele><time>2026-04-05T07:54:29.01Z</time></trkpt><trkpt lat="45.5130383" lon="8.7646983"><ele>139.0</ele><time>2026-04-05T07:54:31.011Z</time></trkpt><trkpt lat="45.5130917" lon="8.7646317"><ele>139.0</ele><time>2026-04-05T07:54:33.01Z</time></trkpt><trkpt lat="45.513155" lon="8.7645717"><ele>139.0</ele><time>2026-04-05T07:54:35.01Z</time></trkpt><trkpt lat="45.5132108" lon="8.7645115"><ele>139.0</ele><time>2026-04-05T07:54:37.024Z</time></trkpt><trkpt lat="45.5132666" lon="8.7644449"><ele>139.0</ele><time>2026-04-05T07:54:39.024Z</time></trkpt><trkpt lat="45.5133167" lon="8.7643677"><ele>139.0</ele><time>2026-04-05T07:54:41.024Z</time></trkpt><trkpt lat="45.513345" lon="8.764275"><ele>139.0</ele><time>2026-04-05T07:54:43.01Z</time></trkpt><trkpt lat="45.5133833" lon="8.7641717"><ele>139.0</ele><time>2026-04-05T07:54:45.01Z</time></trkpt><trkpt lat="45.5134133" lon="8.7640567"><ele>139.0</ele><time>2026-04-05T07:54:47.01Z</time></trkpt><trkpt lat="45.5134467" lon="8.76394"><ele>139.0</ele><time>2026-04-05T07:54:49.01Z</time></trkpt><trkpt lat="45.5134883" lon="8.7638383"><ele>139.0</ele><time>2026-04-05T07:54:51.01Z</time></trkpt><trkpt lat="45.513525" lon="8.7637367"><ele>139.0</ele><time>2026-04-05T07:54:53.01Z</time></trkpt><trkpt lat="45.5135583" lon="8.76364"><ele>139.0</ele><time>2026-04-05T07:54:55.011Z</time></trkpt><trkpt lat="45.5136017" lon="8.76354"><ele>139.0</ele><time>2026-04-05T07:54:57.011Z</time></trkpt><trkpt lat="45.51365" lon="8.763445"><ele>139.0</ele><time>2026-04-05T07:54:59.01Z</time></trkpt><trkpt lat="45.513695" lon="8.7633333"><ele>139.0</ele><time>2026-04-05T07:55:01.01Z</time></trkpt><trkpt lat="45.5137233" lon="8.7632367"><ele>139.0</ele><time>2026-04-05T07:55:03.01Z</time></trkpt><trkpt lat="45.513755" lon="8.7631433"><ele>139.0</ele><time>2026-04-05T07:55:05.01Z</time></trkpt><trkpt lat="45.5137867" lon="8.7630317"><ele>139.28571428571428</ele><time>2026-04-05T07:55:08.01Z</time></trkpt><trkpt lat="45.5138217" lon="8.76295"><ele>139.57142857142858</ele><time>2026-04-05T07:55:10.01Z</time></trkpt><trkpt lat="45.5138617" lon="8.7628733"><ele>139.85714285714286</ele><time>2026-04-05T07:55:12.01Z</time></trkpt><trkpt lat="45.5138883" lon="8.7627783"><ele>140.14285714285714</ele><time>2026-04-05T07:55:14.01Z</time></trkpt><trkpt lat="45.5138967" lon="8.7626867"><ele>140.42857142857142</ele><time>2026-04-05T07:55:16.01Z</time></trkpt><trkpt lat="45.5139083" lon="8.7625983"><ele>140.71428571428572</ele><time>2026-04-05T07:55:18.01Z</time></trkpt><trkpt lat="45.513925" lon="8.7625017"><ele>141.0</ele><time>2026-04-05T07:55:20.01Z</time></trkpt><trkpt lat="45.5139583" lon="8.7624117"><ele>141.0</ele><time>2026-04-05T07:55:22.01Z</time></trkpt><trkpt lat="45.5139833" lon="8.762325"><ele>141.0</ele><time>2026-04-05T07:55:24.01Z</time></trkpt><trkpt lat="45.5140217" lon="8.7622083"><ele>141.0</ele><time>2026-04-05T07:55:27.01Z</time></trkpt><trkpt lat="45.5140583" lon="8.762125"><ele>141.0</ele><time>2026-04-05T07:55:29.01Z</time></trkpt><trkpt lat="45.5140883" lon="8.7620217"><ele>141.0</ele><time>2026-04-05T07:55:31.01Z</time></trkpt><trkpt lat="45.5141283" lon="8.7619267"><ele>141.0</ele><time>2026-04-05T07:55:33.01Z</time></trkpt><trkpt lat="45.5141617" lon="8.76185"><ele>141.0</ele><time>2026-04-05T07:55:35.01Z</time></trkpt><trkpt lat="45.514195" lon="8.7617233"><ele>141.0</ele><time>2026-04-05T07:55:38.01Z</time></trkpt><trkpt lat="45.514225" lon="8.7616283"><ele>141.0</ele><time>2026-04-05T07:55:40.01Z</time></trkpt><trkpt lat="45.51426" lon="8.7615467"><ele>141.0</ele><time>2026-04-05T07:55:42.01Z</time></trkpt><trkpt lat="45.5142983" lon="8.7614533"><ele>141.0</ele><time>2026-04-05T07:55:44.01Z</time></trkpt><trkpt lat="45.514335" lon="8.761365"><ele>141.0</ele><time>2026-04-05T07:55:46.01Z</time></trkpt><trkpt lat="45.5143683" lon="8.761275"><ele>141.0</ele><time>2026-04-05T07:55:48.01Z</time></trkpt><trkpt lat="45.5144033" lon="8.761175"><ele>141.0</ele><time>2026-04-05T07:55:50.01Z</time></trkpt><trkpt lat="45.5144317" lon="8.7610733"><ele>141.0</ele><time>2026-04-05T07:55:52.01Z</time></trkpt><trkpt lat="45.5144717" lon="8.7609733"><ele>141.0</ele><time>2026-04-05T07:55:54.01Z</time></trkpt><trkpt lat="45.5145033" lon="8.76088"><ele>141.0</ele><time>2026-04-05T07:55:56.01Z</time></trkpt><trkpt lat="45.5145383" lon="8.760785"><ele>141.0</ele><time>2026-04-05T07:55:58.01Z</time></trkpt><trkpt lat="45.514565" lon="8.7606967"><ele>141.0</ele><time>2026-04-05T07:56:00.01Z</time></trkpt><trkpt lat="45.5145883" lon="8.760605"><ele>141.0</ele><time>2026-04-05T07:56:02.01Z</time></trkpt><trkpt lat="45.5146317" lon="8.7605133"><ele>141.0</ele><time>2026-04-05T07:56:04.01Z</time></trkpt><trkpt lat="45.5146717" lon="8.7604317"><ele>141.0</ele><time>2026-04-05T07:56:06.01Z</time></trkpt><trkpt lat="45.5146983" lon="8.76035"><ele>141.0</ele><time>2026-04-05T07:56:08.01Z</time></trkpt><trkpt lat="45.5147383" lon="8.7602567"><ele>141.0</ele><time>2026-04-05T07:56:10.01Z</time></trkpt><trkpt lat="45.5147767" lon="8.7601733"><ele>141.0</ele><time>2026-04-05T07:56:12.01Z</time></trkpt><trkpt lat="45.5148183" lon="8.76008"><ele>141.0</ele><time>2026-04-05T07:56:15.01Z</time></trkpt><trkpt lat="45.51486" lon="8.7599817"><ele>141.0</ele><time>2026-04-05T07:56:17.011Z</time></trkpt><trkpt lat="45.514895" lon="8.7598917"><ele>141.0</ele><time>2026-04-05T07:56:19.01Z</time></trkpt><trkpt lat="45.5149367" lon="8.7598033"><ele>140.5</ele><time>2026-04-05T07:56:21.01Z</time></trkpt><trkpt lat="45.5149733" lon="8.7597217"><ele>140.0</ele><time>2026-04-05T07:56:23.01Z</time></trkpt><trkpt lat="45.5150117" lon="8.759645"><ele>139.5</ele><time>2026-04-05T07:56:25.01Z</time></trkpt><trkpt lat="45.51507" lon="8.7595117"><ele>139.0</ele><time>2026-04-05T07:56:27.01Z</time></trkpt><trkpt lat="45.5151083" lon="8.7594033"><ele>138.5</ele><time>2026-04-05T07:56:29.01Z</time></trkpt><trkpt lat="45.515155" lon="8.7593417"><ele>138.0</ele><time>2026-04-05T07:56:31.01Z</time></trkpt><trkpt lat="45.5152083" lon="8.75929"><ele>138.0</ele><time>2026-04-05T07:56:33.01Z</time></trkpt><trkpt lat="45.515275" lon="8.7592517"><ele>138.0</ele><time>2026-04-05T07:56:35.01Z</time></trkpt><trkpt lat="45.515345" lon="8.75921"><ele>138.0</ele><time>2026-04-05T07:56:37.01Z</time></trkpt><trkpt lat="45.5154167" lon="8.759145"><ele>138.0</ele><time>2026-04-05T07:56:40.01Z</time></trkpt><trkpt lat="45.5154767" lon="8.7591033"><ele>138.0</ele><time>2026-04-05T07:56:42.01Z</time></trkpt><trkpt lat="45.515565" lon="8.759055"><ele>138.0</ele><time>2026-04-05T07:56:45.01Z</time></trkpt><trkpt lat="45.5156317" lon="8.7590083"><ele>138.0</ele><time>2026-04-05T07:56:47.01Z</time></trkpt><trkpt lat="45.5156933" lon="8.7589633"><ele>138.0</ele><time>2026-04-05T07:56:49.01Z</time></trkpt><trkpt lat="45.51575" lon="8.75892"><ele>138.0</ele><time>2026-04-05T07:56:51.01Z</time></trkpt><trkpt lat="45.515805" lon="8.7588667"><ele>138.0</ele><time>2026-04-05T07:56:53.01Z</time></trkpt><trkpt lat="45.5158867" lon="8.7588"><ele>138.0</ele><time>2026-04-05T07:56:56.01Z</time></trkpt><trkpt lat="45.51594" lon="8.758745"><ele>138.0</ele><time>2026-04-05T07:56:58.01Z</time></trkpt><trkpt lat="45.5160183" lon="8.7586817"><ele>138.0</ele><time>2026-04-05T07:57:01.01Z</time></trkpt><trkpt lat="45.51608" lon="8.75864"><ele>138.0</ele><time>2026-04-05T07:57:03.01Z</time></trkpt><trkpt lat="45.5161567" lon="8.7586017"><ele>138.0</ele><time>2026-04-05T07:57:05.01Z</time></trkpt><trkpt lat="45.51623" lon="8.7585633"><ele>138.0</ele><time>2026-04-05T07:57:07.01Z</time></trkpt><trkpt lat="45.516295" lon="8.7585167"><ele>138.0</ele><time>2026-04-05T07:57:09.01Z</time></trkpt><trkpt lat="45.5163667" lon="8.7584517"><ele>138.0</ele><time>2026-04-05T07:57:11.01Z</time></trkpt><trkpt lat="45.5164383" lon="8.75839"><ele>139.5</ele><time>2026-04-05T07:57:13.01Z</time></trkpt><trkpt lat="45.51651" lon="8.7583283"><ele>141.0</ele><time>2026-04-05T07:57:15.011Z</time></trkpt><trkpt lat="45.5165683" lon="8.75826"><ele>142.5</ele><time>2026-04-05T07:57:17.01Z</time></trkpt><trkpt lat="45.5166233" lon="8.7582033"><ele>144.0</ele><time>2026-04-05T07:57:19.01Z</time></trkpt><trkpt lat="45.5167083" lon="8.75814"><ele>145.5</ele><time>2026-04-05T07:57:22.01Z</time></trkpt><trkpt lat="45.5167883" lon="8.75809"><ele>147.0</ele><time>2026-04-05T07:57:25.01Z</time></trkpt><trkpt lat="45.516855" lon="8.758055"><ele>147.0</ele><time>2026-04-05T07:57:27.01Z</time></trkpt><trkpt lat="45.516935" lon="8.758035"><ele>147.0</ele><time>2026-04-05T07:57:29.01Z</time></trkpt><trkpt lat="45.5170167" lon="8.7580217"><ele>147.0</ele><time>2026-04-05T07:57:31.01Z</time></trkpt><trkpt lat="45.5170933" lon="8.758005"><ele>147.0</ele><time>2026-04-05T07:57:33.01Z</time></trkpt><trkpt lat="45.5171733" lon="8.75798"><ele>147.0</ele><time>2026-04-05T07:57:35.01Z</time></trkpt><trkpt lat="45.517255" lon="8.757945"><ele>147.0</ele><time>2026-04-05T07:57:38.01Z</time></trkpt><trkpt lat="45.51732" lon="8.757895"><ele>147.16666666666666</ele><time>2026-04-05T07:57:41.01Z</time></trkpt><trkpt lat="45.5173917" lon="8.75783"><ele>147.33333333333334</ele><time>2026-04-05T07:57:44.01Z</time></trkpt><trkpt lat="45.5174567" lon="8.7577717"><ele>147.5</ele><time>2026-04-05T07:57:46.01Z</time></trkpt><trkpt lat="45.5175317" lon="8.7577283"><ele>147.66666666666669</ele><time>2026-04-05T07:57:48.01Z</time></trkpt><trkpt lat="45.5176217" lon="8.7577033"><ele>147.83333333333334</ele><time>2026-04-05T07:57:50.01Z</time></trkpt><trkpt lat="45.5177067" lon="8.75769"><ele>148.0</ele><time>2026-04-05T07:57:52.01Z</time></trkpt><trkpt lat="45.5177933" lon="8.7576883"><ele>148.0</ele><time>2026-04-05T07:57:54.01Z</time></trkpt><trkpt lat="45.5178733" lon="8.7576717"><ele>148.0</ele><time>2026-04-05T07:57:56.01Z</time></trkpt><trkpt lat="45.5179567" lon="8.7576583"><ele>148.0</ele><time>2026-04-05T07:57:58.01Z</time></trkpt><trkpt lat="45.5180367" lon="8.757655"><ele>148.0</ele><time>2026-04-05T07:58:00.01Z</time></trkpt><trkpt lat="45.5181183" lon="8.75765"><ele>148.0</ele><time>2026-04-05T07:58:02.01Z</time></trkpt><trkpt lat="45.5181967" lon="8.7576483"><ele>148.0</ele><time>2026-04-05T07:58:04.01Z</time></trkpt><trkpt lat="45.5182667" lon="8.7576383"><ele>147.66666666666669</ele><time>2026-04-05T07:58:06.01Z</time></trkpt><trkpt lat="45.51833" lon="8.7576233"><ele>147.33333333333334</ele><time>2026-04-05T07:58:08.01Z</time></trkpt><trkpt lat="45.518415" lon="8.757605"><ele>147.0</ele><time>2026-04-05T07:58:10.01Z</time></trkpt><trkpt lat="45.51848" lon="8.7575667"><ele>146.66666666666666</ele><time>2026-04-05T07:58:12.01Z</time></trkpt><trkpt lat="45.5185467" lon="8.75749"><ele>146.33333333333331</ele><time>2026-04-05T07:58:14.01Z</time></trkpt><trkpt lat="45.518615" lon="8.757415"><ele>146.0</ele><time>2026-04-05T07:58:16.01Z</time></trkpt><trkpt lat="45.518665" lon="8.7573233"><ele>146.0</ele><time>2026-04-05T07:58:18.01Z</time></trkpt><trkpt lat="45.5187183" lon="8.7572117"><ele>146.0</ele><time>2026-04-05T07:58:20.01Z</time></trkpt><trkpt lat="45.51876" lon="8.7571117"><ele>146.0</ele><time>2026-04-05T07:58:22.01Z</time></trkpt><trkpt lat="45.51882" lon="8.7570283"><ele>146.0</ele><time>2026-04-05T07:58:24.01Z</time></trkpt><trkpt lat="45.51887" lon="8.7569483"><ele>146.0</ele><time>2026-04-05T07:58:26.01Z</time></trkpt><trkpt lat="45.51886" lon="8.7568583"><ele>146.0</ele><time>2026-04-05T07:58:28.01Z</time></trkpt><trkpt lat="45.518815" lon="8.7567767"><ele>145.33333333333331</ele><time>2026-04-05T07:58:30.01Z</time></trkpt><trkpt lat="45.5187617" lon="8.756685"><ele>144.66666666666666</ele><time>2026-04-05T07:58:32.01Z</time></trkpt><trkpt lat="45.5187083" lon="8.75659"><ele>144.0</ele><time>2026-04-05T07:58:34.01Z</time></trkpt><trkpt lat="45.518665" lon="8.7564917"><ele>143.33333333333334</ele><time>2026-04-05T07:58:36.01Z</time></trkpt><trkpt lat="45.5186217" lon="8.7564"><ele>142.66666666666669</ele><time>2026-04-05T07:58:38.01Z</time></trkpt><trkpt lat="45.5185733" lon="8.7563"><ele>142.0</ele><time>2026-04-05T07:58:40.01Z</time></trkpt><trkpt lat="45.5185217" lon="8.756195"><ele>142.0</ele><time>2026-04-05T07:58:42.01Z</time></trkpt><trkpt lat="45.5184717" lon="8.756085"><ele>142.0</ele><time>2026-04-05T07:58:44.01Z</time></trkpt><trkpt lat="45.5184217" lon="8.75598"><ele>142.0</ele><time>2026-04-05T07:58:46.01Z</time></trkpt><trkpt lat="45.5183683" lon="8.75587"><ele>142.0</ele><time>2026-04-05T07:58:48.011Z</time></trkpt><trkpt lat="45.518325" lon="8.755755"><ele>142.0</ele><time>2026-04-05T07:58:50.01Z</time></trkpt><trkpt lat="45.51826" lon="8.7555917"><ele>141.66666666666669</ele><time>2026-04-05T07:58:53.01Z</time></trkpt><trkpt lat="45.5182217" lon="8.75549"><ele>141.33333333333334</ele><time>2026-04-05T07:58:55.01Z</time></trkpt><trkpt lat="45.51818" lon="8.7553883"><ele>141.0</ele><time>2026-04-05T07:58:57.01Z</time></trkpt><trkpt lat="45.5181383" lon="8.7552933"><ele>140.66666666666666</ele><time>2026-04-05T07:58:59.01Z</time></trkpt><trkpt lat="45.518085" lon="8.755195"><ele>140.33333333333331</ele><time>2026-04-05T07:59:01.01Z</time></trkpt><trkpt lat="45.5180233" lon="8.755105"><ele>140.0</ele><time>2026-04-05T07:59:03.01Z</time></trkpt><trkpt lat="45.5179617" lon="8.75502"><ele>139.83333333333331</ele><time>2026-04-05T07:59:05.01Z</time></trkpt><trkpt lat="45.5179067" lon="8.75493"><ele>139.66666666666666</ele><time>2026-04-05T07:59:07.01Z</time></trkpt><trkpt lat="45.5178533" lon="8.7548533"><ele>139.5</ele><time>2026-04-05T07:59:09.01Z</time></trkpt><trkpt lat="45.51778" lon="8.7547767"><ele>139.33333333333334</ele><time>2026-04-05T07:59:11.01Z</time></trkpt><trkpt lat="45.517715" lon="8.7546867"><ele>139.16666666666669</ele><time>2026-04-05T07:59:13.01Z</time></trkpt><trkpt lat="45.5176367" lon="8.7545917"><ele>139.0</ele><time>2026-04-05T07:59:15.01Z</time></trkpt><trkpt lat="45.5175617" lon="8.7545"><ele>139.0</ele><time>2026-04-05T07:59:17.01Z</time></trkpt><trkpt lat="45.5174833" lon="8.7544133"><ele>139.0</ele><time>2026-04-05T07:59:19.01Z</time></trkpt><trkpt lat="45.51741" lon="8.7543033"><ele>139.0</ele><time>2026-04-05T07:59:21.01Z</time></trkpt><trkpt lat="45.517355" lon="8.7542033"><ele>139.0</ele><time>2026-04-05T07:59:23.01Z</time></trkpt><trkpt lat="45.5173117" lon="8.7540783"><ele>139.0</ele><time>2026-04-05T07:59:25.01Z</time></trkpt><trkpt lat="45.5173133" lon="8.7539317"><ele>138.6</ele><time>2026-04-05T07:59:27.011Z</time></trkpt><trkpt lat="45.5173333" lon="8.7537767"><ele>138.2</ele><time>2026-04-05T07:59:29.01Z</time></trkpt><trkpt lat="45.5173717" lon="8.753645"><ele>137.79999999999998</ele><time>2026-04-05T07:59:31.01Z</time></trkpt><trkpt lat="45.5174083" lon="8.7535083"><ele>137.4</ele><time>2026-04-05T07:59:33.01Z</time></trkpt><trkpt lat="45.5174533" lon="8.7533767"><ele>137.0</ele><time>2026-04-05T07:59:35.01Z</time></trkpt><trkpt lat="45.5175" lon="8.75325"><ele>137.0</ele><time>2026-04-05T07:59:37.01Z</time></trkpt><trkpt lat="45.517545" lon="8.75312"><ele>137.0</ele><time>2026-04-05T07:59:39.01Z</time></trkpt><trkpt lat="45.5175933" lon="8.7529883"><ele>137.0</ele><time>2026-04-05T07:59:41.01Z</time></trkpt><trkpt lat="45.5176383" lon="8.7528617"><ele>137.0</ele><time>2026-04-05T07:59:43.01Z</time></trkpt><trkpt lat="45.5176833" lon="8.752725"><ele>137.0</ele><time>2026-04-05T07:59:45.01Z</time></trkpt><trkpt lat="45.51774" lon="8.752595"><ele>137.2</ele><time>2026-04-05T07:59:47.01Z</time></trkpt><trkpt lat="45.5177917" lon="8.7524667"><ele>137.39999999999998</ele><time>2026-04-05T07:59:49.01Z</time></trkpt><trkpt lat="45.5178233" lon="8.75234"><ele>137.60000000000002</ele><time>2026-04-05T07:59:51.01Z</time></trkpt><trkpt lat="45.5178067" lon="8.752215"><ele>137.8</ele><time>2026-04-05T07:59:53.01Z</time></trkpt><trkpt lat="45.5177383" lon="8.7520883"><ele>138.0</ele><time>2026-04-05T07:59:55.011Z</time></trkpt><trkpt lat="45.5176517" lon="8.75199"><ele>138.0</ele><time>2026-04-05T07:59:57.01Z</time></trkpt><trkpt lat="45.5175617" lon="8.7518967"><ele>138.0</ele><time>2026-04-05T07:59:59.009Z</time></trkpt><trkpt lat="45.5174817" lon="8.7517967"><ele>138.0</ele><time>2026-04-05T08:00:01.009Z</time></trkpt><trkpt lat="45.5174017" lon="8.7517017"><ele>138.0</ele><time>2026-04-05T08:00:03.009Z</time></trkpt><trkpt lat="45.5173233" lon="8.751605"><ele>138.0</ele><time>2026-04-05T08:00:05.009Z</time></trkpt><trkpt lat="45.5172633" lon="8.7515183"><ele>137.8</ele><time>2026-04-05T08:00:07.009Z</time></trkpt><trkpt lat="45.5172017" lon="8.75141"><ele>137.60000000000002</ele><time>2026-04-05T08:00:09.009Z</time></trkpt><trkpt lat="45.5171367" lon="8.7513117"><ele>137.39999999999998</ele><time>2026-04-05T08:00:11.009Z</time></trkpt><trkpt lat="45.5170767" lon="8.7512367"><ele>137.2</ele><time>2026-04-05T08:00:13.009Z</time></trkpt><trkpt lat="45.5170067" lon="8.7511467"><ele>137.0</ele><time>2026-04-05T08:00:15.009Z</time></trkpt><trkpt lat="45.5169417" lon="8.7510617"><ele>137.0</ele><time>2026-04-05T08:00:17.009Z</time></trkpt><trkpt lat="45.5168717" lon="8.7509817"><ele>137.0</ele><time>2026-04-05T08:00:19.009Z</time></trkpt><trkpt lat="45.5167983" lon="8.7509383"><ele>137.0</ele><time>2026-04-05T08:00:21.009Z</time></trkpt><trkpt lat="45.516715" lon="8.750905"><ele>137.0</ele><time>2026-04-05T08:00:24.009Z</time></trkpt><trkpt lat="45.5166617" lon="8.750835"><ele>137.0</ele><time>2026-04-05T08:00:26.009Z</time></trkpt><trkpt lat="45.5166417" lon="8.750685"><ele>137.0</ele><time>2026-04-05T08:00:28.009Z</time></trkpt><trkpt lat="45.5166467" lon="8.750595"><ele>137.0</ele><time>2026-04-05T08:00:29.01Z</time></trkpt><trkpt lat="45.5166567" lon="8.7505"><ele>137.0</ele><time>2026-04-05T08:00:30.009Z</time></trkpt><trkpt lat="45.51667" lon="8.7504067"><ele>137.0</ele><time>2026-04-05T08:00:31.009Z</time></trkpt><trkpt lat="45.5166867" lon="8.7503083"><ele>137.0</ele><time>2026-04-05T08:00:32.009Z</time></trkpt><trkpt lat="45.5167067" lon="8.75021"><ele>137.0</ele><time>2026-04-05T08:00:33.009Z</time></trkpt><trkpt lat="45.51672" lon="8.75012"><ele>137.0</ele><time>2026-04-05T08:00:34.01Z</time></trkpt><trkpt lat="45.5167183" lon="8.7499567"><ele>136.75</ele><time>2026-04-05T08:00:36.009Z</time></trkpt><trkpt lat="45.5166833" lon="8.7498033"><ele>136.5</ele><time>2026-04-05T08:00:38.009Z</time></trkpt><trkpt lat="45.5166" lon="8.7496733"><ele>136.25</ele><time>2026-04-05T08:00:40.009Z</time></trkpt><trkpt lat="45.5165" lon="8.74958"><ele>136.0</ele><time>2026-04-05T08:00:42.009Z</time></trkpt><trkpt lat="45.5164083" lon="8.749485"><ele>136.0</ele><time>2026-04-05T08:00:44.009Z</time></trkpt><trkpt lat="45.5163333" lon="8.7493917"><ele>136.0</ele><time>2026-04-05T08:00:46.009Z</time></trkpt><trkpt lat="45.51625" lon="8.7492983"><ele>136.0</ele><time>2026-04-05T08:00:48.009Z</time></trkpt><trkpt lat="45.51617" lon="8.7492083"><ele>136.0</ele><time>2026-04-05T08:00:50.01Z</time></trkpt><trkpt lat="45.5160833" lon="8.7491017"><ele>136.0</ele><time>2026-04-05T08:00:52.009Z</time></trkpt><trkpt lat="45.5159933" lon="8.7490067"><ele>136.6</ele><time>2026-04-05T08:00:54.009Z</time></trkpt><trkpt lat="45.5159383" lon="8.7489583"><ele>137.2</ele><time>2026-04-05T08:00:55.009Z</time></trkpt><trkpt lat="45.5158833" lon="8.7489067"><ele>137.8</ele><time>2026-04-05T08:00:56.01Z</time></trkpt><trkpt lat="45.51579" lon="8.7488117"><ele>138.4</ele><time>2026-04-05T08:00:58.009Z</time></trkpt><trkpt lat="45.5157" lon="8.7487183"><ele>139.0</ele><time>2026-04-05T08:01:00.009Z</time></trkpt><trkpt lat="45.5156067" lon="8.748625"><ele>139.25</ele><time>2026-04-05T08:01:02.009Z</time></trkpt><trkpt lat="45.51554" lon="8.748515"><ele>139.5</ele><time>2026-04-05T08:01:04.009Z</time></trkpt><trkpt lat="45.515465" lon="8.7484083"><ele>139.75</ele><time>2026-04-05T08:01:06.009Z</time></trkpt><trkpt lat="45.5153717" lon="8.7483"><ele>140.0</ele><time>2026-04-05T08:01:08.009Z</time></trkpt><trkpt lat="45.51528" lon="8.7481817"><ele>140.4</ele><time>2026-04-05T08:01:10.009Z</time></trkpt><trkpt lat="45.5151917" lon="8.748065"><ele>140.8</ele><time>2026-04-05T08:01:12.009Z</time></trkpt><trkpt lat="45.515115" lon="8.7479617"><ele>141.2</ele><time>2026-04-05T08:01:14.009Z</time></trkpt><trkpt lat="45.5150417" lon="8.7478817"><ele>141.6</ele><time>2026-04-05T08:01:15.009Z</time></trkpt><trkpt lat="45.5149767" lon="8.7478317"><ele>142.0</ele><time>2026-04-05T08:01:16.009Z</time></trkpt><trkpt lat="45.5149017" lon="8.7477"><ele>141.2</ele><time>2026-04-05T08:01:18.009Z</time></trkpt><trkpt lat="45.5148317" lon="8.74758"><ele>140.39999999999998</ele><time>2026-04-05T08:01:20.009Z</time></trkpt><trkpt lat="45.5147667" lon="8.7474517"><ele>139.60000000000002</ele><time>2026-04-05T08:01:22.009Z</time></trkpt><trkpt lat="45.514695" lon="8.747345"><ele>138.8</ele><time>2026-04-05T08:01:24.009Z</time></trkpt><trkpt lat="45.514635" lon="8.7472333"><ele>138.0</ele><time>2026-04-05T08:01:26.009Z</time></trkpt><trkpt lat="45.5145783" lon="8.7471167"><ele>137.8</ele><time>2026-04-05T08:01:28.009Z</time></trkpt><trkpt lat="45.51453" lon="8.7469817"><ele>137.60000000000002</ele><time>2026-04-05T08:01:30.009Z</time></trkpt><trkpt lat="45.5144817" lon="8.7468383"><ele>137.39999999999998</ele><time>2026-04-05T08:01:32.009Z</time></trkpt><trkpt lat="45.514425" lon="8.7467133"><ele>137.2</ele><time>2026-04-05T08:01:34.009Z</time></trkpt><trkpt lat="45.5143717" lon="8.7465917"><ele>137.0</ele><time>2026-04-05T08:01:36.009Z</time></trkpt><trkpt lat="45.5143283" lon="8.7464683"><ele>137.0</ele><time>2026-04-05T08:01:38.009Z</time></trkpt><trkpt lat="45.514275" lon="8.74633"><ele>137.0</ele><time>2026-04-05T08:01:40.009Z</time></trkpt><trkpt lat="45.51422" lon="8.74619"><ele>137.0</ele><time>2026-04-05T08:01:42.009Z</time></trkpt><trkpt lat="45.5141767" lon="8.7460717"><ele>137.0</ele><time>2026-04-05T08:01:44.009Z</time></trkpt><trkpt lat="45.5141333" lon="8.74594"><ele>137.0</ele><time>2026-04-05T08:01:46.009Z</time></trkpt><trkpt lat="45.51409" lon="8.7457933"><ele>137.2</ele><time>2026-04-05T08:01:48.009Z</time></trkpt><trkpt lat="45.514035" lon="8.7456583"><ele>137.39999999999998</ele><time>2026-04-05T08:01:50.009Z</time></trkpt><trkpt lat="45.5139717" lon="8.7455183"><ele>137.60000000000002</ele><time>2026-04-05T08:01:52.009Z</time></trkpt><trkpt lat="45.5139383" lon="8.7454417"><ele>137.8</ele><time>2026-04-05T08:01:53.009Z</time></trkpt><trkpt lat="45.5139133" lon="8.7453567"><ele>138.0</ele><time>2026-04-05T08:01:54.009Z</time></trkpt><trkpt lat="45.5138717" lon="8.7452283"><ele>138.0</ele><time>2026-04-05T08:01:56.009Z</time></trkpt><trkpt lat="45.5138383" lon="8.7451117"><ele>138.0</ele><time>2026-04-05T08:01:58.009Z</time></trkpt><trkpt lat="45.5138067" lon="8.74499"><ele>138.0</ele><time>2026-04-05T08:02:00.009Z</time></trkpt><trkpt lat="45.5137683" lon="8.7448667"><ele>138.0</ele><time>2026-04-05T08:02:02.009Z</time></trkpt><trkpt lat="45.5137133" lon="8.7447467"><ele>138.0</ele><time>2026-04-05T08:02:04.009Z</time></trkpt><trkpt lat="45.5136633" lon="8.7446"><ele>138.4</ele><time>2026-04-05T08:02:06.009Z</time></trkpt><trkpt lat="45.5136067" lon="8.7444667"><ele>138.8</ele><time>2026-04-05T08:02:08.009Z</time></trkpt><trkpt lat="45.5135567" lon="8.7443333"><ele>139.2</ele><time>2026-04-05T08:02:10.009Z</time></trkpt><trkpt lat="45.51351" lon="8.7442217"><ele>139.6</ele><time>2026-04-05T08:02:12.009Z</time></trkpt><trkpt lat="45.5134567" lon="8.7441183"><ele>140.0</ele><time>2026-04-05T08:02:14.009Z</time></trkpt><trkpt lat="45.513405" lon="8.744"><ele>140.0</ele><time>2026-04-05T08:02:16.009Z</time></trkpt><trkpt lat="45.51335" lon="8.7438483"><ele>140.0</ele><time>2026-04-05T08:02:18.01Z</time></trkpt><trkpt lat="45.5132767" lon="8.7436967"><ele>140.0</ele><time>2026-04-05T08:02:20.009Z</time></trkpt><trkpt lat="45.5132033" lon="8.7435567"><ele>140.0</ele><time>2026-04-05T08:02:22.009Z</time></trkpt><trkpt lat="45.5131383" lon="8.7434317"><ele>139.0</ele><time>2026-04-05T08:02:24.01Z</time></trkpt><trkpt lat="45.51309" lon="8.7433617"><ele>138.0</ele><time>2026-04-05T08:02:25.009Z</time></trkpt><trkpt lat="45.5130483" lon="8.7432933"><ele>137.0</ele><time>2026-04-05T08:02:26.009Z</time></trkpt><trkpt lat="45.5129983" lon="8.7432183"><ele>136.0</ele><time>2026-04-05T08:02:27.009Z</time></trkpt><trkpt lat="45.5129517" lon="8.7431517"><ele>135.0</ele><time>2026-04-05T08:02:28.009Z</time></trkpt><trkpt lat="45.512905" lon="8.7430833"><ele>134.0</ele><time>2026-04-05T08:02:29.009Z</time></trkpt><trkpt lat="45.51282" lon="8.7429683"><ele>133.6</ele><time>2026-04-05T08:02:31.009Z</time></trkpt><trkpt lat="45.51274" lon="8.7428583"><ele>133.2</ele><time>2026-04-05T08:02:33.009Z</time></trkpt><trkpt lat="45.5126667" lon="8.7427383"><ele>132.79999999999998</ele><time>2026-04-05T08:02:35.009Z</time></trkpt><trkpt lat="45.5125883" lon="8.7426133"><ele>132.4</ele><time>2026-04-05T08:02:37.009Z</time></trkpt><trkpt lat="45.51252" lon="8.7425083"><ele>132.0</ele><time>2026-04-05T08:02:39.009Z</time></trkpt><trkpt lat="45.5124667" lon="8.74239"><ele>132.0</ele><time>2026-04-05T08:02:41.009Z</time></trkpt><trkpt lat="45.512395" lon="8.7422833"><ele>132.0</ele><time>2026-04-05T08:02:43.009Z</time></trkpt><trkpt lat="45.5123017" lon="8.7422167"><ele>132.0</ele><time>2026-04-05T08:02:45.009Z</time></trkpt><trkpt lat="45.5122067" lon="8.7421667"><ele>132.0</ele><time>2026-04-05T08:02:47.009Z</time></trkpt><trkpt lat="45.5121" lon="8.742105"><ele>132.0</ele><time>2026-04-05T08:02:49.009Z</time></trkpt><trkpt lat="45.5119917" lon="8.74202"><ele>131.79999999999998</ele><time>2026-04-05T08:02:51.009Z</time></trkpt><trkpt lat="45.5119333" lon="8.741985"><ele>131.6</ele><time>2026-04-05T08:02:52.009Z</time></trkpt><trkpt lat="45.5118267" lon="8.741915"><ele>131.39999999999998</ele><time>2026-04-05T08:02:54.009Z</time></trkpt><trkpt lat="45.5117233" lon="8.74186"><ele>131.2</ele><time>2026-04-05T08:02:56.009Z</time></trkpt><trkpt lat="45.5116233" lon="8.7418267"><ele>131.0</ele><time>2026-04-05T08:02:58.009Z</time></trkpt><trkpt lat="45.5115333" lon="8.7417333"><ele>131.4</ele><time>2026-04-05T08:03:00.009Z</time></trkpt><trkpt lat="45.5114733" lon="8.74159"><ele>131.8</ele><time>2026-04-05T08:03:02.009Z</time></trkpt><trkpt lat="45.5114233" lon="8.7414633"><ele>132.20000000000002</ele><time>2026-04-05T08:03:04.009Z</time></trkpt><trkpt lat="45.51137" lon="8.7413383"><ele>132.6</ele><time>2026-04-05T08:03:06.009Z</time></trkpt><trkpt lat="45.5113517" lon="8.7412167"><ele>133.0</ele><time>2026-04-05T08:03:08.009Z</time></trkpt><trkpt lat="45.5113067" lon="8.7410883"><ele>133.4</ele><time>2026-04-05T08:03:10.009Z</time></trkpt><trkpt lat="45.511245" lon="8.740965"><ele>133.8</ele><time>2026-04-05T08:03:12.009Z</time></trkpt><trkpt lat="45.5111833" lon="8.7408467"><ele>134.2</ele><time>2026-04-05T08:03:14.009Z</time></trkpt><trkpt lat="45.5111133" lon="8.740735"><ele>134.6</ele><time>2026-04-05T08:03:16.009Z</time></trkpt><trkpt lat="45.5110617" lon="8.74062"><ele>135.0</ele><time>2026-04-05T08:03:18.009Z</time></trkpt><trkpt lat="45.5110133" lon="8.7404967"><ele>135.0</ele><time>2026-04-05T08:03:20.009Z</time></trkpt><trkpt lat="45.5109617" lon="8.740375"><ele>135.0</ele><time>2026-04-05T08:03:22.009Z</time></trkpt><trkpt lat="45.5109167" lon="8.7402333"><ele>135.0</ele><time>2026-04-05T08:03:24.009Z</time></trkpt><trkpt lat="45.5108767" lon="8.740105"><ele>135.0</ele><time>2026-04-05T08:03:26.009Z</time></trkpt><trkpt lat="45.510835" lon="8.7399867"><ele>135.0</ele><time>2026-04-05T08:03:28.009Z</time></trkpt><trkpt lat="45.51081" lon="8.7398683"><ele>135.0</ele><time>2026-04-05T08:03:30.009Z</time></trkpt><trkpt lat="45.5107683" lon="8.73975"><ele>135.0</ele><time>2026-04-05T08:03:32.009Z</time></trkpt><trkpt lat="45.5107333" lon="8.739615"><ele>135.0</ele><time>2026-04-05T08:03:34.009Z</time></trkpt><trkpt lat="45.5106983" lon="8.7394833"><ele>135.0</ele><time>2026-04-05T08:03:36.009Z</time></trkpt><trkpt lat="45.5106617" lon="8.739365"><ele>135.0</ele><time>2026-04-05T08:03:38.009Z</time></trkpt><trkpt lat="45.5106083" lon="8.739265"><ele>134.2</ele><time>2026-04-05T08:03:40.009Z</time></trkpt><trkpt lat="45.5105283" lon="8.7392317"><ele>133.4</ele><time>2026-04-05T08:03:42.009Z</time></trkpt><trkpt lat="45.5104333" lon="8.739235"><ele>132.6</ele><time>2026-04-05T08:03:44.009Z</time></trkpt><trkpt lat="45.5103133" lon="8.739225"><ele>131.8</ele><time>2026-04-05T08:03:46.01Z</time></trkpt><trkpt lat="45.5102" lon="8.7392083"><ele>131.0</ele><time>2026-04-05T08:03:48.009Z</time></trkpt><trkpt lat="45.5100917" lon="8.73919"><ele>131.0</ele><time>2026-04-05T08:03:50.009Z</time></trkpt><trkpt lat="45.5099883" lon="8.7391733"><ele>131.0</ele><time>2026-04-05T08:03:52.009Z</time></trkpt><trkpt lat="45.5098833" lon="8.7391733"><ele>131.0</ele><time>2026-04-05T08:03:54.009Z</time></trkpt><trkpt lat="45.5097883" lon="8.7391567"><ele>131.0</ele><time>2026-04-05T08:03:56.009Z</time></trkpt><trkpt lat="45.50969" lon="8.739135"><ele>131.0</ele><time>2026-04-05T08:03:58.009Z</time></trkpt><trkpt lat="45.5095917" lon="8.73912"><ele>131.2</ele><time>2026-04-05T08:04:00.01Z</time></trkpt><trkpt lat="45.509495" lon="8.7391067"><ele>131.39999999999998</ele><time>2026-04-05T08:04:02.009Z</time></trkpt><trkpt lat="45.5094083" lon="8.7390867"><ele>131.6</ele><time>2026-04-05T08:04:04.009Z</time></trkpt><trkpt lat="45.5093183" lon="8.7390633"><ele>131.79999999999998</ele><time>2026-04-05T08:04:06.009Z</time></trkpt><trkpt lat="45.50923" lon="8.7390217"><ele>132.0</ele><time>2026-04-05T08:04:08.01Z</time></trkpt><trkpt lat="45.50915" lon="8.73895"><ele>132.0</ele><time>2026-04-05T08:04:10.009Z</time></trkpt><trkpt lat="45.5090833" lon="8.7388567"><ele>132.0</ele><time>2026-04-05T08:04:12.01Z</time></trkpt><trkpt lat="45.5090267" lon="8.7387633"><ele>132.0</ele><time>2026-04-05T08:04:14.009Z</time></trkpt><trkpt lat="45.5089717" lon="8.7386633"><ele>132.0</ele><time>2026-04-05T08:04:16.009Z</time></trkpt><trkpt lat="45.5089067" lon="8.7385717"><ele>132.0</ele><time>2026-04-05T08:04:18.009Z</time></trkpt><trkpt lat="45.508845" lon="8.7384833"><ele>132.0</ele><time>2026-04-05T08:04:20.009Z</time></trkpt><trkpt lat="45.50878" lon="8.7383817"><ele>132.0</ele><time>2026-04-05T08:04:22.009Z</time></trkpt><trkpt lat="45.5087167" lon="8.7382633"><ele>132.0</ele><time>2026-04-05T08:04:24.009Z</time></trkpt><trkpt lat="45.5086667" lon="8.7381667"><ele>132.0</ele><time>2026-04-05T08:04:26.009Z</time></trkpt><trkpt lat="45.5086217" lon="8.738065"><ele>132.0</ele><time>2026-04-05T08:04:28.01Z</time></trkpt><trkpt lat="45.508565" lon="8.73796"><ele>132.0</ele><time>2026-04-05T08:04:30.009Z</time></trkpt><trkpt lat="45.5085217" lon="8.737865"><ele>132.0</ele><time>2026-04-05T08:04:32.009Z</time></trkpt><trkpt lat="45.5084667" lon="8.7377717"><ele>132.33333333333334</ele><time>2026-04-05T08:04:34.009Z</time></trkpt><trkpt lat="45.50841" lon="8.7376783"><ele>132.66666666666666</ele><time>2026-04-05T08:04:36.009Z</time></trkpt><trkpt lat="45.50835" lon="8.737585"><ele>133.0</ele><time>2026-04-05T08:04:38.009Z</time></trkpt><trkpt lat="45.50829" lon="8.7374933"><ele>133.33333333333331</ele><time>2026-04-05T08:04:40.009Z</time></trkpt><trkpt lat="45.50823" lon="8.737405"><ele>133.66666666666666</ele><time>2026-04-05T08:04:42.009Z</time></trkpt><trkpt lat="45.508175" lon="8.7373167"><ele>134.0</ele><time>2026-04-05T08:04:44.009Z</time></trkpt><trkpt lat="45.50813" lon="8.73723"><ele>134.0</ele><time>2026-04-05T08:04:46.009Z</time></trkpt><trkpt lat="45.50808" lon="8.7371433"><ele>134.0</ele><time>2026-04-05T08:04:48.009Z</time></trkpt><trkpt lat="45.50803" lon="8.7370533"><ele>134.0</ele><time>2026-04-05T08:04:50.009Z</time></trkpt><trkpt lat="45.5079833" lon="8.7369683"><ele>134.0</ele><time>2026-04-05T08:04:52.009Z</time></trkpt><trkpt lat="45.5079233" lon="8.7368683"><ele>134.0</ele><time>2026-04-05T08:04:54.009Z</time></trkpt><trkpt lat="45.50786" lon="8.7367767"><ele>134.0</ele><time>2026-04-05T08:04:56.009Z</time></trkpt><trkpt lat="45.5077717" lon="8.7367067"><ele>133.83333333333331</ele><time>2026-04-05T08:04:58.009Z</time></trkpt><trkpt lat="45.5076883" lon="8.73663"><ele>133.66666666666666</ele><time>2026-04-05T08:05:00.009Z</time></trkpt><trkpt lat="45.5076117" lon="8.7365883"><ele>133.5</ele><time>2026-04-05T08:05:02.009Z</time></trkpt><trkpt lat="45.507525" lon="8.7365683"><ele>133.33333333333334</ele><time>2026-04-05T08:05:04.009Z</time></trkpt><trkpt lat="45.5074433" lon="8.7365567"><ele>133.16666666666669</ele><time>2026-04-05T08:05:06.009Z</time></trkpt><trkpt lat="45.5073583" lon="8.7365533"><ele>133.0</ele><time>2026-04-05T08:05:08.009Z</time></trkpt><trkpt lat="45.5072683" lon="8.7365533"><ele>133.0</ele><time>2026-04-05T08:05:10.009Z</time></trkpt><trkpt lat="45.5071867" lon="8.7365533"><ele>133.0</ele><time>2026-04-05T08:05:12.009Z</time></trkpt><trkpt lat="45.5071233" lon="8.7365617"><ele>133.0</ele><time>2026-04-05T08:05:14.009Z</time></trkpt><trkpt lat="45.507045" lon="8.7365683"><ele>133.0</ele><time>2026-04-05T08:05:17.009Z</time></trkpt><trkpt lat="45.5070417" lon="8.7367033"><ele>133.0</ele><time>2026-04-05T08:05:21.009Z</time></trkpt><trkpt lat="45.50702" lon="8.7368233"><ele>133.0</ele><time>2026-04-05T08:05:24.009Z</time></trkpt><trkpt lat="45.5069483" lon="8.7368833"><ele>133.0</ele><time>2026-04-05T08:05:26.009Z</time></trkpt><trkpt lat="45.506875" lon="8.7369217"><ele>133.0</ele><time>2026-04-05T08:05:28.009Z</time></trkpt><trkpt lat="45.506795" lon="8.7369633"><ele>133.0</ele><time>2026-04-05T08:05:30.009Z</time></trkpt><trkpt lat="45.50676" lon="8.73707"><ele>133.0</ele><time>2026-04-05T08:05:32.009Z</time></trkpt><trkpt lat="45.5067267" lon="8.7371917"><ele>133.0</ele><time>2026-04-05T08:05:34.009Z</time></trkpt><trkpt lat="45.506705" lon="8.7373333"><ele>133.0</ele><time>2026-04-05T08:05:36.009Z</time></trkpt><trkpt lat="45.50669" lon="8.737465"><ele>133.0</ele><time>2026-04-05T08:05:38.01Z</time></trkpt><trkpt lat="45.5066783" lon="8.7375783"><ele>133.0</ele><time>2026-04-05T08:05:40.009Z</time></trkpt><trkpt lat="45.50667" lon="8.7376967"><ele>133.0</ele><time>2026-04-05T08:05:42.009Z</time></trkpt><trkpt lat="45.5066733" lon="8.7378183"><ele>133.0</ele><time>2026-04-05T08:05:44.009Z</time></trkpt><trkpt lat="45.5066917" lon="8.7379583"><ele>133.0</ele><time>2026-04-05T08:05:46.01Z</time></trkpt><trkpt lat="45.5067017" lon="8.7381"><ele>133.0</ele><time>2026-04-05T08:05:48.009Z</time></trkpt><trkpt lat="45.50671" lon="8.7382267"><ele>133.4</ele><time>2026-04-05T08:05:50.009Z</time></trkpt><trkpt lat="45.5067233" lon="8.7383583"><ele>133.8</ele><time>2026-04-05T08:05:52.009Z</time></trkpt><trkpt lat="45.506735" lon="8.7384783"><ele>134.2</ele><time>2026-04-05T08:05:54.009Z</time></trkpt><trkpt lat="45.50674" lon="8.73861"><ele>134.6</ele><time>2026-04-05T08:05:56.009Z</time></trkpt><trkpt lat="45.5067467" lon="8.738745"><ele>135.0</ele><time>2026-04-05T08:05:58.009Z</time></trkpt><trkpt lat="45.5067517" lon="8.7388767"><ele>135.0</ele><time>2026-04-05T08:06:00.009Z</time></trkpt><trkpt lat="45.506745" lon="8.7390017"><ele>135.0</ele><time>2026-04-05T08:06:02.01Z</time></trkpt><trkpt lat="45.506745" lon="8.7391217"><ele>135.0</ele><time>2026-04-05T08:06:04.009Z</time></trkpt><trkpt lat="45.50674" lon="8.739245"><ele>135.0</ele><time>2026-04-05T08:06:06.009Z</time></trkpt><trkpt lat="45.5067383" lon="8.7393817"><ele>135.0</ele><time>2026-04-05T08:06:08.009Z</time></trkpt><trkpt lat="45.5067383" lon="8.7394967"><ele>135.0</ele><time>2026-04-05T08:06:10.009Z</time></trkpt><trkpt lat="45.50675" lon="8.7396267"><ele>134.83333333333334</ele><time>2026-04-05T08:06:12.009Z</time></trkpt><trkpt lat="45.5067567" lon="8.7397467"><ele>134.66666666666666</ele><time>2026-04-05T08:06:14.009Z</time></trkpt><trkpt lat="45.5067583" lon="8.73986"><ele>134.5</ele><time>2026-04-05T08:06:16.009Z</time></trkpt><trkpt lat="45.5067667" lon="8.739985"><ele>134.33333333333331</ele><time>2026-04-05T08:06:18.009Z</time></trkpt><trkpt lat="45.5067617" lon="8.7401133"><ele>134.16666666666666</ele><time>2026-04-05T08:06:20.009Z</time></trkpt><trkpt lat="45.5067567" lon="8.7402433"><ele>134.0</ele><time>2026-04-05T08:06:22.009Z</time></trkpt><trkpt lat="45.50674" lon="8.7403583"><ele>134.0</ele><time>2026-04-05T08:06:24.009Z</time></trkpt><trkpt lat="45.5066867" lon="8.740465"><ele>134.0</ele><time>2026-04-05T08:06:26.01Z</time></trkpt><trkpt lat="45.5066283" lon="8.7405633"><ele>134.0</ele><time>2026-04-05T08:06:28.009Z</time></trkpt><trkpt lat="45.5065667" lon="8.7406667"><ele>134.0</ele><time>2026-04-05T08:06:30.009Z</time></trkpt><trkpt lat="45.5065217" lon="8.7407717"><ele>134.0</ele><time>2026-04-05T08:06:32.009Z</time></trkpt><trkpt lat="45.5064867" lon="8.74088"><ele>134.0</ele><time>2026-04-05T08:06:34.009Z</time></trkpt><trkpt lat="45.5064533" lon="8.7409917"><ele>134.0</ele><time>2026-04-05T08:06:36.009Z</time></trkpt><trkpt lat="45.50641" lon="8.7410883"><ele>134.0</ele><time>2026-04-05T08:06:38.009Z</time></trkpt><trkpt lat="45.5063483" lon="8.7411783"><ele>134.0</ele><time>2026-04-05T08:06:40.009Z</time></trkpt><trkpt lat="45.5062833" lon="8.741265"><ele>134.0</ele><time>2026-04-05T08:06:42.009Z</time></trkpt><trkpt lat="45.5062217" lon="8.7413567"><ele>134.0</ele><time>2026-04-05T08:06:44.009Z</time></trkpt><trkpt lat="45.5061517" lon="8.741435"><ele>134.0</ele><time>2026-04-05T08:06:46.009Z</time></trkpt><trkpt lat="45.5060933" lon="8.7414933"><ele>134.0</ele><time>2026-04-05T08:06:48.009Z</time></trkpt><trkpt lat="45.5060367" lon="8.7415517"><ele>134.0</ele><time>2026-04-05T08:06:50.009Z</time></trkpt><trkpt lat="45.5059717" lon="8.7416333"><ele>134.0</ele><time>2026-04-05T08:06:52.009Z</time></trkpt><trkpt lat="45.5059117" lon="8.7417133"><ele>134.0</ele><time>2026-04-05T08:06:54.009Z</time></trkpt><trkpt lat="45.5058617" lon="8.7418"><ele>134.0</ele><time>2026-04-05T08:06:56.009Z</time></trkpt><trkpt lat="45.5058383" lon="8.7418883"><ele>134.0</ele><time>2026-04-05T08:06:58.009Z</time></trkpt><trkpt lat="45.5057983" lon="8.7419867"><ele>134.16666666666666</ele><time>2026-04-05T08:07:00.009Z</time></trkpt><trkpt lat="45.5057583" lon="8.7421"><ele>134.33333333333331</ele><time>2026-04-05T08:07:02.009Z</time></trkpt><trkpt lat="45.50571" lon="8.74219"><ele>134.5</ele><time>2026-04-05T08:07:04.009Z</time></trkpt><trkpt lat="45.505635" lon="8.7422767"><ele>134.66666666666666</ele><time>2026-04-05T08:07:06.009Z</time></trkpt><trkpt lat="45.5055767" lon="8.7423483"><ele>134.83333333333334</ele><time>2026-04-05T08:07:08.009Z</time></trkpt><trkpt lat="45.505505" lon="8.74246"><ele>135.0</ele><time>2026-04-05T08:07:10.009Z</time></trkpt><trkpt lat="45.505455" lon="8.742545"><ele>135.0</ele><time>2026-04-05T08:07:12.009Z</time></trkpt><trkpt lat="45.5054017" lon="8.742635"><ele>135.0</ele><time>2026-04-05T08:07:14.009Z</time></trkpt><trkpt lat="45.5053283" lon="8.7427167"><ele>135.0</ele><time>2026-04-05T08:07:16.009Z</time></trkpt><trkpt lat="45.5052367" lon="8.742775"><ele>135.0</ele><time>2026-04-05T08:07:18.009Z</time></trkpt><trkpt lat="45.5051633" lon="8.7428383"><ele>135.0</ele><time>2026-04-05T08:07:20.009Z</time></trkpt><trkpt lat="45.5050867" lon="8.742925"><ele>135.0</ele><time>2026-04-05T08:07:22.009Z</time></trkpt><trkpt lat="45.5050067" lon="8.7430267"><ele>135.0</ele><time>2026-04-05T08:07:24.009Z</time></trkpt><trkpt lat="45.5049467" lon="8.74313"><ele>135.0</ele><time>2026-04-05T08:07:26.009Z</time></trkpt><trkpt lat="45.5048917" lon="8.7432217"><ele>135.0</ele><time>2026-04-05T08:07:28.009Z</time></trkpt><trkpt lat="45.504845" lon="8.7433233"><ele>135.0</ele><time>2026-04-05T08:07:30.009Z</time></trkpt><trkpt lat="45.504815" lon="8.7434383"><ele>134.8</ele><time>2026-04-05T08:07:32.009Z</time></trkpt><trkpt lat="45.5048" lon="8.7435483"><ele>134.6</ele><time>2026-04-05T08:07:34.009Z</time></trkpt><trkpt lat="45.50479" lon="8.7436733"><ele>134.4</ele><time>2026-04-05T08:07:36.009Z</time></trkpt><trkpt lat="45.5047517" lon="8.7437933"><ele>134.2</ele><time>2026-04-05T08:07:38.009Z</time></trkpt><trkpt lat="45.5046967" lon="8.743905"><ele>134.0</ele><time>2026-04-05T08:07:40.009Z</time></trkpt><trkpt lat="45.5046367" lon="8.74401"><ele>134.0</ele><time>2026-04-05T08:07:42.009Z</time></trkpt><trkpt lat="45.50459" lon="8.7441133"><ele>134.0</ele><time>2026-04-05T08:07:44.009Z</time></trkpt><trkpt lat="45.5045433" lon="8.74422"><ele>134.0</ele><time>2026-04-05T08:07:46.009Z</time></trkpt><trkpt lat="45.5045017" lon="8.7443383"><ele>134.0</ele><time>2026-04-05T08:07:48.009Z</time></trkpt><trkpt lat="45.50447" lon="8.7444533"><ele>134.0</ele><time>2026-04-05T08:07:50.009Z</time></trkpt><trkpt lat="45.50444" lon="8.7445733"><ele>134.0</ele><time>2026-04-05T08:07:52.008Z</time></trkpt><trkpt lat="45.5044317" lon="8.7446967"><ele>133.66666666666666</ele><time>2026-04-05T08:07:54.008Z</time></trkpt><trkpt lat="45.5044067" lon="8.7448033"><ele>133.33333333333331</ele><time>2026-04-05T08:07:56.008Z</time></trkpt><trkpt lat="45.5043783" lon="8.74492"><ele>133.0</ele><time>2026-04-05T08:07:58.008Z</time></trkpt><trkpt lat="45.50436" lon="8.7450267"><ele>132.66666666666666</ele><time>2026-04-05T08:08:00.008Z</time></trkpt><trkpt lat="45.5043317" lon="8.745135"><ele>132.33333333333334</ele><time>2026-04-05T08:08:02.008Z</time></trkpt><trkpt lat="45.5043217" lon="8.74525"><ele>132.0</ele><time>2026-04-05T08:08:04.008Z</time></trkpt><trkpt lat="45.5043033" lon="8.7453567"><ele>132.0</ele><time>2026-04-05T08:08:06.008Z</time></trkpt><trkpt lat="45.5042717" lon="8.7454533"><ele>132.0</ele><time>2026-04-05T08:08:08.008Z</time></trkpt><trkpt lat="45.5042533" lon="8.745565"><ele>132.0</ele><time>2026-04-05T08:08:10.008Z</time></trkpt><trkpt lat="45.5042333" lon="8.7456767"><ele>132.0</ele><time>2026-04-05T08:08:12.008Z</time></trkpt><trkpt lat="45.5042183" lon="8.7457783"><ele>132.0</ele><time>2026-04-05T08:08:14.008Z</time></trkpt><trkpt lat="45.5042067" lon="8.74589"><ele>132.0</ele><time>2026-04-05T08:08:16.008Z</time></trkpt><trkpt lat="45.5041917" lon="8.7460133"><ele>132.2</ele><time>2026-04-05T08:08:18.008Z</time></trkpt><trkpt lat="45.5041917" lon="8.74615"><ele>132.39999999999998</ele><time>2026-04-05T08:08:20.008Z</time></trkpt><trkpt lat="45.5042017" lon="8.74628"><ele>132.60000000000002</ele><time>2026-04-05T08:08:22.008Z</time></trkpt><trkpt lat="45.50422" lon="8.7464117"><ele>132.8</ele><time>2026-04-05T08:08:24.008Z</time></trkpt><trkpt lat="45.5042433" lon="8.7465267"><ele>133.0</ele><time>2026-04-05T08:08:26.009Z</time></trkpt><trkpt lat="45.5042733" lon="8.7466567"><ele>133.0</ele><time>2026-04-05T08:08:28.008Z</time></trkpt><trkpt lat="45.5042933" lon="8.7467767"><ele>133.0</ele><time>2026-04-05T08:08:30.009Z</time></trkpt><trkpt lat="45.5043233" lon="8.7468867"><ele>133.0</ele><time>2026-04-05T08:08:32.008Z</time></trkpt><trkpt lat="45.504345" lon="8.7470133"><ele>133.0</ele><time>2026-04-05T08:08:34.008Z</time></trkpt><trkpt lat="45.5043583" lon="8.747125"><ele>133.0</ele><time>2026-04-05T08:08:36.008Z</time></trkpt><trkpt lat="45.504355" lon="8.7472567"><ele>133.0</ele><time>2026-04-05T08:08:38.008Z</time></trkpt><trkpt lat="45.5043517" lon="8.747385"><ele>133.0</ele><time>2026-04-05T08:08:40.008Z</time></trkpt><trkpt lat="45.5043417" lon="8.7475317"><ele>133.0</ele><time>2026-04-05T08:08:42.008Z</time></trkpt><trkpt lat="45.504345" lon="8.74766"><ele>133.0</ele><time>2026-04-05T08:08:44.008Z</time></trkpt><trkpt lat="45.5043383" lon="8.7477717"><ele>133.0</ele><time>2026-04-05T08:08:46.008Z</time></trkpt><trkpt lat="45.50432" lon="8.7478883"><ele>133.0</ele><time>2026-04-05T08:08:48.008Z</time></trkpt><trkpt lat="45.504295" lon="8.747995"><ele>133.0</ele><time>2026-04-05T08:08:50.008Z</time></trkpt><trkpt lat="45.504275" lon="8.7480933"><ele>133.16666666666669</ele><time>2026-04-05T08:08:52.008Z</time></trkpt><trkpt lat="45.50426" lon="8.7481933"><ele>133.33333333333334</ele><time>2026-04-05T08:08:54.008Z</time></trkpt><trkpt lat="45.5042383" lon="8.7482867"><ele>133.5</ele><time>2026-04-05T08:08:56.008Z</time></trkpt><trkpt lat="45.50422" lon="8.7483917"><ele>133.66666666666666</ele><time>2026-04-05T08:08:58.008Z</time></trkpt><trkpt lat="45.5042" lon="8.74851"><ele>133.83333333333331</ele><time>2026-04-05T08:09:00.008Z</time></trkpt><trkpt lat="45.5041783" lon="8.7486283"><ele>134.0</ele><time>2026-04-05T08:09:02.008Z</time></trkpt><trkpt lat="45.5041567" lon="8.7487517"><ele>134.0</ele><time>2026-04-05T08:09:04.008Z</time></trkpt><trkpt lat="45.50415" lon="8.7488983"><ele>134.0</ele><time>2026-04-05T08:09:06.008Z</time></trkpt><trkpt lat="45.5041383" lon="8.7490217"><ele>134.0</ele><time>2026-04-05T08:09:08.008Z</time></trkpt><trkpt lat="45.5041233" lon="8.7491417"><ele>134.0</ele><time>2026-04-05T08:09:10.008Z</time></trkpt><trkpt lat="45.50411" lon="8.749275"><ele>134.0</ele><time>2026-04-05T08:09:12.008Z</time></trkpt><trkpt lat="45.5041083" lon="8.7493967"><ele>133.83333333333331</ele><time>2026-04-05T08:09:14.008Z</time></trkpt><trkpt lat="45.5041133" lon="8.7495167"><ele>133.66666666666666</ele><time>2026-04-05T08:09:16.008Z</time></trkpt><trkpt lat="45.5041217" lon="8.7496417"><ele>133.5</ele><time>2026-04-05T08:09:18.008Z</time></trkpt><trkpt lat="45.5041283" lon="8.74975"><ele>133.33333333333334</ele><time>2026-04-05T08:09:20.008Z</time></trkpt><trkpt lat="45.504145" lon="8.74988"><ele>133.16666666666669</ele><time>2026-04-05T08:09:22.008Z</time></trkpt><trkpt lat="45.5041583" lon="8.7500117"><ele>133.0</ele><time>2026-04-05T08:09:24.008Z</time></trkpt><trkpt lat="45.5041733" lon="8.750135"><ele>132.5</ele><time>2026-04-05T08:09:26.008Z</time></trkpt><trkpt lat="45.5041867" lon="8.7502533"><ele>132.0</ele><time>2026-04-05T08:09:28.009Z</time></trkpt><trkpt lat="45.5041817" lon="8.7503717"><ele>131.5</ele><time>2026-04-05T08:09:30.008Z</time></trkpt><trkpt lat="45.50418" lon="8.7504833"><ele>131.0</ele><time>2026-04-05T08:09:32.008Z</time></trkpt><trkpt lat="45.5041833" lon="8.7505817"><ele>130.5</ele><time>2026-04-05T08:09:34.008Z</time></trkpt><trkpt lat="45.5041867" lon="8.750715"><ele>130.0</ele><time>2026-04-05T08:09:36.008Z</time></trkpt><trkpt lat="45.50415" lon="8.75082"><ele>130.0</ele><time>2026-04-05T08:09:38.008Z</time></trkpt><trkpt lat="45.5041167" lon="8.7509317"><ele>130.0</ele><time>2026-04-05T08:09:40.008Z</time></trkpt><trkpt lat="45.5040983" lon="8.7510517"><ele>130.0</ele><time>2026-04-05T08:09:42.008Z</time></trkpt><trkpt lat="45.5040833" lon="8.7511883"><ele>130.0</ele><time>2026-04-05T08:09:44.008Z</time></trkpt><trkpt lat="45.50407" lon="8.7513017"><ele>130.0</ele><time>2026-04-05T08:09:46.008Z</time></trkpt><trkpt lat="45.5040667" lon="8.7514217"><ele>130.0</ele><time>2026-04-05T08:09:48.008Z</time></trkpt><trkpt lat="45.5040567" lon="8.7515383"><ele>130.16666666666669</ele><time>2026-04-05T08:09:50.008Z</time></trkpt><trkpt lat="45.5040067" lon="8.751635"><ele>130.33333333333334</ele><time>2026-04-05T08:09:52.008Z</time></trkpt><trkpt lat="45.5039483" lon="8.7517117"><ele>130.5</ele><time>2026-04-05T08:09:54.008Z</time></trkpt><trkpt lat="45.503885" lon="8.7518133"><ele>130.66666666666666</ele><time>2026-04-05T08:09:56.008Z</time></trkpt><trkpt lat="45.5038067" lon="8.7518933"><ele>130.83333333333331</ele><time>2026-04-05T08:09:58.008Z</time></trkpt><trkpt lat="45.503745" lon="8.751975"><ele>131.0</ele><time>2026-04-05T08:10:00.008Z</time></trkpt><trkpt lat="45.503685" lon="8.752085"><ele>130.5</ele><time>2026-04-05T08:10:02.008Z</time></trkpt><trkpt lat="45.5036367" lon="8.752175"><ele>130.0</ele><time>2026-04-05T08:10:04.008Z</time></trkpt><trkpt lat="45.5036133" lon="8.75229"><ele>129.5</ele><time>2026-04-05T08:10:06.008Z</time></trkpt><trkpt lat="45.5035817" lon="8.75241"><ele>129.0</ele><time>2026-04-05T08:10:08.008Z</time></trkpt><trkpt lat="45.5035317" lon="8.752505"><ele>128.5</ele><time>2026-04-05T08:10:10.008Z</time></trkpt><trkpt lat="45.50346" lon="8.7525717"><ele>128.0</ele><time>2026-04-05T08:10:12.008Z</time></trkpt><trkpt lat="45.5033733" lon="8.7526367"><ele>128.5</ele><time>2026-04-05T08:10:14.008Z</time></trkpt><trkpt lat="45.5032967" lon="8.7527133"><ele>129.0</ele><time>2026-04-05T08:10:16.008Z</time></trkpt><trkpt lat="45.5032433" lon="8.7528233"><ele>129.5</ele><time>2026-04-05T08:10:18.008Z</time></trkpt><trkpt lat="45.503195" lon="8.7529317"><ele>130.0</ele><time>2026-04-05T08:10:20.009Z</time></trkpt><trkpt lat="45.503155" lon="8.75301"><ele>130.5</ele><time>2026-04-05T08:10:22.008Z</time></trkpt><trkpt lat="45.5031233" lon="8.7531"><ele>131.0</ele><time>2026-04-05T08:10:24.009Z</time></trkpt><trkpt lat="45.5031067" lon="8.75322"><ele>131.0</ele><time>2026-04-05T08:10:26.008Z</time></trkpt><trkpt lat="45.503085" lon="8.7533567"><ele>131.0</ele><time>2026-04-05T08:10:28.008Z</time></trkpt><trkpt lat="45.5030467" lon="8.7534633"><ele>131.0</ele><time>2026-04-05T08:10:30.008Z</time></trkpt><trkpt lat="45.5030133" lon="8.7535483"><ele>131.0</ele><time>2026-04-05T08:10:32.008Z</time></trkpt><trkpt lat="45.5029567" lon="8.7536367"><ele>131.0</ele><time>2026-04-05T08:10:34.008Z</time></trkpt><trkpt lat="45.5029183" lon="8.7537333"><ele>131.0</ele><time>2026-04-05T08:10:36.008Z</time></trkpt><trkpt lat="45.5028617" lon="8.7538133"><ele>130.16666666666666</ele><time>2026-04-05T08:10:38.008Z</time></trkpt><trkpt lat="45.5027983" lon="8.7539067"><ele>129.33333333333331</ele><time>2026-04-05T08:10:40.008Z</time></trkpt><trkpt lat="45.502745" lon="8.7540417"><ele>128.5</ele><time>2026-04-05T08:10:42.008Z</time></trkpt><trkpt lat="45.5027" lon="8.7541317"><ele>127.66666666666666</ele><time>2026-04-05T08:10:44.008Z</time></trkpt><trkpt lat="45.50262" lon="8.7541567"><ele>126.83333333333333</ele><time>2026-04-05T08:10:47.008Z</time></trkpt><trkpt lat="45.5025483" lon="8.7541933"><ele>126.0</ele><time>2026-04-05T08:10:49.008Z</time></trkpt><trkpt lat="45.5024683" lon="8.7542333"><ele>126.0</ele><time>2026-04-05T08:10:51.008Z</time></trkpt><trkpt lat="45.5023983" lon="8.7542533"><ele>126.0</ele><time>2026-04-05T08:10:53.009Z</time></trkpt><trkpt lat="45.5023083" lon="8.754365"><ele>126.0</ele><time>2026-04-05T08:11:11.009Z</time></trkpt><trkpt lat="45.5022917" lon="8.7544583"><ele>126.0</ele><time>2026-04-05T08:11:13.008Z</time></trkpt><trkpt lat="45.50221" lon="8.7544967"><ele>126.0</ele><time>2026-04-05T08:12:03.008Z</time></trkpt><trkpt lat="45.5022583" lon="8.7544383"><ele>126.0</ele><time>2026-04-05T08:13:58.008Z</time></trkpt><trkpt lat="45.502355" lon="8.75435"><ele>126.0</ele><time>2026-04-05T08:14:33.008Z</time></trkpt><trkpt lat="45.5024183" lon="8.754275"><ele>126.0</ele><time>2026-04-05T08:14:37.008Z</time></trkpt><trkpt lat="45.50249" lon="8.7542283"><ele>126.0</ele><time>2026-04-05T08:14:41.008Z</time></trkpt><trkpt lat="45.5025583" lon="8.754265"><ele>126.0</ele><time>2026-04-05T08:14:44.008Z</time></trkpt><trkpt lat="45.5025983" lon="8.7543583"><ele>126.0</ele><time>2026-04-05T08:14:47.008Z</time></trkpt><trkpt lat="45.50263" lon="8.7544483"><ele>126.0</ele><time>2026-04-05T08:14:50.008Z</time></trkpt><trkpt lat="45.5026733" lon="8.7545683"><ele>126.33333333333333</ele><time>2026-04-05T08:14:53.008Z</time></trkpt><trkpt lat="45.5027233" lon="8.754675"><ele>126.66666666666666</ele><time>2026-04-05T08:14:56.008Z</time></trkpt><trkpt lat="45.502735" lon="8.7547717"><ele>127.0</ele><time>2026-04-05T08:15:00.008Z</time></trkpt><trkpt lat="45.5027083" lon="8.7548633"><ele>127.33333333333333</ele><time>2026-04-05T08:15:03.008Z</time></trkpt><trkpt lat="45.5026183" lon="8.7549033"><ele>127.66666666666666</ele><time>2026-04-05T08:15:06.008Z</time></trkpt><trkpt lat="45.5025683" lon="8.7549733"><ele>128.0</ele><time>2026-04-05T08:15:08.008Z</time></trkpt><trkpt lat="45.50252" lon="8.755045"><ele>127.99999999999999</ele><time>2026-04-05T08:15:10.008Z</time></trkpt><trkpt lat="45.5025" lon="8.7551533"><ele>128.0</ele><time>2026-04-05T08:15:14.008Z</time></trkpt><trkpt lat="45.5024883" lon="8.7552733"><ele>128.0</ele><time>2026-04-05T08:15:17.008Z</time></trkpt><trkpt lat="45.5024733" lon="8.75542"><ele>128.0</ele><time>2026-04-05T08:15:20.008Z</time></trkpt><trkpt lat="45.50248" lon="8.755545"><ele>127.99999999999999</ele><time>2026-04-05T08:15:22.008Z</time></trkpt><trkpt lat="45.5025217" lon="8.7556333"><ele>128.0</ele><time>2026-04-05T08:15:24.008Z</time></trkpt><trkpt lat="45.5025883" lon="8.7556917"><ele>128.57142857142856</ele><time>2026-04-05T08:15:26.008Z</time></trkpt><trkpt lat="45.5026483" lon="8.755745"><ele>129.14285714285714</ele><time>2026-04-05T08:15:28.008Z</time></trkpt><trkpt lat="45.50269" lon="8.75584"><ele>129.71428571428572</ele><time>2026-04-05T08:15:31.008Z</time></trkpt><trkpt lat="45.50275" lon="8.7559383"><ele>130.28571428571428</ele><time>2026-04-05T08:15:34.008Z</time></trkpt><trkpt lat="45.5028017" lon="8.7559917"><ele>130.85714285714286</ele><time>2026-04-05T08:15:36.007Z</time></trkpt><trkpt lat="45.502775" lon="8.7560917"><ele>131.42857142857142</ele><time>2026-04-05T08:15:40.007Z</time></trkpt><trkpt lat="45.5027233" lon="8.7561533"><ele>132.0</ele><time>2026-04-05T08:15:42.007Z</time></trkpt><trkpt lat="45.5026617" lon="8.7562167"><ele>132.16666666666666</ele><time>2026-04-05T08:15:44.007Z</time></trkpt><trkpt lat="45.50259" lon="8.7562683"><ele>132.33333333333334</ele><time>2026-04-05T08:15:46.007Z</time></trkpt><trkpt lat="45.502525" lon="8.7563217"><ele>132.5</ele><time>2026-04-05T08:15:48.007Z</time></trkpt><trkpt lat="45.5024583" lon="8.756365"><ele>132.66666666666669</ele><time>2026-04-05T08:15:50.007Z</time></trkpt><trkpt lat="45.5023867" lon="8.7564083"><ele>132.83333333333334</ele><time>2026-04-05T08:15:52.007Z</time></trkpt><trkpt lat="45.5023167" lon="8.7564667"><ele>133.0</ele><time>2026-04-05T08:15:54.007Z</time></trkpt><trkpt lat="45.5022383" lon="8.7565267"><ele>133.0</ele><time>2026-04-05T08:15:56.007Z</time></trkpt><trkpt lat="45.5021683" lon="8.7565933"><ele>133.0</ele><time>2026-04-05T08:15:58.008Z</time></trkpt><trkpt lat="45.5020867" lon="8.7566533"><ele>133.0</ele><time>2026-04-05T08:16:00.007Z</time></trkpt><trkpt lat="45.5019867" lon="8.7567117"><ele>133.0</ele><time>2026-04-05T08:16:02.007Z</time></trkpt><trkpt lat="45.5019067" lon="8.756745"><ele>133.0</ele><time>2026-04-05T08:16:04.007Z</time></trkpt><trkpt lat="45.5018167" lon="8.7567683"><ele>132.4</ele><time>2026-04-05T08:16:06.007Z</time></trkpt><trkpt lat="45.5017233" lon="8.7567967"><ele>131.8</ele><time>2026-04-05T08:16:08.007Z</time></trkpt><trkpt lat="45.501635" lon="8.7568517"><ele>131.2</ele><time>2026-04-05T08:16:10.007Z</time></trkpt><trkpt lat="45.501565" lon="8.7569233"><ele>130.6</ele><time>2026-04-05T08:16:12.007Z</time></trkpt><trkpt lat="45.50151" lon="8.7570183"><ele>130.0</ele><time>2026-04-05T08:16:14.007Z</time></trkpt><trkpt lat="45.50147" lon="8.757135"><ele>130.0</ele><time>2026-04-05T08:16:16.007Z</time></trkpt><trkpt lat="45.5014183" lon="8.7572467"><ele>130.0</ele><time>2026-04-05T08:16:18.007Z</time></trkpt><trkpt lat="45.5013567" lon="8.7573417"><ele>130.0</ele><time>2026-04-05T08:16:20.007Z</time></trkpt><trkpt lat="45.501305" lon="8.7574467"><ele>130.0</ele><time>2026-04-05T08:16:22.007Z</time></trkpt><trkpt lat="45.5012517" lon="8.7575767"><ele>130.0</ele><time>2026-04-05T08:16:24.007Z</time></trkpt><trkpt lat="45.5011917" lon="8.7576783"><ele>129.4</ele><time>2026-04-05T08:16:26.007Z</time></trkpt><trkpt lat="45.5010983" lon="8.7577417"><ele>128.8</ele><time>2026-04-05T08:16:28.007Z</time></trkpt><trkpt lat="45.501005" lon="8.7578017"><ele>128.2</ele><time>2026-04-05T08:16:30.007Z</time></trkpt><trkpt lat="45.5009217" lon="8.7578783"><ele>127.6</ele><time>2026-04-05T08:16:32.007Z</time></trkpt><trkpt lat="45.5008383" lon="8.7579617"><ele>127.0</ele><time>2026-04-05T08:16:34.007Z</time></trkpt><trkpt lat="45.5007567" lon="8.75803"><ele>127.0</ele><time>2026-04-05T08:16:36.007Z</time></trkpt><trkpt lat="45.5006667" lon="8.7580933"><ele>126.99999999999999</ele><time>2026-04-05T08:16:38.007Z</time></trkpt><trkpt lat="45.5005717" lon="8.758125"><ele>126.99999999999999</ele><time>2026-04-05T08:16:40.007Z</time></trkpt><trkpt lat="45.5004717" lon="8.7581483"><ele>127.0</ele><time>2026-04-05T08:16:42.007Z</time></trkpt><trkpt lat="45.5003583" lon="8.758215"><ele>127.0</ele><time>2026-04-05T08:16:44.007Z</time></trkpt><trkpt lat="45.5002517" lon="8.7582733"><ele>126.6</ele><time>2026-04-05T08:16:46.007Z</time></trkpt><trkpt lat="45.5001567" lon="8.7583517"><ele>126.19999999999999</ele><time>2026-04-05T08:16:48.007Z</time></trkpt><trkpt lat="45.5000717" lon="8.7584167"><ele>125.8</ele><time>2026-04-05T08:16:50.007Z</time></trkpt><trkpt lat="45.50001" lon="8.7584983"><ele>125.4</ele><time>2026-04-05T08:16:52.007Z</time></trkpt><trkpt lat="45.5" lon="8.7586317"><ele>125.0</ele><time>2026-04-05T08:16:54.007Z</time></trkpt><trkpt lat="45.500005" lon="8.7587317"><ele>124.99999999999999</ele><time>2026-04-05T08:16:56.007Z</time></trkpt><trkpt lat="45.50001" lon="8.7588667"><ele>125.0</ele><time>2026-04-05T08:16:59.007Z</time></trkpt><trkpt lat="45.5000083" lon="8.758975"><ele>125.0</ele><time>2026-04-05T08:17:01.008Z</time></trkpt><trkpt lat="45.500005" lon="8.7591133"><ele>125.0</ele><time>2026-04-05T08:17:03.007Z</time></trkpt><trkpt lat="45.5000217" lon="8.759245"><ele>124.99999999999999</ele><time>2026-04-05T08:17:05.008Z</time></trkpt><trkpt lat="45.50002" lon="8.759365"><ele>125.0</ele><time>2026-04-05T08:17:07.007Z</time></trkpt><trkpt lat="45.5000217" lon="8.75949"><ele>125.49999999999999</ele><time>2026-04-05T08:17:09.007Z</time></trkpt><trkpt lat="45.50003" lon="8.7596067"><ele>126.0</ele><time>2026-04-05T08:17:11.008Z</time></trkpt><trkpt lat="45.5000217" lon="8.7597033"><ele>126.5</ele><time>2026-04-05T08:17:14.007Z</time></trkpt><trkpt lat="45.5000433" lon="8.7597917"><ele>127.0</ele><time>2026-04-05T08:18:05.007Z</time></trkpt><trkpt lat="45.5000617" lon="8.759905"><ele>127.49999999999999</ele><time>2026-04-05T08:18:08.007Z</time></trkpt><trkpt lat="45.50013" lon="8.75996"><ele>128.0</ele><time>2026-04-05T08:18:11.007Z</time></trkpt><trkpt lat="45.5001967" lon="8.7598917"><ele>127.99999999999999</ele><time>2026-04-05T08:18:14.007Z</time></trkpt><trkpt lat="45.5002783" lon="8.7598917"><ele>128.0</ele><time>2026-04-05T08:18:18.007Z</time></trkpt><trkpt lat="45.5003417" lon="8.7598267"><ele>128.0</ele><time>2026-04-05T08:18:21.008Z</time></trkpt><trkpt lat="45.5004033" lon="8.7597533"><ele>128.0</ele><time>2026-04-05T08:18:24.007Z</time></trkpt><trkpt lat="45.5004783" lon="8.759745"><ele>127.99999999999999</ele><time>2026-04-05T08:18:28.007Z</time></trkpt><trkpt lat="45.5004383" lon="8.7598333"><ele>128.0</ele><time>2026-04-05T08:18:42.007Z</time></trkpt><trkpt lat="45.5003883" lon="8.7598967"><ele>127.99999999999999</ele><time>2026-04-05T08:18:46.007Z</time></trkpt><trkpt lat="45.5003183" lon="8.7599933"><ele>128.0</ele><time>2026-04-05T08:18:49.007Z</time></trkpt><trkpt lat="45.5002817" lon="8.7600733"><ele>128.0</ele><time>2026-04-05T08:18:51.007Z</time></trkpt><trkpt lat="45.5002717" lon="8.7601717"><ele>128.0</ele><time>2026-04-05T08:18:54.007Z</time></trkpt><trkpt lat="45.5002733" lon="8.760365"><ele>127.99999999999999</ele><time>2026-04-05T08:19:07.007Z</time></trkpt><trkpt lat="45.5002167" lon="8.760435"><ele>128.0</ele><time>2026-04-05T08:19:10.007Z</time></trkpt><trkpt lat="45.50017" lon="8.760505"><ele>128.16666666666666</ele><time>2026-04-05T08:19:13.007Z</time></trkpt><trkpt lat="45.50014" lon="8.7606133"><ele>128.33333333333331</ele><time>2026-04-05T08:19:16.007Z</time></trkpt><trkpt lat="45.5001267" lon="8.7607083"><ele>128.5</ele><time>2026-04-05T08:19:18.008Z</time></trkpt><trkpt lat="45.5001183" lon="8.7608117"><ele>128.66666666666666</ele><time>2026-04-05T08:19:20.007Z</time></trkpt><trkpt lat="45.50011" lon="8.760925"><ele>128.83333333333334</ele><time>2026-04-05T08:19:22.007Z</time></trkpt><trkpt lat="45.5000983" lon="8.7610483"><ele>129.0</ele><time>2026-04-05T08:19:24.007Z</time></trkpt><trkpt lat="45.50008" lon="8.7611717"><ele>128.83333333333334</ele><time>2026-04-05T08:19:26.007Z</time></trkpt><trkpt lat="45.5000683" lon="8.761295"><ele>128.66666666666666</ele><time>2026-04-05T08:19:28.007Z</time></trkpt><trkpt lat="45.5000483" lon="8.76142"><ele>128.5</ele><time>2026-04-05T08:19:30.007Z</time></trkpt><trkpt lat="45.5000283" lon="8.761545"><ele>128.33333333333331</ele><time>2026-04-05T08:19:32.007Z</time></trkpt><trkpt lat="45.5000067" lon="8.7616667"><ele>128.16666666666666</ele><time>2026-04-05T08:19:34.007Z</time></trkpt><trkpt lat="45.5" lon="8.7617883"><ele>128.0</ele><time>2026-04-05T08:19:36.007Z</time></trkpt><trkpt lat="45.4999983" lon="8.7619217"><ele>127.99999999999999</ele><time>2026-04-05T08:19:38.007Z</time></trkpt><trkpt lat="45.4999817" lon="8.7620417"><ele>128.0</ele><time>2026-04-05T08:19:40.007Z</time></trkpt><trkpt lat="45.4999583" lon="8.762155"><ele>128.0</ele><time>2026-04-05T08:19:42.007Z</time></trkpt><trkpt lat="45.4999383" lon="8.762275"><ele>128.0</ele><time>2026-04-05T08:19:44.007Z</time></trkpt><trkpt lat="45.4999233" lon="8.76241"><ele>127.99999999999999</ele><time>2026-04-05T08:19:46.007Z</time></trkpt><trkpt lat="45.4999033" lon="8.7625267"><ele>128.0</ele><time>2026-04-05T08:19:48.007Z</time></trkpt><trkpt lat="45.4998933" lon="8.7626517"><ele>127.99999999999999</ele><time>2026-04-05T08:19:50.007Z</time></trkpt><trkpt lat="45.4998717" lon="8.7627717"><ele>128.0</ele><time>2026-04-05T08:19:52.007Z</time></trkpt><trkpt lat="45.4998567" lon="8.7628817"><ele>128.0</ele><time>2026-04-05T08:19:54.007Z</time></trkpt><trkpt lat="45.4998333" lon="8.762995"><ele>128.0</ele><time>2026-04-05T08:19:56.007Z</time></trkpt><trkpt lat="45.4998017" lon="8.76312"><ele>127.99999999999999</ele><time>2026-04-05T08:19:58.007Z</time></trkpt><trkpt lat="45.4997767" lon="8.7632433"><ele>128.0</ele><time>2026-04-05T08:20:00.007Z</time></trkpt><trkpt lat="45.4997567" lon="8.76335"><ele>127.99999999999999</ele><time>2026-04-05T08:20:02.007Z</time></trkpt><trkpt lat="45.4997367" lon="8.7634517"><ele>128.0</ele><time>2026-04-05T08:20:04.007Z</time></trkpt><trkpt lat="45.4997117" lon="8.7635817"><ele>128.0</ele><time>2026-04-05T08:20:06.007Z</time></trkpt><trkpt lat="45.49967" lon="8.7636933"><ele>128.0</ele><time>2026-04-05T08:20:08.007Z</time></trkpt><trkpt lat="45.499635" lon="8.7638"><ele>127.99999999999999</ele><time>2026-04-05T08:20:10.007Z</time></trkpt><trkpt lat="45.4995883" lon="8.7638983"><ele>128.0</ele><time>2026-04-05T08:20:12.007Z</time></trkpt><trkpt lat="45.4995383" lon="8.7640117"><ele>128.0</ele><time>2026-04-05T08:20:14.007Z</time></trkpt><trkpt lat="45.4994967" lon="8.764115"><ele>128.0</ele><time>2026-04-05T08:20:16.007Z</time></trkpt><trkpt lat="45.4994467" lon="8.7642133"><ele>128.0</ele><time>2026-04-05T08:20:18.007Z</time></trkpt><trkpt lat="45.49939" lon="8.76433"><ele>128.0</ele><time>2026-04-05T08:20:20.007Z</time></trkpt><trkpt lat="45.499335" lon="8.764445"><ele>128.0</ele><time>2026-04-05T08:20:22.008Z</time></trkpt><trkpt lat="45.4992867" lon="8.7645483"><ele>128.16666666666666</ele><time>2026-04-05T08:20:24.007Z</time></trkpt><trkpt lat="45.4992367" lon="8.7646433"><ele>128.33333333333331</ele><time>2026-04-05T08:20:26.007Z</time></trkpt><trkpt lat="45.4991767" lon="8.7647117"><ele>128.5</ele><time>2026-04-05T08:20:28.007Z</time></trkpt><trkpt lat="45.499135" lon="8.7647833"><ele>128.66666666666666</ele><time>2026-04-05T08:20:31.007Z</time></trkpt><trkpt lat="45.4991417" lon="8.764905"><ele>128.83333333333334</ele><time>2026-04-05T08:20:34.007Z</time></trkpt><trkpt lat="45.4990767" lon="8.7649667"><ele>129.0</ele><time>2026-04-05T08:20:37.007Z</time></trkpt><trkpt lat="45.4990133" lon="8.7650567"><ele>129.0</ele><time>2026-04-05T08:20:40.007Z</time></trkpt><trkpt lat="45.4989533" lon="8.7651383"><ele>129.0</ele><time>2026-04-05T08:20:43.007Z</time></trkpt><trkpt lat="45.498905" lon="8.7652633"><ele>129.0</ele><time>2026-04-05T08:20:46.007Z</time></trkpt><trkpt lat="45.4988883" lon="8.7653767"><ele>129.0</ele><time>2026-04-05T08:20:48.007Z</time></trkpt><trkpt lat="45.498845" lon="8.7654633"><ele>129.0</ele><time>2026-04-05T08:20:50.007Z</time></trkpt><trkpt lat="45.498775" lon="8.7655183"><ele>129.0</ele><time>2026-04-05T08:20:52.007Z</time></trkpt><trkpt lat="45.4987033" lon="8.7656117"><ele>128.0</ele><time>2026-04-05T08:20:54.007Z</time></trkpt><trkpt lat="45.4986467" lon="8.7657117"><ele>127.0</ele><time>2026-04-05T08:20:56.007Z</time></trkpt><trkpt lat="45.4986083" lon="8.765825"><ele>126.0</ele><time>2026-04-05T08:20:58.007Z</time></trkpt><trkpt lat="45.49858" lon="8.7659183"><ele>125.0</ele><time>2026-04-05T08:21:00.007Z</time></trkpt><trkpt lat="45.4985667" lon="8.7660067"><ele>124.0</ele><time>2026-04-05T08:21:02.007Z</time></trkpt><trkpt lat="45.4985317" lon="8.76611"><ele>123.0</ele><time>2026-04-05T08:21:04.008Z</time></trkpt><trkpt lat="45.4985" lon="8.7662067"><ele>123.0</ele><time>2026-04-05T08:21:06.007Z</time></trkpt><trkpt lat="45.4984817" lon="8.76631"><ele>123.0</ele><time>2026-04-05T08:21:08.007Z</time></trkpt><trkpt lat="45.4984633" lon="8.7664133"><ele>123.0</ele><time>2026-04-05T08:21:10.007Z</time></trkpt><trkpt lat="45.498435" lon="8.7665233"><ele>123.0</ele><time>2026-04-05T08:21:12.007Z</time></trkpt><trkpt lat="45.4984167" lon="8.7666267"><ele>123.0</ele><time>2026-04-05T08:21:14.007Z</time></trkpt><trkpt lat="45.4983783" lon="8.766725"><ele>123.0</ele><time>2026-04-05T08:21:16.007Z</time></trkpt><trkpt lat="45.4983383" lon="8.7668083"><ele>123.66666666666667</ele><time>2026-04-05T08:21:18.007Z</time></trkpt><trkpt lat="45.4983133" lon="8.7669117"><ele>124.33333333333334</ele><time>2026-04-05T08:21:20.007Z</time></trkpt><trkpt lat="45.4982767" lon="8.767015"><ele>125.0</ele><time>2026-04-05T08:21:22.007Z</time></trkpt><trkpt lat="45.4982467" lon="8.7671117"><ele>125.66666666666667</ele><time>2026-04-05T08:21:24.007Z</time></trkpt><trkpt lat="45.49823" lon="8.7672317"><ele>126.33333333333334</ele><time>2026-04-05T08:21:26.007Z</time></trkpt><trkpt lat="45.4981983" lon="8.7673517"><ele>127.0</ele><time>2026-04-05T08:21:28.007Z</time></trkpt><trkpt lat="45.4981617" lon="8.7674567"><ele>127.0</ele><time>2026-04-05T08:21:30.007Z</time></trkpt><trkpt lat="45.4981333" lon="8.7675583"><ele>127.0</ele><time>2026-04-05T08:21:32.007Z</time></trkpt><trkpt lat="45.4981" lon="8.767655"><ele>127.0</ele><time>2026-04-05T08:21:34.007Z</time></trkpt><trkpt lat="45.498065" lon="8.7677483"><ele>127.0</ele><time>2026-04-05T08:21:36.007Z</time></trkpt><trkpt lat="45.498035" lon="8.7678367"><ele>127.0</ele><time>2026-04-05T08:21:38.007Z</time></trkpt><trkpt lat="45.4980067" lon="8.7679333"><ele>127.0</ele><time>2026-04-05T08:21:43.007Z</time></trkpt><trkpt lat="45.49799" lon="8.768025"><ele>127.0</ele><time>2026-04-05T08:21:49.007Z</time></trkpt><trkpt lat="45.4979733" lon="8.7681333"><ele>127.57142857142858</ele><time>2026-04-05T08:21:51.007Z</time></trkpt><trkpt lat="45.4979417" lon="8.7682167"><ele>128.14285714285714</ele><time>2026-04-05T08:21:54.007Z</time></trkpt><trkpt lat="45.4979333" lon="8.7683167"><ele>128.71428571428572</ele><time>2026-04-05T08:21:56.007Z</time></trkpt><trkpt lat="45.4978933" lon="8.7684333"><ele>129.28571428571428</ele><time>2026-04-05T08:21:58.007Z</time></trkpt><trkpt lat="45.49785" lon="8.7685017"><ele>129.85714285714286</ele><time>2026-04-05T08:21:59.007Z</time></trkpt><trkpt lat="45.497805" lon="8.7685783"><ele>130.42857142857144</ele><time>2026-04-05T08:22:00.008Z</time></trkpt><trkpt lat="45.4977633" lon="8.76866"><ele>131.0</ele><time>2026-04-05T08:22:01.007Z</time></trkpt><trkpt lat="45.49771" lon="8.7687333"><ele>129.4</ele><time>2026-04-05T08:22:02.007Z</time></trkpt><trkpt lat="45.4976617" lon="8.7688167"><ele>127.8</ele><time>2026-04-05T08:22:03.007Z</time></trkpt><trkpt lat="45.4975867" lon="8.768955"><ele>126.20000000000002</ele><time>2026-04-05T08:22:05.007Z</time></trkpt><trkpt lat="45.497515" lon="8.7690733"><ele>124.60000000000001</ele><time>2026-04-05T08:22:07.007Z</time></trkpt><trkpt lat="45.49745" lon="8.7691533"><ele>123.0</ele><time>2026-04-05T08:22:09.007Z</time></trkpt><trkpt lat="45.4974167" lon="8.7692383"><ele>123.0</ele><time>2026-04-05T08:22:13.007Z</time></trkpt><trkpt lat="45.4973717" lon="8.7693267"><ele>123.00000000000001</ele><time>2026-04-05T08:22:16.007Z</time></trkpt><trkpt lat="45.4973167" lon="8.7694433"><ele>123.00000000000001</ele><time>2026-04-05T08:22:18.007Z</time></trkpt><trkpt lat="45.497265" lon="8.7695583"><ele>123.0</ele><time>2026-04-05T08:22:20.007Z</time></trkpt><trkpt lat="45.4972033" lon="8.76968"><ele>123.0</ele><time>2026-04-05T08:22:22.007Z</time></trkpt><trkpt lat="45.4971367" lon="8.769785"><ele>123.2</ele><time>2026-04-05T08:22:24.007Z</time></trkpt><trkpt lat="45.497065" lon="8.7698967"><ele>123.4</ele><time>2026-04-05T08:22:26.007Z</time></trkpt><trkpt lat="45.49699" lon="8.769995"><ele>123.60000000000001</ele><time>2026-04-05T08:22:28.007Z</time></trkpt><trkpt lat="45.4969133" lon="8.77007"><ele>123.80000000000001</ele><time>2026-04-05T08:22:30.007Z</time></trkpt><trkpt lat="45.4968267" lon="8.7701733"><ele>124.0</ele><time>2026-04-05T08:22:32.007Z</time></trkpt><trkpt lat="45.4967433" lon="8.77027"><ele>124.0</ele><time>2026-04-05T08:22:34.007Z</time></trkpt><trkpt lat="45.4966683" lon="8.7703617"><ele>124.0</ele><time>2026-04-05T08:22:36.007Z</time></trkpt><trkpt lat="45.49657" lon="8.7704333"><ele>124.0</ele><time>2026-04-05T08:22:38.007Z</time></trkpt><trkpt lat="45.4964817" lon="8.7705033"><ele>124.0</ele><time>2026-04-05T08:22:40.007Z</time></trkpt><trkpt lat="45.49641" lon="8.77058"><ele>124.0</ele><time>2026-04-05T08:22:42.007Z</time></trkpt><trkpt lat="45.4963333" lon="8.7706633"><ele>123.80000000000001</ele><time>2026-04-05T08:22:44.006Z</time></trkpt><trkpt lat="45.49625" lon="8.77074"><ele>123.60000000000001</ele><time>2026-04-05T08:22:46.006Z</time></trkpt><trkpt lat="45.49618" lon="8.7708367"><ele>123.4</ele><time>2026-04-05T08:22:48.006Z</time></trkpt><trkpt lat="45.4961117" lon="8.77092"><ele>123.2</ele><time>2026-04-05T08:22:50.007Z</time></trkpt><trkpt lat="45.4960633" lon="8.7710317"><ele>123.0</ele><time>2026-04-05T08:22:52.006Z</time></trkpt><trkpt lat="45.4960583" lon="8.77117"><ele>123.0</ele><time>2026-04-05T08:22:54.006Z</time></trkpt><trkpt lat="45.4960717" lon="8.7712967"><ele>123.0</ele><time>2026-04-05T08:22:56.006Z</time></trkpt><trkpt lat="45.4960917" lon="8.7714033"><ele>123.0</ele><time>2026-04-05T08:22:58.006Z</time></trkpt><trkpt lat="45.4961067" lon="8.7714917"><ele>123.0</ele><time>2026-04-05T08:23:00.006Z</time></trkpt><trkpt lat="45.4960967" lon="8.7715917"><ele>123.0</ele><time>2026-04-05T08:23:02.006Z</time></trkpt><trkpt lat="45.496085" lon="8.7717"><ele>123.0</ele><time>2026-04-05T08:23:04.006Z</time></trkpt><trkpt lat="45.4960633" lon="8.7718133"><ele>123.0</ele><time>2026-04-05T08:23:06.006Z</time></trkpt><trkpt lat="45.4960583" lon="8.771925"><ele>123.0</ele><time>2026-04-05T08:23:08.006Z</time></trkpt><trkpt lat="45.4960567" lon="8.7720283"><ele>123.0</ele><time>2026-04-05T08:23:10.007Z</time></trkpt><trkpt lat="45.4960467" lon="8.772125"><ele>123.0</ele><time>2026-04-05T08:23:12.006Z</time></trkpt><trkpt lat="45.4960383" lon="8.77224"><ele>123.0</ele><time>2026-04-05T08:23:14.006Z</time></trkpt><trkpt lat="45.4960183" lon="8.7723533"><ele>123.0</ele><time>2026-04-05T08:23:16.006Z</time></trkpt><trkpt lat="45.4959983" lon="8.772475"><ele>123.0</ele><time>2026-04-05T08:23:18.006Z</time></trkpt><trkpt lat="45.4959767" lon="8.7726"><ele>123.0</ele><time>2026-04-05T08:23:20.006Z</time></trkpt><trkpt lat="45.4959967" lon="8.7727083"><ele>123.0</ele><time>2026-04-05T08:23:23.006Z</time></trkpt><trkpt lat="45.49608" lon="8.7727033"><ele>123.0</ele><time>2026-04-05T08:23:25.006Z</time></trkpt><trkpt lat="45.4961683" lon="8.772685"><ele>123.0</ele><time>2026-04-05T08:23:27.006Z</time></trkpt><trkpt lat="45.4962467" lon="8.7727"><ele>123.0</ele><time>2026-04-05T08:23:29.006Z</time></trkpt><trkpt lat="45.4963217" lon="8.7726967"><ele>123.5</ele><time>2026-04-05T08:23:31.006Z</time></trkpt><trkpt lat="45.4963967" lon="8.77269"><ele>124.0</ele><time>2026-04-05T08:23:33.006Z</time></trkpt><trkpt lat="45.49646" lon="8.7726783"><ele>124.5</ele><time>2026-04-05T08:23:35.006Z</time></trkpt><trkpt lat="45.4965333" lon="8.7726783"><ele>125.0</ele><time>2026-04-05T08:23:37.006Z</time></trkpt><trkpt lat="45.4966083" lon="8.7726633"><ele>125.5</ele><time>2026-04-05T08:23:39.006Z</time></trkpt><trkpt lat="45.4966817" lon="8.7726317"><ele>126.0</ele><time>2026-04-05T08:23:41.006Z</time></trkpt><trkpt lat="45.49676" lon="8.772585"><ele>126.0</ele><time>2026-04-05T08:23:43.006Z</time></trkpt><trkpt lat="45.4968467" lon="8.7725633"><ele>126.0</ele><time>2026-04-05T08:23:45.006Z</time></trkpt><trkpt lat="45.4969333" lon="8.7725417"><ele>126.0</ele><time>2026-04-05T08:23:47.006Z</time></trkpt><trkpt lat="45.4970183" lon="8.77252"><ele>126.0</ele><time>2026-04-05T08:23:49.006Z</time></trkpt><trkpt lat="45.4971083" lon="8.7725133"><ele>126.0</ele><time>2026-04-05T08:23:51.006Z</time></trkpt><trkpt lat="45.4972083" lon="8.7725217"><ele>126.19999999999999</ele><time>2026-04-05T08:23:53.006Z</time></trkpt><trkpt lat="45.4972933" lon="8.7725133"><ele>126.39999999999999</ele><time>2026-04-05T08:23:55.006Z</time></trkpt><trkpt lat="45.4973867" lon="8.7724917"><ele>126.6</ele><time>2026-04-05T08:23:57.006Z</time></trkpt><trkpt lat="45.49748" lon="8.7724683"><ele>126.8</ele><time>2026-04-05T08:23:59.006Z</time></trkpt><trkpt lat="45.497575" lon="8.77244"><ele>127.0</ele><time>2026-04-05T08:24:01.006Z</time></trkpt><trkpt lat="45.4976733" lon="8.7724117"><ele>127.0</ele><time>2026-04-05T08:24:03.006Z</time></trkpt><trkpt lat="45.4977617" lon="8.7723683"><ele>126.99999999999999</ele><time>2026-04-05T08:24:05.006Z</time></trkpt><trkpt lat="45.497855" lon="8.772315"><ele>126.99999999999999</ele><time>2026-04-05T08:24:07.006Z</time></trkpt><trkpt lat="45.4979383" lon="8.7722483"><ele>127.0</ele><time>2026-04-05T08:24:09.006Z</time></trkpt><trkpt lat="45.4980183" lon="8.7721783"><ele>127.0</ele><time>2026-04-05T08:24:11.006Z</time></trkpt><trkpt lat="45.4981117" lon="8.77209"><ele>127.0</ele><time>2026-04-05T08:24:13.006Z</time></trkpt><trkpt lat="45.4981883" lon="8.7720183"><ele>126.99999999999999</ele><time>2026-04-05T08:24:15.006Z</time></trkpt><trkpt lat="45.4982617" lon="8.7719317"><ele>126.99999999999999</ele><time>2026-04-05T08:24:17.006Z</time></trkpt><trkpt lat="45.4983467" lon="8.7718383"><ele>127.0</ele><time>2026-04-05T08:24:19.007Z</time></trkpt><trkpt lat="45.4984283" lon="8.7717617"><ele>127.0</ele><time>2026-04-05T08:24:21.006Z</time></trkpt><trkpt lat="45.49851" lon="8.7716867"><ele>127.0</ele><time>2026-04-05T08:24:23.006Z</time></trkpt><trkpt lat="45.4986" lon="8.7716333"><ele>126.99999999999999</ele><time>2026-04-05T08:24:25.006Z</time></trkpt><trkpt lat="45.4986933" lon="8.7715933"><ele>126.99999999999999</ele><time>2026-04-05T08:24:27.006Z</time></trkpt><trkpt lat="45.49878" lon="8.7715417"><ele>127.0</ele><time>2026-04-05T08:24:29.006Z</time></trkpt><trkpt lat="45.4988683" lon="8.771485"><ele>127.0</ele><time>2026-04-05T08:24:31.006Z</time></trkpt><trkpt lat="45.4989717" lon="8.7714583"><ele>127.39999999999999</ele><time>2026-04-05T08:24:33.006Z</time></trkpt><trkpt lat="45.4990767" lon="8.7714417"><ele>127.79999999999998</ele><time>2026-04-05T08:24:35.006Z</time></trkpt><trkpt lat="45.49917" lon="8.7714033"><ele>128.2</ele><time>2026-04-05T08:24:37.006Z</time></trkpt><trkpt lat="45.4992583" lon="8.7713433"><ele>128.6</ele><time>2026-04-05T08:24:39.006Z</time></trkpt><trkpt lat="45.499355" lon="8.77131"><ele>129.0</ele><time>2026-04-05T08:24:41.006Z</time></trkpt><trkpt lat="45.4994517" lon="8.7712933"><ele>129.0</ele><time>2026-04-05T08:24:43.006Z</time></trkpt><trkpt lat="45.4995467" lon="8.7712733"><ele>129.0</ele><time>2026-04-05T08:24:45.006Z</time></trkpt><trkpt lat="45.4996467" lon="8.7712767"><ele>129.0</ele><time>2026-04-05T08:24:47.006Z</time></trkpt><trkpt lat="45.4997383" lon="8.7712783"><ele>129.0</ele><time>2026-04-05T08:24:49.006Z</time></trkpt><trkpt lat="45.4998467" lon="8.77127"><ele>129.0</ele><time>2026-04-05T08:24:51.006Z</time></trkpt><trkpt lat="45.4999483" lon="8.7712633"><ele>129.4</ele><time>2026-04-05T08:24:53.006Z</time></trkpt><trkpt lat="45.5000467" lon="8.771255"><ele>129.8</ele><time>2026-04-05T08:24:55.006Z</time></trkpt><trkpt lat="45.5001433" lon="8.7712367"><ele>130.2</ele><time>2026-04-05T08:24:57.006Z</time></trkpt><trkpt lat="45.500235" lon="8.77123"><ele>130.6</ele><time>2026-04-05T08:24:59.006Z</time></trkpt><trkpt lat="45.5003283" lon="8.7712167"><ele>131.0</ele><time>2026-04-05T08:25:01.006Z</time></trkpt><trkpt lat="45.50042" lon="8.771185"><ele>131.0</ele><time>2026-04-05T08:25:03.006Z</time></trkpt><trkpt lat="45.500515" lon="8.771145"><ele>131.0</ele><time>2026-04-05T08:25:05.006Z</time></trkpt><trkpt lat="45.5006083" lon="8.7710883"><ele>131.0</ele><time>2026-04-05T08:25:07.006Z</time></trkpt><trkpt lat="45.5007067" lon="8.7710267"><ele>131.0</ele><time>2026-04-05T08:25:09.006Z</time></trkpt><trkpt lat="45.5008" lon="8.7709633"><ele>131.0</ele><time>2026-04-05T08:25:11.006Z</time></trkpt><trkpt lat="45.5008917" lon="8.7709133"><ele>131.0</ele><time>2026-04-05T08:25:13.006Z</time></trkpt><trkpt lat="45.500975" lon="8.770855"><ele>131.0</ele><time>2026-04-05T08:25:15.006Z</time></trkpt><trkpt lat="45.5010633" lon="8.770775"><ele>131.0</ele><time>2026-04-05T08:25:17.006Z</time></trkpt><trkpt lat="45.501155" lon="8.7707067"><ele>131.0</ele><time>2026-04-05T08:25:19.006Z</time></trkpt><trkpt lat="45.5012467" lon="8.77064"><ele>131.0</ele><time>2026-04-05T08:25:21.006Z</time></trkpt><trkpt lat="45.5013417" lon="8.7705833"><ele>131.0</ele><time>2026-04-05T08:25:23.006Z</time></trkpt><trkpt lat="45.50145" lon="8.7705333"><ele>131.0</ele><time>2026-04-05T08:25:25.006Z</time></trkpt><trkpt lat="45.5015517" lon="8.7704833"><ele>131.0</ele><time>2026-04-05T08:25:27.006Z</time></trkpt><trkpt lat="45.50165" lon="8.770455"><ele>131.0</ele><time>2026-04-05T08:25:29.006Z</time></trkpt><trkpt lat="45.5017467" lon="8.7704067"><ele>131.0</ele><time>2026-04-05T08:25:31.006Z</time></trkpt><trkpt lat="45.5018417" lon="8.7703717"><ele>131.0</ele><time>2026-04-05T08:25:33.006Z</time></trkpt><trkpt lat="45.5019383" lon="8.7703083"><ele>131.0</ele><time>2026-04-05T08:25:35.006Z</time></trkpt><trkpt lat="45.5020283" lon="8.770235"><ele>131.0</ele><time>2026-04-05T08:25:37.006Z</time></trkpt><trkpt lat="45.50211" lon="8.7701383"><ele>131.0</ele><time>2026-04-05T08:25:39.006Z</time></trkpt><trkpt lat="45.5021967" lon="8.77005"><ele>131.0</ele><time>2026-04-05T08:25:41.006Z</time></trkpt><trkpt lat="45.50228" lon="8.76996"><ele>130.8</ele><time>2026-04-05T08:25:43.006Z</time></trkpt><trkpt lat="45.5023683" lon="8.7698733"><ele>130.6</ele><time>2026-04-05T08:25:45.006Z</time></trkpt><trkpt lat="45.5024533" lon="8.76979"><ele>130.4</ele><time>2026-04-05T08:25:47.006Z</time></trkpt><trkpt lat="45.5025433" lon="8.7697033"><ele>130.2</ele><time>2026-04-05T08:25:49.006Z</time></trkpt><trkpt lat="45.5026267" lon="8.7696167"><ele>130.0</ele><time>2026-04-05T08:25:51.006Z</time></trkpt><trkpt lat="45.50271" lon="8.7695217"><ele>130.0</ele><time>2026-04-05T08:25:53.006Z</time></trkpt><trkpt lat="45.5027883" lon="8.7694167"><ele>130.0</ele><time>2026-04-05T08:25:55.006Z</time></trkpt><trkpt lat="45.5028733" lon="8.76931"><ele>130.0</ele><time>2026-04-05T08:25:57.006Z</time></trkpt><trkpt lat="45.5029483" lon="8.7692167"><ele>130.0</ele><time>2026-04-05T08:25:59.006Z</time></trkpt><trkpt lat="45.503035" lon="8.769105"><ele>130.0</ele><time>2026-04-05T08:26:01.006Z</time></trkpt><trkpt lat="45.5031133" lon="8.7689967"><ele>130.2</ele><time>2026-04-05T08:26:03.006Z</time></trkpt><trkpt lat="45.5031933" lon="8.7688867"><ele>130.4</ele><time>2026-04-05T08:26:05.006Z</time></trkpt><trkpt lat="45.5032767" lon="8.7687933"><ele>130.6</ele><time>2026-04-05T08:26:07.006Z</time></trkpt><trkpt lat="45.50335" lon="8.7686867"><ele>130.8</ele><time>2026-04-05T08:26:09.006Z</time></trkpt><trkpt lat="45.503425" lon="8.7685783"><ele>131.0</ele><time>2026-04-05T08:26:11.006Z</time></trkpt><trkpt lat="45.5034967" lon="8.7684617"><ele>130.6</ele><time>2026-04-05T08:26:13.006Z</time></trkpt><trkpt lat="45.5035383" lon="8.7683233"><ele>130.2</ele><time>2026-04-05T08:26:15.006Z</time></trkpt><trkpt lat="45.50358" lon="8.7681833"><ele>129.8</ele><time>2026-04-05T08:26:17.006Z</time></trkpt><trkpt lat="45.5036133" lon="8.7680317"><ele>129.4</ele><time>2026-04-05T08:26:19.006Z</time></trkpt><trkpt lat="45.5036367" lon="8.7678983"><ele>129.0</ele><time>2026-04-05T08:26:21.006Z</time></trkpt><trkpt lat="45.5036567" lon="8.7677533"><ele>129.0</ele><time>2026-04-05T08:26:23.006Z</time></trkpt><trkpt lat="45.503685" lon="8.76761"><ele>129.0</ele><time>2026-04-05T08:26:25.006Z</time></trkpt><trkpt lat="45.50372" lon="8.7674633"><ele>129.0</ele><time>2026-04-05T08:26:27.006Z</time></trkpt><trkpt lat="45.503745" lon="8.7673033"><ele>129.0</ele><time>2026-04-05T08:26:29.006Z</time></trkpt><trkpt lat="45.5037783" lon="8.7671683"><ele>129.0</ele><time>2026-04-05T08:26:31.006Z</time></trkpt><trkpt lat="45.5038117" lon="8.76702"><ele>129.0</ele><time>2026-04-05T08:26:33.006Z</time></trkpt><trkpt lat="45.50383" lon="8.7668717"><ele>129.0</ele><time>2026-04-05T08:26:35.006Z</time></trkpt><trkpt lat="45.5038517" lon="8.766725"><ele>129.0</ele><time>2026-04-05T08:26:37.006Z</time></trkpt><trkpt lat="45.5038883" lon="8.7665867"><ele>129.0</ele><time>2026-04-05T08:26:39.006Z</time></trkpt><trkpt lat="45.5039167" lon="8.7664417"><ele>129.0</ele><time>2026-04-05T08:26:41.006Z</time></trkpt><trkpt lat="45.50394" lon="8.7663017"><ele>128.8</ele><time>2026-04-05T08:26:43.006Z</time></trkpt><trkpt lat="45.503965" lon="8.7661717"><ele>128.60000000000002</ele><time>2026-04-05T08:26:45.006Z</time></trkpt><trkpt lat="45.5039967" lon="8.7660333"><ele>128.4</ele><time>2026-04-05T08:26:47.006Z</time></trkpt><trkpt lat="45.5040183" lon="8.7659067"><ele>128.20000000000002</ele><time>2026-04-05T08:26:49.006Z</time></trkpt><trkpt lat="45.50405" lon="8.7657733"><ele>128.0</ele><time>2026-04-05T08:26:51.006Z</time></trkpt><trkpt lat="45.5041083" lon="8.7656283"><ele>128.4</ele><time>2026-04-05T08:26:53.006Z</time></trkpt><trkpt lat="45.5041817" lon="8.7655183"><ele>128.8</ele><time>2026-04-05T08:26:55.006Z</time></trkpt><trkpt lat="45.5042783" lon="8.76546"><ele>129.2</ele><time>2026-04-05T08:26:57.006Z</time></trkpt><trkpt lat="45.50438" lon="8.7653933"><ele>129.6</ele><time>2026-04-05T08:26:59.006Z</time></trkpt><trkpt lat="45.5044683" lon="8.7653"><ele>130.0</ele><time>2026-04-05T08:27:01.006Z</time></trkpt><trkpt lat="45.5045233" lon="8.7651867"><ele>130.0</ele><time>2026-04-05T08:27:03.006Z</time></trkpt><trkpt lat="45.50452" lon="8.7650417"><ele>130.0</ele><time>2026-04-05T08:27:05.006Z</time></trkpt><trkpt lat="45.5045033" lon="8.76489"><ele>130.0</ele><time>2026-04-05T08:27:07.006Z</time></trkpt><trkpt lat="45.504495" lon="8.76474"><ele>130.0</ele><time>2026-04-05T08:27:09.006Z</time></trkpt><trkpt lat="45.504485" lon="8.7645883"><ele>130.0</ele><time>2026-04-05T08:27:11.006Z</time></trkpt><trkpt lat="45.504495" lon="8.7644317"><ele>130.0</ele><time>2026-04-05T08:27:13.007Z</time></trkpt><trkpt lat="45.5045333" lon="8.764295"><ele>130.0</ele><time>2026-04-05T08:27:15.006Z</time></trkpt><trkpt lat="45.5046017" lon="8.7641717"><ele>130.0</ele><time>2026-04-05T08:27:17.006Z</time></trkpt><trkpt lat="45.5046817" lon="8.7640617"><ele>130.0</ele><time>2026-04-05T08:27:19.006Z</time></trkpt><trkpt lat="45.50476" lon="8.7639683"><ele>130.0</ele><time>2026-04-05T08:27:21.006Z</time></trkpt><trkpt lat="45.50485" lon="8.7638783"><ele>130.0</ele><time>2026-04-05T08:27:23.006Z</time></trkpt><trkpt lat="45.50493" lon="8.7637767"><ele>130.0</ele><time>2026-04-05T08:27:25.007Z</time></trkpt><trkpt lat="45.5050067" lon="8.7636783"><ele>130.0</ele><time>2026-04-05T08:27:27.006Z</time></trkpt><trkpt lat="45.5050867" lon="8.7635867"><ele>130.0</ele><time>2026-04-05T08:27:29.006Z</time></trkpt><trkpt lat="45.5051583" lon="8.7634983"><ele>130.0</ele><time>2026-04-05T08:27:31.006Z</time></trkpt><trkpt lat="45.5052333" lon="8.7633967"><ele>130.2</ele><time>2026-04-05T08:27:33.006Z</time></trkpt><trkpt lat="45.5053083" lon="8.7632967"><ele>130.4</ele><time>2026-04-05T08:27:35.006Z</time></trkpt><trkpt lat="45.5053717" lon="8.7631717"><ele>130.6</ele><time>2026-04-05T08:27:37.006Z</time></trkpt><trkpt lat="45.5054233" lon="8.7630317"><ele>130.8</ele><time>2026-04-05T08:27:39.006Z</time></trkpt><trkpt lat="45.505465" lon="8.7628883"><ele>131.0</ele><time>2026-04-05T08:27:41.006Z</time></trkpt><trkpt lat="45.5055333" lon="8.7627683"><ele>130.8</ele><time>2026-04-05T08:27:43.006Z</time></trkpt><trkpt lat="45.5056133" lon="8.7626667"><ele>130.6</ele><time>2026-04-05T08:27:45.006Z</time></trkpt><trkpt lat="45.505705" lon="8.76261"><ele>130.4</ele><time>2026-04-05T08:27:47.006Z</time></trkpt><trkpt lat="45.50579" lon="8.76255"><ele>130.2</ele><time>2026-04-05T08:27:49.006Z</time></trkpt><trkpt lat="45.50588" lon="8.7624967"><ele>130.0</ele><time>2026-04-05T08:27:51.006Z</time></trkpt><trkpt lat="45.5059733" lon="8.76243"><ele>130.0</ele><time>2026-04-05T08:27:53.006Z</time></trkpt><trkpt lat="45.5060583" lon="8.762335"><ele>130.0</ele><time>2026-04-05T08:27:55.006Z</time></trkpt><trkpt lat="45.5060783" lon="8.762185"><ele>130.0</ele><time>2026-04-05T08:27:57.006Z</time></trkpt><trkpt lat="45.5060617" lon="8.7620167"><ele>130.0</ele><time>2026-04-05T08:27:59.006Z</time></trkpt><trkpt lat="45.5060133" lon="8.7618517"><ele>130.5</ele><time>2026-04-05T08:28:01.006Z</time></trkpt><trkpt lat="45.5059733" lon="8.761705"><ele>131.0</ele><time>2026-04-05T08:28:03.006Z</time></trkpt><trkpt lat="45.5059333" lon="8.76155"><ele>131.5</ele><time>2026-04-05T08:28:05.007Z</time></trkpt><trkpt lat="45.5059233" lon="8.761395"><ele>132.0</ele><time>2026-04-05T08:28:07.006Z</time></trkpt><trkpt lat="45.5058917" lon="8.7612333"><ele>132.0</ele><time>2026-04-05T08:28:09.006Z</time></trkpt><trkpt lat="45.50586" lon="8.7610883"><ele>132.0</ele><time>2026-04-05T08:28:11.006Z</time></trkpt><trkpt lat="45.5058183" lon="8.76093"><ele>132.0</ele><time>2026-04-05T08:28:13.006Z</time></trkpt><trkpt lat="45.505795" lon="8.7608433"><ele>132.0</ele><time>2026-04-05T08:28:14.006Z</time></trkpt><trkpt lat="45.5057667" lon="8.7606933"><ele>132.0</ele><time>2026-04-05T08:28:16.007Z</time></trkpt><trkpt lat="45.5057267" lon="8.7605517"><ele>132.0</ele><time>2026-04-05T08:28:18.006Z</time></trkpt><trkpt lat="45.50569" lon="8.7604017"><ele>132.0</ele><time>2026-04-05T08:28:20.006Z</time></trkpt><trkpt lat="45.505655" lon="8.7602467"><ele>132.0</ele><time>2026-04-05T08:28:22.006Z</time></trkpt><trkpt lat="45.5056167" lon="8.7601"><ele>132.0</ele><time>2026-04-05T08:28:24.006Z</time></trkpt><trkpt lat="45.50558" lon="8.7599483"><ele>132.0</ele><time>2026-04-05T08:28:26.006Z</time></trkpt><trkpt lat="45.505545" lon="8.7597983"><ele>131.75</ele><time>2026-04-05T08:28:28.006Z</time></trkpt><trkpt lat="45.5055017" lon="8.7596333"><ele>131.5</ele><time>2026-04-05T08:28:30.006Z</time></trkpt><trkpt lat="45.5054683" lon="8.7594667"><ele>131.25</ele><time>2026-04-05T08:28:32.006Z</time></trkpt><trkpt lat="45.5054267" lon="8.759305"><ele>131.0</ele><time>2026-04-05T08:28:34.006Z</time></trkpt><trkpt lat="45.50537" lon="8.7591517"><ele>130.83333333333331</ele><time>2026-04-05T08:28:36.007Z</time></trkpt><trkpt lat="45.5053317" lon="8.7589917"><ele>130.66666666666666</ele><time>2026-04-05T08:28:38.006Z</time></trkpt><trkpt lat="45.5052933" lon="8.75882"><ele>130.5</ele><time>2026-04-05T08:28:40.006Z</time></trkpt><trkpt lat="45.5052933" lon="8.7587283"><ele>130.33333333333334</ele><time>2026-04-05T08:28:41.006Z</time></trkpt><trkpt lat="45.50528" lon="8.7586317"><ele>130.16666666666669</ele><time>2026-04-05T08:28:42.006Z</time></trkpt><trkpt lat="45.5052717" lon="8.7585333"><ele>130.0</ele><time>2026-04-05T08:28:43.006Z</time></trkpt><trkpt lat="45.505275" lon="8.7584317"><ele>129.83333333333334</ele><time>2026-04-05T08:28:44.006Z</time></trkpt><trkpt lat="45.505265" lon="8.7583317"><ele>129.66666666666669</ele><time>2026-04-05T08:28:45.006Z</time></trkpt><trkpt lat="45.5052467" lon="8.758185"><ele>129.5</ele><time>2026-04-05T08:28:47.006Z</time></trkpt><trkpt lat="45.50523" lon="8.7580533"><ele>129.33333333333334</ele><time>2026-04-05T08:28:49.006Z</time></trkpt><trkpt lat="45.505215" lon="8.7579267"><ele>129.16666666666666</ele><time>2026-04-05T08:28:51.006Z</time></trkpt><trkpt lat="45.5052" lon="8.7578017"><ele>129.0</ele><time>2026-04-05T08:28:53.006Z</time></trkpt><trkpt lat="45.50519" lon="8.757665"><ele>129.33333333333334</ele><time>2026-04-05T08:28:55.006Z</time></trkpt><trkpt lat="45.5051767" lon="8.7575233"><ele>129.66666666666666</ele><time>2026-04-05T08:28:57.006Z</time></trkpt><trkpt lat="45.50515" lon="8.757395"><ele>130.0</ele><time>2026-04-05T08:28:59.006Z</time></trkpt><trkpt lat="45.505105" lon="8.7573267"><ele>130.33333333333331</ele><time>2026-04-05T08:29:01.006Z</time></trkpt><trkpt lat="45.5050283" lon="8.7572683"><ele>130.66666666666666</ele><time>2026-04-05T08:29:04.006Z</time></trkpt><trkpt lat="45.5049567" lon="8.75722"><ele>131.0</ele><time>2026-04-05T08:29:06.006Z</time></trkpt><trkpt lat="45.5048867" lon="8.7571667"><ele>131.0</ele><time>2026-04-05T08:29:08.006Z</time></trkpt><trkpt lat="45.5048217" lon="8.757135"><ele>131.0</ele><time>2026-04-05T08:29:10.006Z</time></trkpt><trkpt lat="45.5047483" lon="8.757135"><ele>131.0</ele><time>2026-04-05T08:29:12.006Z</time></trkpt><trkpt lat="45.504665" lon="8.7571683"><ele>131.0</ele><time>2026-04-05T08:29:14.006Z</time></trkpt><trkpt lat="45.5045633" lon="8.7571933"><ele>131.0</ele><time>2026-04-05T08:29:16.006Z</time></trkpt><trkpt lat="45.5045" lon="8.7571933"><ele>131.0</ele><time>2026-04-05T08:29:17.006Z</time></trkpt><trkpt lat="45.5043883" lon="8.75716"><ele>131.0</ele><time>2026-04-05T08:29:19.006Z</time></trkpt><trkpt lat="45.5042817" lon="8.757135"><ele>131.0</ele><time>2026-04-05T08:29:21.006Z</time></trkpt><trkpt lat="45.50419" lon="8.757105"><ele>131.0</ele><time>2026-04-05T08:29:23.006Z</time></trkpt><trkpt lat="45.5040983" lon="8.757055"><ele>131.0</ele><time>2026-04-05T08:29:25.006Z</time></trkpt><trkpt lat="45.5040067" lon="8.75698"><ele>131.0</ele><time>2026-04-05T08:29:27.006Z</time></trkpt><trkpt lat="45.5039167" lon="8.7569117"><ele>131.4</ele><time>2026-04-05T08:29:29.006Z</time></trkpt><trkpt lat="45.5038233" lon="8.7568517"><ele>131.8</ele><time>2026-04-05T08:29:31.006Z</time></trkpt><trkpt lat="45.5037367" lon="8.7567917"><ele>132.20000000000002</ele><time>2026-04-05T08:29:33.006Z</time></trkpt><trkpt lat="45.5036767" lon="8.756695"><ele>132.6</ele><time>2026-04-05T08:29:35.006Z</time></trkpt><trkpt lat="45.50369" lon="8.75658"><ele>133.0</ele><time>2026-04-05T08:29:37.006Z</time></trkpt><trkpt lat="45.5037717" lon="8.75649"><ele>133.0</ele><time>2026-04-05T08:29:39.006Z</time></trkpt><trkpt lat="45.5038567" lon="8.7564117"><ele>133.0</ele><time>2026-04-05T08:29:41.006Z</time></trkpt><trkpt lat="45.5039267" lon="8.756315"><ele>133.0</ele><time>2026-04-05T08:29:43.006Z</time></trkpt><trkpt lat="45.503985" lon="8.7562183"><ele>133.0</ele><time>2026-04-05T08:29:45.006Z</time></trkpt><trkpt lat="45.5040433" lon="8.7561517"><ele>133.0</ele><time>2026-04-05T08:29:47.006Z</time></trkpt><trkpt lat="45.50411" lon="8.7561017"><ele>133.0</ele><time>2026-04-05T08:29:49.006Z</time></trkpt><trkpt lat="45.50418" lon="8.7560317"><ele>133.4</ele><time>2026-04-05T08:29:51.006Z</time></trkpt><trkpt lat="45.504255" lon="8.75594"><ele>133.8</ele><time>2026-04-05T08:29:53.006Z</time></trkpt><trkpt lat="45.50432" lon="8.755835"><ele>134.2</ele><time>2026-04-05T08:29:55.006Z</time></trkpt><trkpt lat="45.5043867" lon="8.7557317"><ele>134.6</ele><time>2026-04-05T08:29:57.006Z</time></trkpt><trkpt lat="45.5044483" lon="8.75566"><ele>135.0</ele><time>2026-04-05T08:29:59.006Z</time></trkpt><trkpt lat="45.5045217" lon="8.75558"><ele>135.2</ele><time>2026-04-05T08:30:01.005Z</time></trkpt><trkpt lat="45.5045917" lon="8.7555033"><ele>135.4</ele><time>2026-04-05T08:30:03.005Z</time></trkpt><trkpt lat="45.5046617" lon="8.755425"><ele>135.6</ele><time>2026-04-05T08:30:05.005Z</time></trkpt><trkpt lat="45.5047483" lon="8.7553333"><ele>135.8</ele><time>2026-04-05T08:30:07.005Z</time></trkpt><trkpt lat="45.504825" lon="8.7552367"><ele>136.0</ele><time>2026-04-05T08:30:09.005Z</time></trkpt><trkpt lat="45.5049" lon="8.7551533"><ele>136.0</ele><time>2026-04-05T08:30:11.005Z</time></trkpt><trkpt lat="45.5049717" lon="8.7550733"><ele>136.0</ele><time>2026-04-05T08:30:13.005Z</time></trkpt><trkpt lat="45.5050533" lon="8.7549933"><ele>136.0</ele><time>2026-04-05T08:30:15.005Z</time></trkpt><trkpt lat="45.50513" lon="8.7549083"><ele>136.0</ele><time>2026-04-05T08:30:17.005Z</time></trkpt><trkpt lat="45.5051983" lon="8.75482"><ele>136.0</ele><time>2026-04-05T08:30:19.005Z</time></trkpt><trkpt lat="45.5052667" lon="8.7547383"><ele>136.0</ele><time>2026-04-05T08:30:21.005Z</time></trkpt><trkpt lat="45.50534" lon="8.7546483"><ele>136.0</ele><time>2026-04-05T08:30:23.005Z</time></trkpt><trkpt lat="45.5054167" lon="8.7545633"><ele>136.0</ele><time>2026-04-05T08:30:25.005Z</time></trkpt><trkpt lat="45.5054917" lon="8.754485"><ele>136.0</ele><time>2026-04-05T08:30:27.005Z</time></trkpt><trkpt lat="45.5055767" lon="8.7544133"><ele>136.0</ele><time>2026-04-05T08:30:29.005Z</time></trkpt><trkpt lat="45.5056583" lon="8.7543667"><ele>136.0</ele><time>2026-04-05T08:30:31.005Z</time></trkpt><trkpt lat="45.50574" lon="8.754355"><ele>136.0</ele><time>2026-04-05T08:30:33.005Z</time></trkpt><trkpt lat="45.5058233" lon="8.7543533"><ele>136.0</ele><time>2026-04-05T08:30:35.006Z</time></trkpt><trkpt lat="45.5059067" lon="8.7543583"><ele>136.0</ele><time>2026-04-05T08:30:37.005Z</time></trkpt><trkpt lat="45.505995" lon="8.7543317"><ele>136.0</ele><time>2026-04-05T08:30:39.005Z</time></trkpt><trkpt lat="45.5060833" lon="8.7542683"><ele>136.0</ele><time>2026-04-05T08:30:41.005Z</time></trkpt><trkpt lat="45.50614" lon="8.7541867"><ele>136.0</ele><time>2026-04-05T08:30:43.005Z</time></trkpt><trkpt lat="45.5062033" lon="8.7541183"><ele>136.0</ele><time>2026-04-05T08:30:45.005Z</time></trkpt><trkpt lat="45.5062667" lon="8.7540433"><ele>136.0</ele><time>2026-04-05T08:30:47.005Z</time></trkpt><trkpt lat="45.5063333" lon="8.75398"><ele>136.0</ele><time>2026-04-05T08:30:49.005Z</time></trkpt><trkpt lat="45.5064083" lon="8.75392"><ele>136.0</ele><time>2026-04-05T08:30:51.005Z</time></trkpt><trkpt lat="45.5064817" lon="8.7538283"><ele>136.0</ele><time>2026-04-05T08:30:53.005Z</time></trkpt><trkpt lat="45.5065417" lon="8.7537283"><ele>136.16666666666669</ele><time>2026-04-05T08:30:55.005Z</time></trkpt><trkpt lat="45.506595" lon="8.7536467"><ele>136.33333333333334</ele><time>2026-04-05T08:30:57.005Z</time></trkpt><trkpt lat="45.50666" lon="8.753605"><ele>136.5</ele><time>2026-04-05T08:30:59.005Z</time></trkpt><trkpt lat="45.5067417" lon="8.7535333"><ele>136.66666666666666</ele><time>2026-04-05T08:31:01.005Z</time></trkpt><trkpt lat="45.5067933" lon="8.753425"><ele>136.83333333333331</ele><time>2026-04-05T08:31:03.005Z</time></trkpt><trkpt lat="45.5068217" lon="8.7533183"><ele>137.0</ele><time>2026-04-05T08:31:05.006Z</time></trkpt><trkpt lat="45.506835" lon="8.7531917"><ele>136.5</ele><time>2026-04-05T08:31:07.005Z</time></trkpt><trkpt lat="45.50683" lon="8.753075"><ele>136.0</ele><time>2026-04-05T08:31:09.005Z</time></trkpt><trkpt lat="45.5068367" lon="8.75297"><ele>135.5</ele><time>2026-04-05T08:31:11.005Z</time></trkpt><trkpt lat="45.5068483" lon="8.75284"><ele>135.0</ele><time>2026-04-05T08:31:13.006Z</time></trkpt><trkpt lat="45.50687" lon="8.7527367"><ele>134.5</ele><time>2026-04-05T08:31:15.005Z</time></trkpt><trkpt lat="45.5068967" lon="8.7526167"><ele>134.0</ele><time>2026-04-05T08:31:17.005Z</time></trkpt><trkpt lat="45.5069283" lon="8.752495"><ele>133.6</ele><time>2026-04-05T08:31:19.005Z</time></trkpt><trkpt lat="45.5069533" lon="8.7523717"><ele>133.2</ele><time>2026-04-05T08:31:21.005Z</time></trkpt><trkpt lat="45.5069717" lon="8.7522"><ele>132.79999999999998</ele><time>2026-04-05T08:31:23.005Z</time></trkpt><trkpt lat="45.5069833" lon="8.7521083"><ele>132.4</ele><time>2026-04-05T08:31:24.005Z</time></trkpt><trkpt lat="45.507005" lon="8.75196"><ele>132.0</ele><time>2026-04-05T08:31:26.005Z</time></trkpt><trkpt lat="45.50704" lon="8.7518067"><ele>131.79999999999998</ele><time>2026-04-05T08:31:28.005Z</time></trkpt><trkpt lat="45.507055" lon="8.75169"><ele>131.6</ele><time>2026-04-05T08:31:30.005Z</time></trkpt><trkpt lat="45.5070883" lon="8.7515633"><ele>131.39999999999998</ele><time>2026-04-05T08:31:32.005Z</time></trkpt><trkpt lat="45.507135" lon="8.751425"><ele>131.2</ele><time>2026-04-05T08:31:34.005Z</time></trkpt><trkpt lat="45.507175" lon="8.75132"><ele>131.0</ele><time>2026-04-05T08:31:36.005Z</time></trkpt><trkpt lat="45.5072" lon="8.7512083"><ele>131.66666666666666</ele><time>2026-04-05T08:31:38.005Z</time></trkpt><trkpt lat="45.5072" lon="8.7511033"><ele>132.33333333333331</ele><time>2026-04-05T08:31:41.005Z</time></trkpt><trkpt lat="45.5072317" lon="8.7509833"><ele>133.0</ele><time>2026-04-05T08:31:44.006Z</time></trkpt><trkpt lat="45.5072617" lon="8.7508767"><ele>133.66666666666666</ele><time>2026-04-05T08:31:46.005Z</time></trkpt><trkpt lat="45.5072883" lon="8.750755"><ele>134.33333333333334</ele><time>2026-04-05T08:31:48.005Z</time></trkpt><trkpt lat="45.5073067" lon="8.7506383"><ele>135.0</ele><time>2026-04-05T08:31:50.005Z</time></trkpt><trkpt lat="45.5073283" lon="8.750525"><ele>135.0</ele><time>2026-04-05T08:31:52.005Z</time></trkpt><trkpt lat="45.5073567" lon="8.750405"><ele>135.0</ele><time>2026-04-05T08:31:54.005Z</time></trkpt><trkpt lat="45.5073833" lon="8.75028"><ele>135.0</ele><time>2026-04-05T08:31:56.005Z</time></trkpt><trkpt lat="45.50742" lon="8.7501433"><ele>135.0</ele><time>2026-04-05T08:31:58.005Z</time></trkpt><trkpt lat="45.5074667" lon="8.75003"><ele>135.0</ele><time>2026-04-05T08:32:00.005Z</time></trkpt><trkpt lat="45.5075183" lon="8.749925"><ele>135.0</ele><time>2026-04-05T08:32:02.005Z</time></trkpt><trkpt lat="45.5075767" lon="8.7498033"><ele>135.0</ele><time>2026-04-05T08:32:04.005Z</time></trkpt><trkpt lat="45.5076233" lon="8.7496817"><ele>135.0</ele><time>2026-04-05T08:32:06.005Z</time></trkpt><trkpt lat="45.5076667" lon="8.7495617"><ele>135.0</ele><time>2026-04-05T08:32:08.005Z</time></trkpt><trkpt lat="45.5077033" lon="8.7494533"><ele>135.0</ele><time>2026-04-05T08:32:10.005Z</time></trkpt><trkpt lat="45.507765" lon="8.7493333"><ele>134.66666666666666</ele><time>2026-04-05T08:32:12.005Z</time></trkpt><trkpt lat="45.5078317" lon="8.7492217"><ele>134.33333333333334</ele><time>2026-04-05T08:32:14.005Z</time></trkpt><trkpt lat="45.5078883" lon="8.7491333"><ele>134.0</ele><time>2026-04-05T08:32:16.005Z</time></trkpt><trkpt lat="45.5079417" lon="8.7490767"><ele>133.66666666666669</ele><time>2026-04-05T08:32:18.005Z</time></trkpt><trkpt lat="45.5080083" lon="8.7490217"><ele>133.33333333333334</ele><time>2026-04-05T08:32:20.005Z</time></trkpt><trkpt lat="45.5080667" lon="8.748975"><ele>133.0</ele><time>2026-04-05T08:32:22.005Z</time></trkpt><trkpt lat="45.5081233" lon="8.7489217"><ele>133.83333333333334</ele><time>2026-04-05T08:32:24.005Z</time></trkpt><trkpt lat="45.50819" lon="8.7488633"><ele>134.66666666666669</ele><time>2026-04-05T08:32:26.005Z</time></trkpt><trkpt lat="45.50826" lon="8.7488083"><ele>135.5</ele><time>2026-04-05T08:32:28.005Z</time></trkpt><trkpt lat="45.50832" lon="8.748755"><ele>136.33333333333334</ele><time>2026-04-05T08:32:30.005Z</time></trkpt><trkpt lat="45.5083917" lon="8.748715"><ele>137.16666666666666</ele><time>2026-04-05T08:32:32.005Z</time></trkpt><trkpt lat="45.5084667" lon="8.7486633"><ele>138.0</ele><time>2026-04-05T08:32:34.005Z</time></trkpt><trkpt lat="45.508535" lon="8.7486267"><ele>138.0</ele><time>2026-04-05T08:32:36.005Z</time></trkpt><trkpt lat="45.508615" lon="8.7485633"><ele>138.0</ele><time>2026-04-05T08:32:38.005Z</time></trkpt><trkpt lat="45.5086933" lon="8.7484783"><ele>138.0</ele><time>2026-04-05T08:32:40.005Z</time></trkpt><trkpt lat="45.5087667" lon="8.7483817"><ele>138.0</ele><time>2026-04-05T08:32:42.005Z</time></trkpt><trkpt lat="45.5088083" lon="8.748295"><ele>138.0</ele><time>2026-04-05T08:32:44.005Z</time></trkpt><trkpt lat="45.508845" lon="8.7482"><ele>138.0</ele><time>2026-04-05T08:32:46.005Z</time></trkpt><trkpt lat="45.50888" lon="8.74811"><ele>137.8</ele><time>2026-04-05T08:32:48.005Z</time></trkpt><trkpt lat="45.5089233" lon="8.7480083"><ele>137.60000000000002</ele><time>2026-04-05T08:32:50.005Z</time></trkpt><trkpt lat="45.50897" lon="8.7478983"><ele>137.39999999999998</ele><time>2026-04-05T08:32:52.005Z</time></trkpt><trkpt lat="45.5090233" lon="8.747775"><ele>137.2</ele><time>2026-04-05T08:32:54.005Z</time></trkpt><trkpt lat="45.5090683" lon="8.7476433"><ele>137.0</ele><time>2026-04-05T08:32:56.005Z</time></trkpt><trkpt lat="45.509115" lon="8.7475033"><ele>136.75</ele><time>2026-04-05T08:32:58.005Z</time></trkpt><trkpt lat="45.5092067" lon="8.747405"><ele>136.5</ele><time>2026-04-05T08:33:00.005Z</time></trkpt><trkpt lat="45.50932" lon="8.7473683"><ele>136.25</ele><time>2026-04-05T08:33:02.005Z</time></trkpt><trkpt lat="45.5094333" lon="8.747305"><ele>136.0</ele><time>2026-04-05T08:33:04.005Z</time></trkpt><trkpt lat="45.5095117" lon="8.7472017"><ele>135.83333333333334</ele><time>2026-04-05T08:33:06.005Z</time></trkpt><trkpt lat="45.5095867" lon="8.747095"><ele>135.66666666666669</ele><time>2026-04-05T08:33:08.005Z</time></trkpt><trkpt lat="45.5096617" lon="8.7470233"><ele>135.5</ele><time>2026-04-05T08:33:10.005Z</time></trkpt><trkpt lat="45.5097417" lon="8.74697"><ele>135.33333333333334</ele><time>2026-04-05T08:33:12.005Z</time></trkpt><trkpt lat="45.509805" lon="8.7469133"><ele>135.16666666666666</ele><time>2026-04-05T08:33:14.005Z</time></trkpt><trkpt lat="45.5098833" lon="8.7468583"><ele>135.0</ele><time>2026-04-05T08:33:16.005Z</time></trkpt><trkpt lat="45.5099483" lon="8.7467883"><ele>135.0</ele><time>2026-04-05T08:33:18.005Z</time></trkpt><trkpt lat="45.5100117" lon="8.7467317"><ele>135.0</ele><time>2026-04-05T08:33:20.005Z</time></trkpt><trkpt lat="45.5100667" lon="8.746685"><ele>135.0</ele><time>2026-04-05T08:33:22.005Z</time></trkpt><trkpt lat="45.5101433" lon="8.7466417"><ele>135.0</ele><time>2026-04-05T08:33:24.005Z</time></trkpt><trkpt lat="45.510215" lon="8.7465967"><ele>135.0</ele><time>2026-04-05T08:33:26.005Z</time></trkpt><trkpt lat="45.5103083" lon="8.7465433"><ele>135.0</ele><time>2026-04-05T08:33:28.005Z</time></trkpt><trkpt lat="45.5103967" lon="8.7465067"><ele>135.16666666666666</ele><time>2026-04-05T08:33:30.005Z</time></trkpt><trkpt lat="45.5104917" lon="8.7464667"><ele>135.33333333333334</ele><time>2026-04-05T08:33:32.005Z</time></trkpt><trkpt lat="45.5105783" lon="8.746435"><ele>135.5</ele><time>2026-04-05T08:33:34.005Z</time></trkpt><trkpt lat="45.51065" lon="8.74641"><ele>135.66666666666669</ele><time>2026-04-05T08:33:36.005Z</time></trkpt><trkpt lat="45.5107167" lon="8.74637"><ele>135.83333333333334</ele><time>2026-04-05T08:33:38.005Z</time></trkpt><trkpt lat="45.5107933" lon="8.7463117"><ele>136.0</ele><time>2026-04-05T08:33:40.005Z</time></trkpt><trkpt lat="45.5108717" lon="8.7462583"><ele>136.0</ele><time>2026-04-05T08:33:42.005Z</time></trkpt><trkpt lat="45.510945" lon="8.7462"><ele>136.0</ele><time>2026-04-05T08:33:44.005Z</time></trkpt><trkpt lat="45.511025" lon="8.7461533"><ele>136.0</ele><time>2026-04-05T08:33:46.005Z</time></trkpt><trkpt lat="45.51111" lon="8.74611"><ele>136.0</ele><time>2026-04-05T08:33:48.005Z</time></trkpt><trkpt lat="45.5111917" lon="8.74608"><ele>136.0</ele><time>2026-04-05T08:33:50.005Z</time></trkpt><trkpt lat="45.511275" lon="8.7460283"><ele>136.0</ele><time>2026-04-05T08:33:52.005Z</time></trkpt><trkpt lat="45.5113483" lon="8.7459817"><ele>136.33333333333334</ele><time>2026-04-05T08:33:54.005Z</time></trkpt><trkpt lat="45.5114183" lon="8.745925"><ele>136.66666666666669</ele><time>2026-04-05T08:33:56.005Z</time></trkpt><trkpt lat="45.511485" lon="8.74587"><ele>137.0</ele><time>2026-04-05T08:33:58.005Z</time></trkpt><trkpt lat="45.5115583" lon="8.7458133"><ele>137.33333333333334</ele><time>2026-04-05T08:34:00.005Z</time></trkpt><trkpt lat="45.5116317" lon="8.7457633"><ele>137.66666666666666</ele><time>2026-04-05T08:34:02.005Z</time></trkpt><trkpt lat="45.5117233" lon="8.7457183"><ele>138.0</ele><time>2026-04-05T08:34:04.005Z</time></trkpt><trkpt lat="45.5118083" lon="8.7456633"><ele>138.0</ele><time>2026-04-05T08:34:06.005Z</time></trkpt><trkpt lat="45.5118683" lon="8.7456117"><ele>138.0</ele><time>2026-04-05T08:34:08.005Z</time></trkpt><trkpt lat="45.5119383" lon="8.7455733"><ele>138.0</ele><time>2026-04-05T08:34:10.005Z</time></trkpt><trkpt lat="45.5119983" lon="8.745535"><ele>138.0</ele><time>2026-04-05T08:34:12.005Z</time></trkpt><trkpt lat="45.5121167" lon="8.74545"><ele>138.0</ele><time>2026-04-05T08:34:15.005Z</time></trkpt><trkpt lat="45.51218" lon="8.7454167"><ele>138.0</ele><time>2026-04-05T08:34:16.005Z</time></trkpt><trkpt lat="45.512265" lon="8.7453717"><ele>138.0</ele><time>2026-04-05T08:34:18.005Z</time></trkpt><trkpt lat="45.5123467" lon="8.745315"><ele>138.0</ele><time>2026-04-05T08:34:20.005Z</time></trkpt><trkpt lat="45.51243" lon="8.7452833"><ele>138.0</ele><time>2026-04-05T08:34:22.005Z</time></trkpt><trkpt lat="45.5124983" lon="8.74524"><ele>138.0</ele><time>2026-04-05T08:34:24.005Z</time></trkpt><trkpt lat="45.5125767" lon="8.74518"><ele>138.0</ele><time>2026-04-05T08:34:26.005Z</time></trkpt><trkpt lat="45.51266" lon="8.7450983"><ele>138.0</ele><time>2026-04-05T08:34:28.005Z</time></trkpt><trkpt lat="45.51275" lon="8.7450283"><ele>138.16666666666666</ele><time>2026-04-05T08:34:30.005Z</time></trkpt><trkpt lat="45.51284" lon="8.7449917"><ele>138.33333333333334</ele><time>2026-04-05T08:34:32.005Z</time></trkpt><trkpt lat="45.5129217" lon="8.7449683"><ele>138.5</ele><time>2026-04-05T08:34:34.006Z</time></trkpt><trkpt lat="45.513" lon="8.7449217"><ele>138.66666666666669</ele><time>2026-04-05T08:34:36.005Z</time></trkpt><trkpt lat="45.51308" lon="8.7448767"><ele>138.83333333333334</ele><time>2026-04-05T08:34:38.005Z</time></trkpt><trkpt lat="45.51316" lon="8.7448367"><ele>139.0</ele><time>2026-04-05T08:34:40.005Z</time></trkpt><trkpt lat="45.5132383" lon="8.7447833"><ele>139.4</ele><time>2026-04-05T08:34:42.005Z</time></trkpt><trkpt lat="45.513315" lon="8.7447233"><ele>139.8</ele><time>2026-04-05T08:34:44.005Z</time></trkpt><trkpt lat="45.5133883" lon="8.7446667"><ele>140.2</ele><time>2026-04-05T08:34:46.005Z</time></trkpt><trkpt lat="45.5134983" lon="8.7446017"><ele>140.6</ele><time>2026-04-05T08:34:48.005Z</time></trkpt><trkpt lat="45.5135633" lon="8.74461"><ele>141.0</ele><time>2026-04-05T08:34:49.005Z</time></trkpt><trkpt lat="45.5136583" lon="8.7446967"><ele>141.0</ele><time>2026-04-05T08:34:51.005Z</time></trkpt><trkpt lat="45.51372" lon="8.744805"><ele>141.0</ele><time>2026-04-05T08:34:53.005Z</time></trkpt><trkpt lat="45.5137683" lon="8.7449283"><ele>141.0</ele><time>2026-04-05T08:34:55.005Z</time></trkpt><trkpt lat="45.51382" lon="8.7450683"><ele>141.0</ele><time>2026-04-05T08:34:57.005Z</time></trkpt><trkpt lat="45.5138683" lon="8.7451767"><ele>141.0</ele><time>2026-04-05T08:34:59.005Z</time></trkpt><trkpt lat="45.5139" lon="8.7453017"><ele>140.4</ele><time>2026-04-05T08:35:01.005Z</time></trkpt><trkpt lat="45.5139483" lon="8.745425"><ele>139.8</ele><time>2026-04-05T08:35:03.005Z</time></trkpt><trkpt lat="45.5139983" lon="8.745555"><ele>139.20000000000002</ele><time>2026-04-05T08:35:05.005Z</time></trkpt><trkpt lat="45.514035" lon="8.7456683"><ele>138.6</ele><time>2026-04-05T08:35:07.005Z</time></trkpt><trkpt lat="45.5140667" lon="8.7457917"><ele>138.0</ele><time>2026-04-05T08:35:09.005Z</time></trkpt><trkpt lat="45.5141083" lon="8.7459083"><ele>138.0</ele><time>2026-04-05T08:35:11.005Z</time></trkpt><trkpt lat="45.5141467" lon="8.7460017"><ele>138.0</ele><time>2026-04-05T08:35:13.005Z</time></trkpt><trkpt lat="45.5141833" lon="8.746105"><ele>138.0</ele><time>2026-04-05T08:35:15.005Z</time></trkpt><trkpt lat="45.5142333" lon="8.746215"><ele>138.0</ele><time>2026-04-05T08:35:17.005Z</time></trkpt><trkpt lat="45.51428" lon="8.746345"><ele>138.0</ele><time>2026-04-05T08:35:19.005Z</time></trkpt><trkpt lat="45.51433" lon="8.746495"><ele>138.0</ele><time>2026-04-05T08:35:21.005Z</time></trkpt><trkpt lat="45.51437" lon="8.746615"><ele>138.0</ele><time>2026-04-05T08:35:23.005Z</time></trkpt><trkpt lat="45.5144117" lon="8.7467533"><ele>138.0</ele><time>2026-04-05T08:35:25.005Z</time></trkpt><trkpt lat="45.5144483" lon="8.7468733"><ele>138.0</ele><time>2026-04-05T08:35:27.005Z</time></trkpt><trkpt lat="45.51449" lon="8.7469533"><ele>138.0</ele><time>2026-04-05T08:35:28.005Z</time></trkpt><trkpt lat="45.5145233" lon="8.7470333"><ele>138.0</ele><time>2026-04-05T08:35:29.005Z</time></trkpt><trkpt lat="45.5146067" lon="8.7471467"><ele>138.0</ele><time>2026-04-05T08:35:31.005Z</time></trkpt><trkpt lat="45.51467" lon="8.74725"><ele>138.0</ele><time>2026-04-05T08:35:33.006Z</time></trkpt><trkpt lat="45.5147467" lon="8.7473467"><ele>138.0</ele><time>2026-04-05T08:35:35.005Z</time></trkpt><trkpt lat="45.514815" lon="8.74746"><ele>138.0</ele><time>2026-04-05T08:35:37.005Z</time></trkpt><trkpt lat="45.51489" lon="8.7475617"><ele>138.0</ele><time>2026-04-05T08:35:39.005Z</time></trkpt><trkpt lat="45.5149567" lon="8.7476733"><ele>138.8</ele><time>2026-04-05T08:35:41.005Z</time></trkpt><trkpt lat="45.5150117" lon="8.7477733"><ele>139.60000000000002</ele><time>2026-04-05T08:35:43.005Z</time></trkpt><trkpt lat="45.515075" lon="8.74788"><ele>140.39999999999998</ele><time>2026-04-05T08:35:45.005Z</time></trkpt><trkpt lat="45.5151283" lon="8.7479817"><ele>141.2</ele><time>2026-04-05T08:35:47.005Z</time></trkpt><trkpt lat="45.5151817" lon="8.7480683"><ele>142.0</ele><time>2026-04-05T08:35:49.005Z</time></trkpt><trkpt lat="45.5152533" lon="8.7481683"><ele>142.0</ele><time>2026-04-05T08:35:51.005Z</time></trkpt><trkpt lat="45.51532" lon="8.7482517"><ele>142.0</ele><time>2026-04-05T08:35:53.005Z</time></trkpt><trkpt lat="45.515395" lon="8.7483383"><ele>142.0</ele><time>2026-04-05T08:35:55.005Z</time></trkpt><trkpt lat="45.5154817" lon="8.7484433"><ele>142.0</ele><time>2026-04-05T08:35:57.005Z</time></trkpt><trkpt lat="45.5155583" lon="8.748535"><ele>142.0</ele><time>2026-04-05T08:35:59.005Z</time></trkpt><trkpt lat="45.5156333" lon="8.7486233"><ele>141.5</ele><time>2026-04-05T08:36:01.005Z</time></trkpt><trkpt lat="45.5157" lon="8.7487017"><ele>141.0</ele><time>2026-04-05T08:36:03.005Z</time></trkpt><trkpt lat="45.515775" lon="8.74877"><ele>140.5</ele><time>2026-04-05T08:36:05.006Z</time></trkpt><trkpt lat="45.5158483" lon="8.7488367"><ele>140.0</ele><time>2026-04-05T08:36:07.005Z</time></trkpt><trkpt lat="45.5159233" lon="8.7489233"><ele>139.5</ele><time>2026-04-05T08:36:09.005Z</time></trkpt><trkpt lat="45.5159917" lon="8.7490083"><ele>139.0</ele><time>2026-04-05T08:36:11.005Z</time></trkpt><trkpt lat="45.516065" lon="8.7490983"><ele>139.0</ele><time>2026-04-05T08:36:13.005Z</time></trkpt><trkpt lat="45.516155" lon="8.7491883"><ele>139.0</ele><time>2026-04-05T08:36:15.005Z</time></trkpt><trkpt lat="45.5162383" lon="8.74927"><ele>139.0</ele><time>2026-04-05T08:36:17.005Z</time></trkpt><trkpt lat="45.516305" lon="8.7493533"><ele>139.0</ele><time>2026-04-05T08:36:19.005Z</time></trkpt><trkpt lat="45.5163767" lon="8.7494333"><ele>139.0</ele><time>2026-04-05T08:36:21.005Z</time></trkpt><trkpt lat="45.51644" lon="8.749535"><ele>138.5</ele><time>2026-04-05T08:36:23.005Z</time></trkpt><trkpt lat="45.5165017" lon="8.7496317"><ele>138.0</ele><time>2026-04-05T08:36:25.006Z</time></trkpt><trkpt lat="45.5165617" lon="8.7497233"><ele>137.5</ele><time>2026-04-05T08:36:27.005Z</time></trkpt><trkpt lat="45.5166217" lon="8.74981"><ele>137.0</ele><time>2026-04-05T08:36:29.005Z</time></trkpt><trkpt lat="45.5166583" lon="8.749915"><ele>136.5</ele><time>2026-04-05T08:36:31.005Z</time></trkpt><trkpt lat="45.5166683" lon="8.7500417"><ele>136.0</ele><time>2026-04-05T08:36:33.005Z</time></trkpt><trkpt lat="45.5166483" lon="8.750175"><ele>136.16666666666669</ele><time>2026-04-05T08:36:35.005Z</time></trkpt><trkpt lat="45.51662" lon="8.7502967"><ele>136.33333333333334</ele><time>2026-04-05T08:36:37.005Z</time></trkpt><trkpt lat="45.51662" lon="8.75041"><ele>136.5</ele><time>2026-04-05T08:36:39.005Z</time></trkpt><trkpt lat="45.5166083" lon="8.750515"><ele>136.66666666666666</ele><time>2026-04-05T08:36:41.005Z</time></trkpt><trkpt lat="45.5166167" lon="8.750625"><ele>136.83333333333331</ele><time>2026-04-05T08:36:43.005Z</time></trkpt><trkpt lat="45.5166333" lon="8.75072"><ele>137.0</ele><time>2026-04-05T08:36:45.006Z</time></trkpt><trkpt lat="45.5166583" lon="8.750805"><ele>137.0</ele><time>2026-04-05T08:36:47.005Z</time></trkpt><trkpt lat="45.5167167" lon="8.75086"><ele>137.0</ele><time>2026-04-05T08:36:49.005Z</time></trkpt><trkpt lat="45.516795" lon="8.75089"><ele>137.0</ele><time>2026-04-05T08:36:52.005Z</time></trkpt><trkpt lat="45.5168733" lon="8.75096"><ele>137.0</ele><time>2026-04-05T08:36:55.006Z</time></trkpt><trkpt lat="45.5169517" lon="8.7510367"><ele>137.0</ele><time>2026-04-05T08:36:57.005Z</time></trkpt><trkpt lat="45.5170117" lon="8.7511517"><ele>137.0</ele><time>2026-04-05T08:36:59.005Z</time></trkpt><trkpt lat="45.5170883" lon="8.7512617"><ele>136.79999999999998</ele><time>2026-04-05T08:37:01.005Z</time></trkpt><trkpt lat="45.517175" lon="8.7513917"><ele>136.6</ele><time>2026-04-05T08:37:03.005Z</time></trkpt><trkpt lat="45.517225" lon="8.751455"><ele>136.39999999999998</ele><time>2026-04-05T08:37:04.006Z</time></trkpt><trkpt lat="45.5172917" lon="8.75155"><ele>136.2</ele><time>2026-04-05T08:37:06.005Z</time></trkpt><trkpt lat="45.5173683" lon="8.75165"><ele>136.0</ele><time>2026-04-05T08:37:08.005Z</time></trkpt><trkpt lat="45.51744" lon="8.75175"><ele>136.0</ele><time>2026-04-05T08:37:10.005Z</time></trkpt><trkpt lat="45.5175183" lon="8.75184"><ele>136.0</ele><time>2026-04-05T08:37:12.005Z</time></trkpt><trkpt lat="45.5176033" lon="8.751945"><ele>136.0</ele><time>2026-04-05T08:37:14.005Z</time></trkpt><trkpt lat="45.517685" lon="8.75204"><ele>136.0</ele><time>2026-04-05T08:37:16.005Z</time></trkpt><trkpt lat="45.5177617" lon="8.7521467"><ele>136.0</ele><time>2026-04-05T08:37:18.005Z</time></trkpt><trkpt lat="45.5178267" lon="8.7522433"><ele>136.0</ele><time>2026-04-05T08:37:20.005Z</time></trkpt><trkpt lat="45.5178917" lon="8.75232"><ele>136.0</ele><time>2026-04-05T08:37:22.004Z</time></trkpt><trkpt lat="45.51798" lon="8.7524"><ele>136.0</ele><time>2026-04-05T08:37:24.004Z</time></trkpt><trkpt lat="45.5180533" lon="8.75249"><ele>136.0</ele><time>2026-04-05T08:37:26.004Z</time></trkpt><trkpt lat="45.5181167" lon="8.7525733"><ele>136.0</ele><time>2026-04-05T08:37:28.004Z</time></trkpt><trkpt lat="45.518175" lon="8.7526617"><ele>136.2</ele><time>2026-04-05T08:37:30.004Z</time></trkpt><trkpt lat="45.51825" lon="8.7527583"><ele>136.39999999999998</ele><time>2026-04-05T08:37:32.004Z</time></trkpt><trkpt lat="45.5183133" lon="8.752855"><ele>136.6</ele><time>2026-04-05T08:37:34.004Z</time></trkpt><trkpt lat="45.5183967" lon="8.7529567"><ele>136.79999999999998</ele><time>2026-04-05T08:37:36.004Z</time></trkpt><trkpt lat="45.5184817" lon="8.75306"><ele>137.0</ele><time>2026-04-05T08:37:38.004Z</time></trkpt><trkpt lat="45.5185633" lon="8.7531417"><ele>137.0</ele><time>2026-04-05T08:37:40.004Z</time></trkpt><trkpt lat="45.5186317" lon="8.753245"><ele>137.0</ele><time>2026-04-05T08:37:42.004Z</time></trkpt><trkpt lat="45.5186983" lon="8.753335"><ele>137.0</ele><time>2026-04-05T08:37:44.004Z</time></trkpt><trkpt lat="45.5187617" lon="8.7534283"><ele>137.0</ele><time>2026-04-05T08:37:46.004Z</time></trkpt><trkpt lat="45.5188383" lon="8.7535283"><ele>137.0</ele><time>2026-04-05T08:37:48.004Z</time></trkpt><trkpt lat="45.5189" lon="8.7536283"><ele>136.79999999999998</ele><time>2026-04-05T08:37:50.004Z</time></trkpt><trkpt lat="45.5189683" lon="8.753725"><ele>136.6</ele><time>2026-04-05T08:37:52.004Z</time></trkpt><trkpt lat="45.51905" lon="8.7538183"><ele>136.39999999999998</ele><time>2026-04-05T08:37:54.004Z</time></trkpt><trkpt lat="45.5191233" lon="8.7539033"><ele>136.2</ele><time>2026-04-05T08:37:56.005Z</time></trkpt><trkpt lat="45.5191983" lon="8.7539867"><ele>136.0</ele><time>2026-04-05T08:37:58.004Z</time></trkpt><trkpt lat="45.51927" lon="8.754085"><ele>136.0</ele><time>2026-04-05T08:38:00.004Z</time></trkpt><trkpt lat="45.5193533" lon="8.7541767"><ele>136.0</ele><time>2026-04-05T08:38:02.004Z</time></trkpt><trkpt lat="45.5194283" lon="8.7542867"><ele>136.0</ele><time>2026-04-05T08:38:04.004Z</time></trkpt><trkpt lat="45.51949" lon="8.7543883"><ele>136.0</ele><time>2026-04-05T08:38:06.005Z</time></trkpt><trkpt lat="45.5195617" lon="8.7544983"><ele>136.0</ele><time>2026-04-05T08:38:08.004Z</time></trkpt><trkpt lat="45.5196433" lon="8.754605"><ele>136.0</ele><time>2026-04-05T08:38:10.004Z</time></trkpt><trkpt lat="45.5197217" lon="8.7547133"><ele>136.0</ele><time>2026-04-05T08:38:12.004Z</time></trkpt><trkpt lat="45.5197933" lon="8.754825"><ele>136.0</ele><time>2026-04-05T08:38:14.004Z</time></trkpt><trkpt lat="45.5198733" lon="8.7549317"><ele>136.0</ele><time>2026-04-05T08:38:16.004Z</time></trkpt><trkpt lat="45.519955" lon="8.75504"><ele>136.0</ele><time>2026-04-05T08:38:18.004Z</time></trkpt><trkpt lat="45.5200317" lon="8.755135"><ele>136.4</ele><time>2026-04-05T08:38:20.004Z</time></trkpt><trkpt lat="45.52012" lon="8.7552283"><ele>136.8</ele><time>2026-04-05T08:38:22.004Z</time></trkpt><trkpt lat="45.5202017" lon="8.7553367"><ele>137.20000000000002</ele><time>2026-04-05T08:38:24.004Z</time></trkpt><trkpt lat="45.52029" lon="8.7554433"><ele>137.6</ele><time>2026-04-05T08:38:26.004Z</time></trkpt><trkpt lat="45.52037" lon="8.75555"><ele>138.0</ele><time>2026-04-05T08:38:28.004Z</time></trkpt><trkpt lat="45.5204567" lon="8.75564"><ele>138.0</ele><time>2026-04-05T08:38:30.004Z</time></trkpt><trkpt lat="45.5205367" lon="8.755735"><ele>138.0</ele><time>2026-04-05T08:38:32.004Z</time></trkpt><trkpt lat="45.5206133" lon="8.75583"><ele>138.0</ele><time>2026-04-05T08:38:34.004Z</time></trkpt><trkpt lat="45.5206983" lon="8.7559167"><ele>138.0</ele><time>2026-04-05T08:38:36.004Z</time></trkpt><trkpt lat="45.52078" lon="8.756025"><ele>138.0</ele><time>2026-04-05T08:38:38.004Z</time></trkpt><trkpt lat="45.52087" lon="8.7561383"><ele>137.8</ele><time>2026-04-05T08:38:40.004Z</time></trkpt><trkpt lat="45.5209467" lon="8.7562433"><ele>137.60000000000002</ele><time>2026-04-05T08:38:42.004Z</time></trkpt><trkpt lat="45.5210033" lon="8.7563667"><ele>137.39999999999998</ele><time>2026-04-05T08:38:44.004Z</time></trkpt><trkpt lat="45.5210483" lon="8.7565183"><ele>137.2</ele><time>2026-04-05T08:38:46.005Z</time></trkpt><trkpt lat="45.5210767" lon="8.7566567"><ele>137.0</ele><time>2026-04-05T08:38:48.004Z</time></trkpt><trkpt lat="45.5210883" lon="8.7568133"><ele>137.0</ele><time>2026-04-05T08:38:50.004Z</time></trkpt><trkpt lat="45.5210267" lon="8.756945"><ele>137.0</ele><time>2026-04-05T08:38:52.004Z</time></trkpt><trkpt lat="45.5209467" lon="8.7570567"><ele>137.0</ele><time>2026-04-05T08:38:54.004Z</time></trkpt><trkpt lat="45.5208683" lon="8.75716"><ele>137.0</ele><time>2026-04-05T08:38:56.004Z</time></trkpt><trkpt lat="45.520815" lon="8.75724"><ele>137.0</ele><time>2026-04-05T08:38:58.004Z</time></trkpt><trkpt lat="45.52075" lon="8.7572417"><ele>137.0</ele><time>2026-04-05T08:38:59.005Z</time></trkpt><trkpt lat="45.520645" lon="8.7572533"><ele>137.0</ele><time>2026-04-05T08:39:01.004Z</time></trkpt><trkpt lat="45.5205283" lon="8.7573417"><ele>137.0</ele><time>2026-04-05T08:39:03.004Z</time></trkpt><trkpt lat="45.520445" lon="8.75745"><ele>137.0</ele><time>2026-04-05T08:39:05.004Z</time></trkpt><trkpt lat="45.52037" lon="8.7575617"><ele>136.79999999999998</ele><time>2026-04-05T08:39:07.004Z</time></trkpt><trkpt lat="45.5203017" lon="8.7576783"><ele>136.6</ele><time>2026-04-05T08:39:09.004Z</time></trkpt><trkpt lat="45.520235" lon="8.7578083"><ele>136.39999999999998</ele><time>2026-04-05T08:39:11.004Z</time></trkpt><trkpt lat="45.5201767" lon="8.7579367"><ele>136.2</ele><time>2026-04-05T08:39:13.004Z</time></trkpt><trkpt lat="45.520115" lon="8.758045"><ele>136.0</ele><time>2026-04-05T08:39:15.004Z</time></trkpt><trkpt lat="45.5200533" lon="8.7581533"><ele>136.4</ele><time>2026-04-05T08:39:17.004Z</time></trkpt><trkpt lat="45.519975" lon="8.7582217"><ele>136.8</ele><time>2026-04-05T08:39:19.005Z</time></trkpt><trkpt lat="45.5198867" lon="8.7581567"><ele>137.20000000000002</ele><time>2026-04-05T08:39:21.004Z</time></trkpt><trkpt lat="45.5198033" lon="8.75805"><ele>137.6</ele><time>2026-04-05T08:39:23.004Z</time></trkpt><trkpt lat="45.5197233" lon="8.757945"><ele>138.0</ele><time>2026-04-05T08:39:25.004Z</time></trkpt><trkpt lat="45.5196383" lon="8.7578383"><ele>138.25</ele><time>2026-04-05T08:39:27.004Z</time></trkpt><trkpt lat="45.5195517" lon="8.7577267"><ele>138.5</ele><time>2026-04-05T08:39:29.004Z</time></trkpt><trkpt lat="45.5194733" lon="8.7575967"><ele>138.75</ele><time>2026-04-05T08:39:31.004Z</time></trkpt><trkpt lat="45.5194083" lon="8.7574733"><ele>139.0</ele><time>2026-04-05T08:39:33.004Z</time></trkpt><trkpt lat="45.51933" lon="8.7573583"><ele>139.0</ele><time>2026-04-05T08:39:35.004Z</time></trkpt><trkpt lat="45.5192567" lon="8.75726"><ele>139.0</ele><time>2026-04-05T08:39:37.004Z</time></trkpt><trkpt lat="45.51919" lon="8.7571567"><ele>139.0</ele><time>2026-04-05T08:39:39.004Z</time></trkpt><trkpt lat="45.51911" lon="8.7570417"><ele>139.0</ele><time>2026-04-05T08:39:41.004Z</time></trkpt><trkpt lat="45.5190283" lon="8.7569217"><ele>139.0</ele><time>2026-04-05T08:39:43.004Z</time></trkpt><trkpt lat="45.518955" lon="8.7568267"><ele>139.0</ele><time>2026-04-05T08:39:45.004Z</time></trkpt><trkpt lat="45.5188733" lon="8.756865"><ele>139.0</ele><time>2026-04-05T08:39:47.004Z</time></trkpt><trkpt lat="45.5188183" lon="8.7569867"><ele>139.0</ele><time>2026-04-05T08:39:49.004Z</time></trkpt><trkpt lat="45.518775" lon="8.7571367"><ele>139.0</ele><time>2026-04-05T08:39:51.004Z</time></trkpt><trkpt lat="45.51873" lon="8.7572583"><ele>139.0</ele><time>2026-04-05T08:39:53.004Z</time></trkpt><trkpt lat="45.5186817" lon="8.7573617"><ele>140.4</ele><time>2026-04-05T08:39:55.004Z</time></trkpt><trkpt lat="45.5186233" lon="8.757445"><ele>141.8</ele><time>2026-04-05T08:39:57.004Z</time></trkpt><trkpt lat="45.5185633" lon="8.7575517"><ele>143.2</ele><time>2026-04-05T08:39:59.005Z</time></trkpt><trkpt lat="45.5185083" lon="8.75766"><ele>144.6</ele><time>2026-04-05T08:40:01.004Z</time></trkpt><trkpt lat="45.51845" lon="8.7577667"><ele>146.0</ele><time>2026-04-05T08:40:03.004Z</time></trkpt><trkpt lat="45.51839" lon="8.757895"><ele>146.16666666666666</ele><time>2026-04-05T08:40:05.004Z</time></trkpt><trkpt lat="45.5183217" lon="8.75802"><ele>146.33333333333331</ele><time>2026-04-05T08:40:07.005Z</time></trkpt><trkpt lat="45.51828" lon="8.7580883"><ele>146.5</ele><time>2026-04-05T08:40:08.004Z</time></trkpt><trkpt lat="45.5182317" lon="8.75815"><ele>146.66666666666666</ele><time>2026-04-05T08:40:09.004Z</time></trkpt><trkpt lat="45.5181517" lon="8.758225"><ele>146.83333333333334</ele><time>2026-04-05T08:40:11.004Z</time></trkpt><trkpt lat="45.518085" lon="8.7583"><ele>147.0</ele><time>2026-04-05T08:40:13.004Z</time></trkpt><trkpt lat="45.51804" lon="8.7583967"><ele>147.0</ele><time>2026-04-05T08:40:15.004Z</time></trkpt><trkpt lat="45.518015" lon="8.7585183"><ele>147.0</ele><time>2026-04-05T08:40:17.004Z</time></trkpt><trkpt lat="45.5180117" lon="8.7586683"><ele>147.0</ele><time>2026-04-05T08:40:19.004Z</time></trkpt><trkpt lat="45.5180067" lon="8.7588317"><ele>147.0</ele><time>2026-04-05T08:40:21.004Z</time></trkpt><trkpt lat="45.5179983" lon="8.758985"><ele>147.0</ele><time>2026-04-05T08:40:23.004Z</time></trkpt><trkpt lat="45.5179583" lon="8.7591117"><ele>147.0</ele><time>2026-04-05T08:40:25.004Z</time></trkpt><trkpt lat="45.5179117" lon="8.7592017"><ele>147.0</ele><time>2026-04-05T08:40:27.004Z</time></trkpt><trkpt lat="45.51785" lon="8.7593033"><ele>147.0</ele><time>2026-04-05T08:40:29.004Z</time></trkpt><trkpt lat="45.5177783" lon="8.7593967"><ele>147.0</ele><time>2026-04-05T08:40:31.004Z</time></trkpt><trkpt lat="45.5177283" lon="8.7594867"><ele>147.0</ele><time>2026-04-05T08:40:33.004Z</time></trkpt><trkpt lat="45.5176667" lon="8.75958"><ele>147.0</ele><time>2026-04-05T08:40:35.004Z</time></trkpt><trkpt lat="45.5175883" lon="8.7596717"><ele>147.2</ele><time>2026-04-05T08:40:37.004Z</time></trkpt><trkpt lat="45.51751" lon="8.7597717"><ele>147.39999999999998</ele><time>2026-04-05T08:40:39.005Z</time></trkpt><trkpt lat="45.5174433" lon="8.7598617"><ele>147.60000000000002</ele><time>2026-04-05T08:40:41.004Z</time></trkpt><trkpt lat="45.517375" lon="8.7599067"><ele>147.8</ele><time>2026-04-05T08:40:43.004Z</time></trkpt><trkpt lat="45.51729" lon="8.75995"><ele>148.0</ele><time>2026-04-05T08:40:45.004Z</time></trkpt><trkpt lat="45.51719" lon="8.7600033"><ele>148.0</ele><time>2026-04-05T08:40:47.004Z</time></trkpt><trkpt lat="45.51713" lon="8.7600367"><ele>148.0</ele><time>2026-04-05T08:40:48.004Z</time></trkpt><trkpt lat="45.5170633" lon="8.760075"><ele>148.0</ele><time>2026-04-05T08:40:49.004Z</time></trkpt><trkpt lat="45.5170083" lon="8.7601317"><ele>148.0</ele><time>2026-04-05T08:40:50.004Z</time></trkpt><trkpt lat="45.5169267" lon="8.7602383"><ele>148.0</ele><time>2026-04-05T08:40:52.004Z</time></trkpt><trkpt lat="45.51687" lon="8.7603433"><ele>148.0</ele><time>2026-04-05T08:40:54.005Z</time></trkpt><trkpt lat="45.5168267" lon="8.7604283"><ele>147.71428571428572</ele><time>2026-04-05T08:40:56.004Z</time></trkpt><trkpt lat="45.5168033" lon="8.76054"><ele>147.42857142857142</ele><time>2026-04-05T08:40:58.004Z</time></trkpt><trkpt lat="45.51677" lon="8.7606367"><ele>147.14285714285714</ele><time>2026-04-05T08:41:00.004Z</time></trkpt><trkpt lat="45.5167217" lon="8.76072"><ele>146.85714285714286</ele><time>2026-04-05T08:41:02.005Z</time></trkpt><trkpt lat="45.5167083" lon="8.7608167"><ele>146.57142857142858</ele><time>2026-04-05T08:41:04.004Z</time></trkpt><trkpt lat="45.516715" lon="8.7609083"><ele>146.28571428571428</ele><time>2026-04-05T08:41:06.004Z</time></trkpt><trkpt lat="45.5166517" lon="8.7608867"><ele>146.0</ele><time>2026-04-05T08:41:34.004Z</time></trkpt><trkpt lat="45.51656" lon="8.760945"><ele>146.0</ele><time>2026-04-05T08:41:37.004Z</time></trkpt><trkpt lat="45.5164917" lon="8.7609933"><ele>146.0</ele><time>2026-04-05T08:41:39.004Z</time></trkpt><trkpt lat="45.516425" lon="8.7610633"><ele>146.0</ele><time>2026-04-05T08:41:41.004Z</time></trkpt><trkpt lat="45.5163517" lon="8.7611317"><ele>146.0</ele><time>2026-04-05T08:41:43.004Z</time></trkpt><trkpt lat="45.5162583" lon="8.7611917"><ele>146.0</ele><time>2026-04-05T08:41:45.005Z</time></trkpt><trkpt lat="45.51618" lon="8.7612717"><ele>146.0</ele><time>2026-04-05T08:41:47.004Z</time></trkpt><trkpt lat="45.5161017" lon="8.76134"><ele>145.66666666666666</ele><time>2026-04-05T08:41:49.004Z</time></trkpt><trkpt lat="45.516025" lon="8.7614167"><ele>145.33333333333331</ele><time>2026-04-05T08:41:51.004Z</time></trkpt><trkpt lat="45.5159567" lon="8.7614967"><ele>145.0</ele><time>2026-04-05T08:41:53.004Z</time></trkpt><trkpt lat="45.5158983" lon="8.7615733"><ele>144.66666666666666</ele><time>2026-04-05T08:41:55.004Z</time></trkpt><trkpt lat="45.515845" lon="8.7616517"><ele>144.33333333333334</ele><time>2026-04-05T08:41:57.004Z</time></trkpt><trkpt lat="45.515795" lon="8.7617433"><ele>144.0</ele><time>2026-04-05T08:41:59.004Z</time></trkpt><trkpt lat="45.5157267" lon="8.7618167"><ele>144.16666666666666</ele><time>2026-04-05T08:42:01.004Z</time></trkpt><trkpt lat="45.51566" lon="8.7618767"><ele>144.33333333333334</ele><time>2026-04-05T08:42:03.004Z</time></trkpt><trkpt lat="45.5156017" lon="8.7619367"><ele>144.5</ele><time>2026-04-05T08:42:05.004Z</time></trkpt><trkpt lat="45.5155367" lon="8.76201"><ele>144.66666666666669</ele><time>2026-04-05T08:42:07.004Z</time></trkpt><trkpt lat="45.515465" lon="8.7620933"><ele>144.83333333333334</ele><time>2026-04-05T08:42:09.004Z</time></trkpt><trkpt lat="45.5153983" lon="8.76219"><ele>145.0</ele><time>2026-04-05T08:42:11.004Z</time></trkpt><trkpt lat="45.5153383" lon="8.762295"><ele>144.5</ele><time>2026-04-05T08:42:13.004Z</time></trkpt><trkpt lat="45.515295" lon="8.7623983"><ele>144.0</ele><time>2026-04-05T08:42:15.004Z</time></trkpt><trkpt lat="45.5152683" lon="8.7624983"><ele>143.5</ele><time>2026-04-05T08:42:17.004Z</time></trkpt><trkpt lat="45.5152167" lon="8.7625633"><ele>143.0</ele><time>2026-04-05T08:42:19.004Z</time></trkpt><trkpt lat="45.5151333" lon="8.7625967"><ele>142.5</ele><time>2026-04-05T08:42:21.004Z</time></trkpt><trkpt lat="45.515035" lon="8.7626233"><ele>142.0</ele><time>2026-04-05T08:42:23.004Z</time></trkpt><trkpt lat="45.5149483" lon="8.7626333"><ele>142.0</ele><time>2026-04-05T08:42:25.004Z</time></trkpt><trkpt lat="45.51487" lon="8.7626333"><ele>142.0</ele><time>2026-04-05T08:42:27.004Z</time></trkpt><trkpt lat="45.5147967" lon="8.7626233"><ele>142.0</ele><time>2026-04-05T08:42:29.004Z</time></trkpt><trkpt lat="45.5147217" lon="8.7626317"><ele>142.0</ele><time>2026-04-05T08:42:31.004Z</time></trkpt><trkpt lat="45.5146333" lon="8.7626383"><ele>142.0</ele><time>2026-04-05T08:42:33.004Z</time></trkpt><trkpt lat="45.5145517" lon="8.76264"><ele>142.0</ele><time>2026-04-05T08:42:35.004Z</time></trkpt><trkpt lat="45.5144683" lon="8.7626417"><ele>142.0</ele><time>2026-04-05T08:42:37.004Z</time></trkpt><trkpt lat="45.514395" lon="8.7626617"><ele>142.0</ele><time>2026-04-05T08:42:39.004Z</time></trkpt><trkpt lat="45.5143017" lon="8.76266"><ele>142.0</ele><time>2026-04-05T08:42:41.004Z</time></trkpt><trkpt lat="45.5142183" lon="8.762665"><ele>142.0</ele><time>2026-04-05T08:42:43.004Z</time></trkpt><trkpt lat="45.5141133" lon="8.7626767"><ele>142.0</ele><time>2026-04-05T08:42:45.004Z</time></trkpt><trkpt lat="45.5140317" lon="8.7626833"><ele>142.0</ele><time>2026-04-05T08:42:47.004Z</time></trkpt><trkpt lat="45.51395" lon="8.7626817"><ele>141.83333333333334</ele><time>2026-04-05T08:42:49.004Z</time></trkpt><trkpt lat="45.513885" lon="8.76273"><ele>141.66666666666669</ele><time>2026-04-05T08:42:51.004Z</time></trkpt><trkpt lat="45.5138433" lon="8.762835"><ele>141.5</ele><time>2026-04-05T08:42:53.004Z</time></trkpt><trkpt lat="45.5138267" lon="8.7629583"><ele>141.33333333333334</ele><time>2026-04-05T08:42:55.005Z</time></trkpt><trkpt lat="45.5137967" lon="8.7630833"><ele>141.16666666666666</ele><time>2026-04-05T08:42:57.004Z</time></trkpt><trkpt lat="45.5137417" lon="8.7631967"><ele>141.0</ele><time>2026-04-05T08:42:59.004Z</time></trkpt><trkpt lat="45.5136933" lon="8.7633067"><ele>140.66666666666666</ele><time>2026-04-05T08:43:01.004Z</time></trkpt><trkpt lat="45.513635" lon="8.7634167"><ele>140.33333333333334</ele><time>2026-04-05T08:43:03.004Z</time></trkpt><trkpt lat="45.51357" lon="8.7634833"><ele>140.0</ele><time>2026-04-05T08:43:05.004Z</time></trkpt><trkpt lat="45.5135267" lon="8.76358"><ele>139.66666666666669</ele><time>2026-04-05T08:43:07.004Z</time></trkpt><trkpt lat="45.5134883" lon="8.7636783"><ele>139.33333333333334</ele><time>2026-04-05T08:43:09.004Z</time></trkpt><trkpt lat="45.5134417" lon="8.7637867"><ele>139.0</ele><time>2026-04-05T08:43:11.004Z</time></trkpt><trkpt lat="45.51341" lon="8.7639017"><ele>139.0</ele><time>2026-04-05T08:43:13.004Z</time></trkpt><trkpt lat="45.5133867" lon="8.7640167"><ele>139.0</ele><time>2026-04-05T08:43:15.004Z</time></trkpt><trkpt lat="45.5133517" lon="8.7641383"><ele>139.0</ele><time>2026-04-05T08:43:17.004Z</time></trkpt><trkpt lat="45.513305" lon="8.7642283"><ele>139.0</ele><time>2026-04-05T08:43:19.004Z</time></trkpt><trkpt lat="45.513245" lon="8.7642917"><ele>139.0</ele><time>2026-04-05T08:43:21.004Z</time></trkpt><trkpt lat="45.513185" lon="8.7643633"><ele>139.0</ele><time>2026-04-05T08:43:23.004Z</time></trkpt><trkpt lat="45.5131367" lon="8.76445"><ele>139.0</ele><time>2026-04-05T08:43:25.004Z</time></trkpt><trkpt lat="45.5130867" lon="8.76453"><ele>139.0</ele><time>2026-04-05T08:43:27.005Z</time></trkpt><trkpt lat="45.51303" lon="8.7646033"><ele>139.0</ele><time>2026-04-05T08:43:29.004Z</time></trkpt><trkpt lat="45.5129667" lon="8.7646933"><ele>139.0</ele><time>2026-04-05T08:43:31.005Z</time></trkpt><trkpt lat="45.5128967" lon="8.76479"><ele>139.0</ele><time>2026-04-05T08:43:33.004Z</time></trkpt><trkpt lat="45.5128317" lon="8.764865"><ele>139.0</ele><time>2026-04-05T08:43:35.004Z</time></trkpt><trkpt lat="45.512745" lon="8.7649217"><ele>139.0</ele><time>2026-04-05T08:43:38.004Z</time></trkpt><trkpt lat="45.5126933" lon="8.7649967"><ele>139.0</ele><time>2026-04-05T08:43:40.004Z</time></trkpt><trkpt lat="45.5126417" lon="8.765095"><ele>139.0</ele><time>2026-04-05T08:43:43.004Z</time></trkpt><trkpt lat="45.5125383" lon="8.7653"><ele>139.0</ele><time>2026-04-05T08:44:03.004Z</time></trkpt><trkpt lat="45.5125183" lon="8.765405"><ele>139.0</ele><time>2026-04-05T08:44:06.004Z</time></trkpt><trkpt lat="45.5125483" lon="8.7655283"><ele>138.85714285714286</ele><time>2026-04-05T08:44:09.004Z</time></trkpt><trkpt lat="45.512585" lon="8.7656083"><ele>138.71428571428572</ele><time>2026-04-05T08:44:11.004Z</time></trkpt><trkpt lat="45.5126283" lon="8.76568"><ele>138.57142857142858</ele><time>2026-04-05T08:44:13.004Z</time></trkpt><trkpt lat="45.51267" lon="8.765755"><ele>138.42857142857144</ele><time>2026-04-05T08:44:15.004Z</time></trkpt><trkpt lat="45.512705" lon="8.76583"><ele>138.2857142857143</ele><time>2026-04-05T08:44:17.004Z</time></trkpt><trkpt lat="45.512745" lon="8.76591"><ele>138.14285714285714</ele><time>2026-04-05T08:44:19.004Z</time></trkpt><trkpt lat="45.51281" lon="8.7659883"><ele>138.0</ele><time>2026-04-05T08:44:21.004Z</time></trkpt><trkpt lat="45.512865" lon="8.76606"><ele>137.83333333333334</ele><time>2026-04-05T08:44:23.004Z</time></trkpt><trkpt lat="45.5129267" lon="8.7661433"><ele>137.66666666666666</ele><time>2026-04-05T08:44:25.004Z</time></trkpt><trkpt lat="45.51298" lon="8.7662233"><ele>137.5</ele><time>2026-04-05T08:44:27.005Z</time></trkpt><trkpt lat="45.5130367" lon="8.7663017"><ele>137.33333333333331</ele><time>2026-04-05T08:44:29.004Z</time></trkpt><trkpt lat="45.51309" lon="8.76638"><ele>137.16666666666666</ele><time>2026-04-05T08:44:31.004Z</time></trkpt><trkpt lat="45.5131467" lon="8.7664417"><ele>137.0</ele><time>2026-04-05T08:44:33.004Z</time></trkpt><trkpt lat="45.5132067" lon="8.7665067"><ele>137.0</ele><time>2026-04-05T08:44:35.003Z</time></trkpt><trkpt lat="45.513265" lon="8.766585"><ele>137.0</ele><time>2026-04-05T08:44:37.003Z</time></trkpt><trkpt lat="45.5133117" lon="8.766665"><ele>137.0</ele><time>2026-04-05T08:44:39.003Z</time></trkpt><trkpt lat="45.5133717" lon="8.76672"><ele>137.0</ele><time>2026-04-05T08:44:41.003Z</time></trkpt><trkpt lat="45.5134367" lon="8.76678"><ele>137.0</ele><time>2026-04-05T08:44:43.003Z</time></trkpt><trkpt lat="45.51351" lon="8.7668283"><ele>137.0</ele><time>2026-04-05T08:44:45.003Z</time></trkpt><trkpt lat="45.5135783" lon="8.7668933"><ele>136.5</ele><time>2026-04-05T08:44:47.003Z</time></trkpt><trkpt lat="45.5136567" lon="8.766955"><ele>136.0</ele><time>2026-04-05T08:44:49.003Z</time></trkpt><trkpt lat="45.5137267" lon="8.767"><ele>135.5</ele><time>2026-04-05T08:44:51.003Z</time></trkpt><trkpt lat="45.5137867" lon="8.7670567"><ele>135.0</ele><time>2026-04-05T08:44:53.003Z</time></trkpt><trkpt lat="45.51385" lon="8.767105"><ele>134.5</ele><time>2026-04-05T08:44:55.003Z</time></trkpt><trkpt lat="45.513925" lon="8.7671567"><ele>134.0</ele><time>2026-04-05T08:44:57.003Z</time></trkpt><trkpt lat="45.5139967" lon="8.7672183"><ele>135.16666666666666</ele><time>2026-04-05T08:44:59.003Z</time></trkpt><trkpt lat="45.5140633" lon="8.7672883"><ele>136.33333333333331</ele><time>2026-04-05T08:45:01.003Z</time></trkpt><trkpt lat="45.5141417" lon="8.7673533"><ele>137.5</ele><time>2026-04-05T08:45:03.003Z</time></trkpt><trkpt lat="45.5142217" lon="8.7674167"><ele>138.66666666666666</ele><time>2026-04-05T08:45:05.003Z</time></trkpt><trkpt lat="45.5143067" lon="8.7674817"><ele>139.83333333333334</ele><time>2026-04-05T08:45:07.003Z</time></trkpt><trkpt lat="45.5143833" lon="8.767535"><ele>141.0</ele><time>2026-04-05T08:45:09.003Z</time></trkpt><trkpt lat="45.51446" lon="8.767585"><ele>141.0</ele><time>2026-04-05T08:45:11.003Z</time></trkpt><trkpt lat="45.5145333" lon="8.7676183"><ele>141.0</ele><time>2026-04-05T08:45:13.003Z</time></trkpt><trkpt lat="45.5146083" lon="8.76768"><ele>141.0</ele><time>2026-04-05T08:45:15.003Z</time></trkpt><trkpt lat="45.5146833" lon="8.7677267"><ele>141.0</ele><time>2026-04-05T08:45:17.003Z</time></trkpt><trkpt lat="45.514765" lon="8.76778"><ele>141.0</ele><time>2026-04-05T08:45:19.003Z</time></trkpt><trkpt lat="45.514845" lon="8.7678317"><ele>141.0</ele><time>2026-04-05T08:45:21.003Z</time></trkpt><trkpt lat="45.5149117" lon="8.7678717"><ele>141.6</ele><time>2026-04-05T08:45:23.003Z</time></trkpt><trkpt lat="45.5149883" lon="8.76794"><ele>142.2</ele><time>2026-04-05T08:45:25.003Z</time></trkpt><trkpt lat="45.515045" lon="8.76803"><ele>142.8</ele><time>2026-04-05T08:45:27.003Z</time></trkpt><trkpt lat="45.5150983" lon="8.7681317"><ele>143.4</ele><time>2026-04-05T08:45:29.003Z</time></trkpt><trkpt lat="45.5151533" lon="8.7682433"><ele>144.0</ele><time>2026-04-05T08:45:31.003Z</time></trkpt><trkpt lat="45.5152217" lon="8.7683333"><ele>144.0</ele><time>2026-04-05T08:45:33.003Z</time></trkpt><trkpt lat="45.5152783" lon="8.768435"><ele>144.0</ele><time>2026-04-05T08:45:35.003Z</time></trkpt><trkpt lat="45.5153333" lon="8.76854"><ele>144.0</ele><time>2026-04-05T08:45:37.003Z</time></trkpt><trkpt lat="45.515365" lon="8.7686317"><ele>144.0</ele><time>2026-04-05T08:45:39.003Z</time></trkpt><trkpt lat="45.5154" lon="8.7687433"><ele>144.0</ele><time>2026-04-05T08:45:41.003Z</time></trkpt><trkpt lat="45.5154167" lon="8.76883"><ele>144.0</ele><time>2026-04-05T08:45:43.004Z</time></trkpt><trkpt lat="45.51544" lon="8.7689567"><ele>143.16666666666666</ele><time>2026-04-05T08:45:46.003Z</time></trkpt><trkpt lat="45.51546" lon="8.7690533"><ele>142.33333333333334</ele><time>2026-04-05T08:45:48.003Z</time></trkpt><trkpt lat="45.5155117" lon="8.7691517"><ele>141.5</ele><time>2026-04-05T08:45:51.003Z</time></trkpt><trkpt lat="45.5155833" lon="8.7691617"><ele>140.66666666666669</ele><time>2026-04-05T08:45:54.003Z</time></trkpt><trkpt lat="45.5156817" lon="8.769145"><ele>139.83333333333334</ele><time>2026-04-05T08:45:57.003Z</time></trkpt><trkpt lat="45.5157617" lon="8.76912"><ele>139.0</ele><time>2026-04-05T08:45:59.003Z</time></trkpt><trkpt lat="45.5158317" lon="8.7690833"><ele>139.0</ele><time>2026-04-05T08:46:01.003Z</time></trkpt><trkpt lat="45.5159117" lon="8.7690533"><ele>139.0</ele><time>2026-04-05T08:46:03.003Z</time></trkpt><trkpt lat="45.51599" lon="8.7690383"><ele>139.0</ele><time>2026-04-05T08:46:05.003Z</time></trkpt><trkpt lat="45.5160817" lon="8.76902"><ele>139.0</ele><time>2026-04-05T08:46:07.003Z</time></trkpt><trkpt lat="45.5161817" lon="8.769005"><ele>139.0</ele><time>2026-04-05T08:46:09.003Z</time></trkpt><trkpt lat="45.5162883" lon="8.76898"><ele>138.66666666666669</ele><time>2026-04-05T08:46:11.004Z</time></trkpt><trkpt lat="45.51637" lon="8.7689533"><ele>138.33333333333334</ele><time>2026-04-05T08:46:13.003Z</time></trkpt><trkpt lat="45.5164467" lon="8.7689383"><ele>138.0</ele><time>2026-04-05T08:46:15.003Z</time></trkpt><trkpt lat="45.5165267" lon="8.7689017"><ele>137.66666666666666</ele><time>2026-04-05T08:46:17.003Z</time></trkpt><trkpt lat="45.51658" lon="8.7688467"><ele>137.33333333333331</ele><time>2026-04-05T08:46:19.003Z</time></trkpt><trkpt lat="45.51663" lon="8.768745"><ele>137.0</ele><time>2026-04-05T08:46:21.003Z</time></trkpt><trkpt lat="45.5166933" lon="8.76863"><ele>137.0</ele><time>2026-04-05T08:46:23.003Z</time></trkpt><trkpt lat="45.5167667" lon="8.7685333"><ele>137.0</ele><time>2026-04-05T08:46:25.003Z</time></trkpt><trkpt lat="45.5168267" lon="8.7684433"><ele>137.0</ele><time>2026-04-05T08:46:27.003Z</time></trkpt><trkpt lat="45.5168867" lon="8.7683583"><ele>137.0</ele><time>2026-04-05T08:46:29.003Z</time></trkpt><trkpt lat="45.5169633" lon="8.7682767"><ele>137.0</ele><time>2026-04-05T08:46:31.003Z</time></trkpt><trkpt lat="45.5170283" lon="8.7681783"><ele>137.4</ele><time>2026-04-05T08:46:33.003Z</time></trkpt><trkpt lat="45.517085" lon="8.768075"><ele>137.79999999999998</ele><time>2026-04-05T08:46:35.003Z</time></trkpt><trkpt lat="45.517155" lon="8.7679783"><ele>138.2</ele><time>2026-04-05T08:46:37.004Z</time></trkpt><trkpt lat="45.517245" lon="8.7679183"><ele>138.6</ele><time>2026-04-05T08:46:39.003Z</time></trkpt><trkpt lat="45.5173267" lon="8.7679167"><ele>139.0</ele><time>2026-04-05T08:46:41.003Z</time></trkpt><trkpt lat="45.517405" lon="8.7679433"><ele>139.0</ele><time>2026-04-05T08:46:43.003Z</time></trkpt><trkpt lat="45.5174817" lon="8.76796"><ele>139.0</ele><time>2026-04-05T08:46:45.003Z</time></trkpt><trkpt lat="45.517575" lon="8.76799"><ele>139.0</ele><time>2026-04-05T08:46:47.003Z</time></trkpt><trkpt lat="45.51766" lon="8.7680117"><ele>139.0</ele><time>2026-04-05T08:46:49.003Z</time></trkpt><trkpt lat="45.51774" lon="8.7680417"><ele>139.0</ele><time>2026-04-05T08:46:51.003Z</time></trkpt><trkpt lat="45.5178333" lon="8.7680583"><ele>139.0</ele><time>2026-04-05T08:46:53.003Z</time></trkpt><trkpt lat="45.51793" lon="8.76807"><ele>139.0</ele><time>2026-04-05T08:46:55.003Z</time></trkpt><trkpt lat="45.5180183" lon="8.7681033"><ele>139.0</ele><time>2026-04-05T08:46:57.003Z</time></trkpt><trkpt lat="45.51811" lon="8.768175"><ele>139.0</ele><time>2026-04-05T08:46:59.003Z</time></trkpt><trkpt lat="45.51819" lon="8.7682533"><ele>139.0</ele><time>2026-04-05T08:47:01.003Z</time></trkpt><trkpt lat="45.5182717" lon="8.7683183"><ele>139.0</ele><time>2026-04-05T08:47:03.003Z</time></trkpt><trkpt lat="45.5183483" lon="8.7683867"><ele>139.0</ele><time>2026-04-05T08:47:05.003Z</time></trkpt><trkpt lat="45.5184333" lon="8.7684583"><ele>139.0</ele><time>2026-04-05T08:47:07.003Z</time></trkpt><trkpt lat="45.5185133" lon="8.7685183"><ele>139.0</ele><time>2026-04-05T08:47:09.003Z</time></trkpt><trkpt lat="45.5185933" lon="8.7685783"><ele>139.0</ele><time>2026-04-05T08:47:11.003Z</time></trkpt><trkpt lat="45.5186733" lon="8.7686033"><ele>139.0</ele><time>2026-04-05T08:47:13.003Z</time></trkpt><trkpt lat="45.518745" lon="8.7686133"><ele>139.0</ele><time>2026-04-05T08:47:15.003Z</time></trkpt><trkpt lat="45.5188133" lon="8.768615"><ele>139.16666666666669</ele><time>2026-04-05T08:47:17.003Z</time></trkpt><trkpt lat="45.51889" lon="8.7686117"><ele>139.33333333333334</ele><time>2026-04-05T08:47:19.003Z</time></trkpt><trkpt lat="45.5189767" lon="8.7686083"><ele>139.5</ele><time>2026-04-05T08:47:21.003Z</time></trkpt><trkpt lat="45.5190567" lon="8.768615"><ele>139.66666666666666</ele><time>2026-04-05T08:47:23.003Z</time></trkpt><trkpt lat="45.5191317" lon="8.7686117"><ele>139.83333333333331</ele><time>2026-04-05T08:47:25.003Z</time></trkpt><trkpt lat="45.51921" lon="8.76861"><ele>140.0</ele><time>2026-04-05T08:47:27.003Z</time></trkpt><trkpt lat="45.51929" lon="8.7686133"><ele>140.0</ele><time>2026-04-05T08:47:29.003Z</time></trkpt><trkpt lat="45.519375" lon="8.7686283"><ele>140.0</ele><time>2026-04-05T08:47:31.003Z</time></trkpt><trkpt lat="45.51946" lon="8.7686367"><ele>140.0</ele><time>2026-04-05T08:47:33.004Z</time></trkpt><trkpt lat="45.519545" lon="8.7686433"><ele>140.0</ele><time>2026-04-05T08:47:35.003Z</time></trkpt><trkpt lat="45.51961" lon="8.768635"><ele>140.0</ele><time>2026-04-05T08:47:37.003Z</time></trkpt><trkpt lat="45.51967" lon="8.7685683"><ele>140.0</ele><time>2026-04-05T08:47:40.003Z</time></trkpt><trkpt lat="45.519695" lon="8.7684633"><ele>140.8</ele><time>2026-04-05T08:47:42.003Z</time></trkpt><trkpt lat="45.5197133" lon="8.7683383"><ele>141.6</ele><time>2026-04-05T08:47:44.003Z</time></trkpt><trkpt lat="45.5197383" lon="8.76819"><ele>142.4</ele><time>2026-04-05T08:47:46.003Z</time></trkpt><trkpt lat="45.5197917" lon="8.768045"><ele>143.2</ele><time>2026-04-05T08:47:48.003Z</time></trkpt><trkpt lat="45.51986" lon="8.7679033"><ele>144.0</ele><time>2026-04-05T08:47:50.003Z</time></trkpt><trkpt lat="45.5199167" lon="8.7677767"><ele>144.25</ele><time>2026-04-05T08:47:52.003Z</time></trkpt><trkpt lat="45.5199833" lon="8.76765"><ele>144.5</ele><time>2026-04-05T08:47:54.003Z</time></trkpt><trkpt lat="45.520045" lon="8.7675067"><ele>144.75</ele><time>2026-04-05T08:47:56.003Z</time></trkpt><trkpt lat="45.52011" lon="8.7673567"><ele>145.0</ele><time>2026-04-05T08:47:58.003Z</time></trkpt><trkpt lat="45.5201467" lon="8.7671983"><ele>145.0</ele><time>2026-04-05T08:48:00.003Z</time></trkpt><trkpt lat="45.5201767" lon="8.7670417"><ele>145.0</ele><time>2026-04-05T08:48:02.003Z</time></trkpt><trkpt lat="45.520195" lon="8.7668817"><ele>145.0</ele><time>2026-04-05T08:48:04.003Z</time></trkpt><trkpt lat="45.520225" lon="8.7667333"><ele>145.0</ele><time>2026-04-05T08:48:06.003Z</time></trkpt><trkpt lat="45.52025" lon="8.76658"><ele>145.0</ele><time>2026-04-05T08:48:08.003Z</time></trkpt><trkpt lat="45.5202667" lon="8.7664883"><ele>145.0</ele><time>2026-04-05T08:48:09.004Z</time></trkpt><trkpt lat="45.520315" lon="8.7663267"><ele>145.0</ele><time>2026-04-05T08:48:11.003Z</time></trkpt><trkpt lat="45.5203367" lon="8.7662417"><ele>145.0</ele><time>2026-04-05T08:48:12.003Z</time></trkpt><trkpt lat="45.5203733" lon="8.7660717"><ele>145.0</ele><time>2026-04-05T08:48:14.003Z</time></trkpt><trkpt lat="45.5203883" lon="8.7659183"><ele>145.0</ele><time>2026-04-05T08:48:16.003Z</time></trkpt><trkpt lat="45.5203733" lon="8.7657667"><ele>145.0</ele><time>2026-04-05T08:48:18.003Z</time></trkpt><trkpt lat="45.5203383" lon="8.7656117"><ele>145.0</ele><time>2026-04-05T08:48:20.003Z</time></trkpt><trkpt lat="45.5202967" lon="8.7654383"><ele>145.0</ele><time>2026-04-05T08:48:22.003Z</time></trkpt><trkpt lat="45.5202683" lon="8.765335"><ele>145.0</ele><time>2026-04-05T08:48:23.004Z</time></trkpt><trkpt lat="45.5202417" lon="8.7652467"><ele>145.0</ele><time>2026-04-05T08:48:24.003Z</time></trkpt><trkpt lat="45.52021" lon="8.7650967"><ele>144.2</ele><time>2026-04-05T08:48:26.003Z</time></trkpt><trkpt lat="45.5201883" lon="8.764935"><ele>143.4</ele><time>2026-04-05T08:48:28.003Z</time></trkpt><trkpt lat="45.5201867" lon="8.7647767"><ele>142.6</ele><time>2026-04-05T08:48:30.003Z</time></trkpt><trkpt lat="45.5202017" lon="8.7646283"><ele>141.8</ele><time>2026-04-05T08:48:32.003Z</time></trkpt><trkpt lat="45.5202317" lon="8.7644883"><ele>141.0</ele><time>2026-04-05T08:48:34.003Z</time></trkpt><trkpt lat="45.52026" lon="8.7643267"><ele>141.0</ele><time>2026-04-05T08:48:36.003Z</time></trkpt><trkpt lat="45.5202917" lon="8.7641667"><ele>141.0</ele><time>2026-04-05T08:48:38.003Z</time></trkpt><trkpt lat="45.5203067" lon="8.7640183"><ele>141.0</ele><time>2026-04-05T08:48:40.003Z</time></trkpt><trkpt lat="45.52033" lon="8.7638883"><ele>141.0</ele><time>2026-04-05T08:48:42.003Z</time></trkpt><trkpt lat="45.5203483" lon="8.76376"><ele>141.0</ele><time>2026-04-05T08:48:44.003Z</time></trkpt><trkpt lat="45.520355" lon="8.7636083"><ele>141.33333333333334</ele><time>2026-04-05T08:48:46.003Z</time></trkpt><trkpt lat="45.5203633" lon="8.7634667"><ele>141.66666666666666</ele><time>2026-04-05T08:48:48.003Z</time></trkpt><trkpt lat="45.5203783" lon="8.7633417"><ele>142.0</ele><time>2026-04-05T08:48:50.003Z</time></trkpt><trkpt lat="45.5203933" lon="8.76322"><ele>142.33333333333331</ele><time>2026-04-05T08:48:52.003Z</time></trkpt><trkpt lat="45.5204133" lon="8.7631183"><ele>142.66666666666666</ele><time>2026-04-05T08:48:54.003Z</time></trkpt><trkpt lat="45.5204167" lon="8.7630133"><ele>143.0</ele><time>2026-04-05T08:48:56.003Z</time></trkpt><trkpt lat="45.5204133" lon="8.7629067"><ele>143.4</ele><time>2026-04-05T08:48:58.003Z</time></trkpt><trkpt lat="45.5204183" lon="8.762795"><ele>143.8</ele><time>2026-04-05T08:49:00.004Z</time></trkpt><trkpt lat="45.5204167" lon="8.76267"><ele>144.2</ele><time>2026-04-05T08:49:02.003Z</time></trkpt><trkpt lat="45.52041" lon="8.76254"><ele>144.6</ele><time>2026-04-05T08:49:04.003Z</time></trkpt><trkpt lat="45.520405" lon="8.7624017"><ele>145.0</ele><time>2026-04-05T08:49:06.003Z</time></trkpt><trkpt lat="45.5203967" lon="8.7622583"><ele>145.66666666666669</ele><time>2026-04-05T08:49:08.003Z</time></trkpt><trkpt lat="45.5204267" lon="8.76211"><ele>146.33333333333334</ele><time>2026-04-05T08:49:10.003Z</time></trkpt><trkpt lat="45.5204867" lon="8.7620083"><ele>147.0</ele><time>2026-04-05T08:49:12.003Z</time></trkpt><trkpt lat="45.520555" lon="8.7619483"><ele>147.66666666666666</ele><time>2026-04-05T08:49:14.003Z</time></trkpt><trkpt lat="45.5206217" lon="8.7618867"><ele>148.33333333333331</ele><time>2026-04-05T08:49:16.003Z</time></trkpt><trkpt lat="45.5206883" lon="8.761825"><ele>149.0</ele><time>2026-04-05T08:49:18.003Z</time></trkpt><trkpt lat="45.5207633" lon="8.76178"><ele>149.0</ele><time>2026-04-05T08:49:20.003Z</time></trkpt><trkpt lat="45.52083" lon="8.7617417"><ele>149.0</ele><time>2026-04-05T08:49:22.003Z</time></trkpt><trkpt lat="45.5208917" lon="8.761695"><ele>149.0</ele><time>2026-04-05T08:49:24.004Z</time></trkpt><trkpt lat="45.5209567" lon="8.7616667"><ele>149.0</ele><time>2026-04-05T08:49:26.003Z</time></trkpt><trkpt lat="45.521035" lon="8.7616483"><ele>149.0</ele><time>2026-04-05T08:49:28.003Z</time></trkpt><trkpt lat="45.5211117" lon="8.7616533"><ele>149.0</ele><time>2026-04-05T08:49:30.003Z</time></trkpt><trkpt lat="45.5211783" lon="8.7616617"><ele>149.0</ele><time>2026-04-05T08:49:32.003Z</time></trkpt><trkpt lat="45.521245" lon="8.76167"><ele>149.28571428571428</ele><time>2026-04-05T08:49:34.003Z</time></trkpt><trkpt lat="45.521315" lon="8.7616933"><ele>149.57142857142856</ele><time>2026-04-05T08:49:36.003Z</time></trkpt><trkpt lat="45.521375" lon="8.7617233"><ele>149.85714285714286</ele><time>2026-04-05T08:49:38.003Z</time></trkpt><trkpt lat="45.5214417" lon="8.76175"><ele>150.14285714285714</ele><time>2026-04-05T08:49:40.003Z</time></trkpt><trkpt lat="45.5215217" lon="8.76177"><ele>150.42857142857144</ele><time>2026-04-05T08:49:42.003Z</time></trkpt><trkpt lat="45.5215933" lon="8.7618033"><ele>150.71428571428572</ele><time>2026-04-05T08:49:44.003Z</time></trkpt><trkpt lat="45.5216617" lon="8.7618283"><ele>151.0</ele><time>2026-04-05T08:49:46.003Z</time></trkpt><trkpt lat="45.5217317" lon="8.7618617"><ele>152.42857142857144</ele><time>2026-04-05T08:49:48.003Z</time></trkpt><trkpt lat="45.5217967" lon="8.761895"><ele>153.85714285714286</ele><time>2026-04-05T08:49:50.003Z</time></trkpt><trkpt lat="45.5218583" lon="8.761925"><ele>155.28571428571428</ele><time>2026-04-05T08:49:52.003Z</time></trkpt><trkpt lat="45.5219483" lon="8.7619633"><ele>156.71428571428572</ele><time>2026-04-05T08:49:55.003Z</time></trkpt><trkpt lat="45.5220217" lon="8.761995"><ele>158.14285714285714</ele><time>2026-04-05T08:49:57.003Z</time></trkpt><trkpt lat="45.5220817" lon="8.7620333"><ele>159.57142857142858</ele><time>2026-04-05T08:49:59.003Z</time></trkpt><trkpt lat="45.5221467" lon="8.7620817"><ele>161.0</ele><time>2026-04-05T08:50:01.003Z</time></trkpt><trkpt lat="45.5222117" lon="8.7621167"><ele>161.14285714285714</ele><time>2026-04-05T08:50:03.003Z</time></trkpt><trkpt lat="45.5222783" lon="8.7621317"><ele>161.28571428571428</ele><time>2026-04-05T08:50:05.003Z</time></trkpt><trkpt lat="45.522365" lon="8.762135"><ele>161.42857142857144</ele><time>2026-04-05T08:50:08.003Z</time></trkpt><trkpt lat="45.5224333" lon="8.76216"><ele>161.57142857142856</ele><time>2026-04-05T08:50:10.003Z</time></trkpt><trkpt lat="45.5225033" lon="8.7621733"><ele>161.71428571428572</ele><time>2026-04-05T08:50:12.003Z</time></trkpt><trkpt lat="45.5225717" lon="8.7621983"><ele>161.85714285714286</ele><time>2026-04-05T08:50:14.003Z</time></trkpt><trkpt lat="45.5226383" lon="8.7622167"><ele>162.0</ele><time>2026-04-05T08:50:16.003Z</time></trkpt><trkpt lat="45.5227367" lon="8.762225"><ele>162.0</ele><time>2026-04-05T08:50:19.003Z</time></trkpt><trkpt lat="45.52281" lon="8.7622233"><ele>162.0</ele><time>2026-04-05T08:50:21.003Z</time></trkpt><trkpt lat="45.5228833" lon="8.7622017"><ele>162.0</ele><time>2026-04-05T08:50:23.003Z</time></trkpt><trkpt lat="45.5229517" lon="8.762175"><ele>162.0</ele><time>2026-04-05T08:50:25.003Z</time></trkpt><trkpt lat="45.52302" lon="8.7621533"><ele>162.0</ele><time>2026-04-05T08:50:27.003Z</time></trkpt><trkpt lat="45.52309" lon="8.76213"><ele>162.0</ele><time>2026-04-05T08:50:29.003Z</time></trkpt><trkpt lat="45.5231617" lon="8.7621133"><ele>162.0</ele><time>2026-04-05T08:50:31.003Z</time></trkpt><trkpt lat="45.523235" lon="8.76207"><ele>162.42857142857144</ele><time>2026-04-05T08:50:33.003Z</time></trkpt><trkpt lat="45.5233083" lon="8.762035"><ele>162.85714285714286</ele><time>2026-04-05T08:50:35.003Z</time></trkpt><trkpt lat="45.5233783" lon="8.7620133"><ele>163.28571428571428</ele><time>2026-04-05T08:50:37.003Z</time></trkpt><trkpt lat="45.523445" lon="8.761995"><ele>163.71428571428572</ele><time>2026-04-05T08:50:39.003Z</time></trkpt><trkpt lat="45.5235067" lon="8.7619583"><ele>164.14285714285714</ele><time>2026-04-05T08:50:41.003Z</time></trkpt><trkpt lat="45.523585" lon="8.761935"><ele>164.57142857142858</ele><time>2026-04-05T08:50:43.003Z</time></trkpt><trkpt lat="45.5236617" lon="8.7619133"><ele>165.0</ele><time>2026-04-05T08:50:45.004Z</time></trkpt><trkpt lat="45.523735" lon="8.7619033"><ele>165.0</ele><time>2026-04-05T08:50:47.003Z</time></trkpt><trkpt lat="45.523805" lon="8.7618917"><ele>165.0</ele><time>2026-04-05T08:50:49.003Z</time></trkpt><trkpt lat="45.523875" lon="8.7618917"><ele>165.0</ele><time>2026-04-05T08:50:51.003Z</time></trkpt><trkpt lat="45.5239583" lon="8.7618833"><ele>165.0</ele><time>2026-04-05T08:50:53.003Z</time></trkpt><trkpt lat="45.5240367" lon="8.7618883"><ele>165.0</ele><time>2026-04-05T08:50:55.003Z</time></trkpt><trkpt lat="45.5241083" lon="8.7619033"><ele>165.0</ele><time>2026-04-05T08:50:57.003Z</time></trkpt><trkpt lat="45.5241833" lon="8.7619117"><ele>165.0</ele><time>2026-04-05T08:50:59.003Z</time></trkpt><trkpt lat="45.5242633" lon="8.7619283"><ele>165.0</ele><time>2026-04-05T08:51:01.003Z</time></trkpt><trkpt lat="45.5243333" lon="8.7619383"><ele>165.0</ele><time>2026-04-05T08:51:03.003Z</time></trkpt><trkpt lat="45.5244033" lon="8.76196"><ele>165.0</ele><time>2026-04-05T08:51:05.003Z</time></trkpt><trkpt lat="45.5244667" lon="8.76197"><ele>165.0</ele><time>2026-04-05T08:51:07.003Z</time></trkpt><trkpt lat="45.5245533" lon="8.7619867"><ele>165.0</ele><time>2026-04-05T08:51:10.003Z</time></trkpt><trkpt lat="45.524635" lon="8.7619883"><ele>165.33333333333334</ele><time>2026-04-05T08:51:13.003Z</time></trkpt><trkpt lat="45.524715" lon="8.762015"><ele>165.66666666666666</ele><time>2026-04-05T08:51:16.004Z</time></trkpt><trkpt lat="45.52478" lon="8.76206"><ele>166.0</ele><time>2026-04-05T08:51:18.003Z</time></trkpt><trkpt lat="45.524845" lon="8.7621067"><ele>166.33333333333331</ele><time>2026-04-05T08:51:20.003Z</time></trkpt><trkpt lat="45.5249083" lon="8.76216"><ele>166.66666666666666</ele><time>2026-04-05T08:51:22.003Z</time></trkpt><trkpt lat="45.52498" lon="8.7622233"><ele>167.0</ele><time>2026-04-05T08:51:24.003Z</time></trkpt><trkpt lat="45.5250467" lon="8.7622817"><ele>167.0</ele><time>2026-04-05T08:51:26.003Z</time></trkpt><trkpt lat="45.525135" lon="8.7623483"><ele>167.0</ele><time>2026-04-05T08:51:28.002Z</time></trkpt><trkpt lat="45.5252317" lon="8.7624033"><ele>167.0</ele><time>2026-04-05T08:51:30.002Z</time></trkpt><trkpt lat="45.5253217" lon="8.7624633"><ele>167.0</ele><time>2026-04-05T08:51:32.002Z</time></trkpt><trkpt lat="45.52539" lon="8.7625217"><ele>167.0</ele><time>2026-04-05T08:51:34.002Z</time></trkpt><trkpt lat="45.52545" lon="8.7625567"><ele>167.0</ele><time>2026-04-05T08:51:36.002Z</time></trkpt><trkpt lat="45.525505" lon="8.7626033"><ele>167.0</ele><time>2026-04-05T08:51:38.002Z</time></trkpt><trkpt lat="45.5255633" lon="8.7626433"><ele>167.0</ele><time>2026-04-05T08:51:40.002Z</time></trkpt><trkpt lat="45.5256433" lon="8.7627033"><ele>167.0</ele><time>2026-04-05T08:51:43.003Z</time></trkpt><trkpt lat="45.5256567" lon="8.7627917"><ele>167.0</ele><time>2026-04-05T08:51:45.002Z</time></trkpt><trkpt lat="45.525615" lon="8.7628817"><ele>167.0</ele><time>2026-04-05T08:51:47.003Z</time></trkpt><trkpt lat="45.5255633" lon="8.7629633"><ele>167.0</ele><time>2026-04-05T08:51:49.002Z</time></trkpt><trkpt lat="45.5255117" lon="8.7630417"><ele>167.0</ele><time>2026-04-05T08:51:51.002Z</time></trkpt><trkpt lat="45.5254533" lon="8.7631167"><ele>167.0</ele><time>2026-04-05T08:51:53.002Z</time></trkpt><trkpt lat="45.5254067" lon="8.763195"><ele>167.0</ele><time>2026-04-05T08:51:55.002Z</time></trkpt><trkpt lat="45.5253567" lon="8.7632717"><ele>167.0</ele><time>2026-04-05T08:51:57.003Z</time></trkpt><trkpt lat="45.5252983" lon="8.7633783"><ele>167.0</ele><time>2026-04-05T08:52:00.002Z</time></trkpt><trkpt lat="45.5252367" lon="8.7634833"><ele>167.0</ele><time>2026-04-05T08:52:03.002Z</time></trkpt><trkpt lat="45.5251917" lon="8.7635567"><ele>167.0</ele><time>2026-04-05T08:52:05.002Z</time></trkpt><trkpt lat="45.5251367" lon="8.76365"><ele>167.16666666666666</ele><time>2026-04-05T08:52:07.002Z</time></trkpt><trkpt lat="45.5250917" lon="8.7637383"><ele>167.33333333333331</ele><time>2026-04-05T08:52:09.002Z</time></trkpt><trkpt lat="45.5250367" lon="8.7638183"><ele>167.5</ele><time>2026-04-05T08:52:11.002Z</time></trkpt><trkpt lat="45.5249933" lon="8.76391"><ele>167.66666666666666</ele><time>2026-04-05T08:52:13.002Z</time></trkpt><trkpt lat="45.5249417" lon="8.7639983"><ele>167.83333333333334</ele><time>2026-04-05T08:52:15.002Z</time></trkpt><trkpt lat="45.5248867" lon="8.7641067"><ele>168.0</ele><time>2026-04-05T08:52:17.002Z</time></trkpt><trkpt lat="45.5248333" lon="8.7642017"><ele>168.0</ele><time>2026-04-05T08:52:19.002Z</time></trkpt><trkpt lat="45.5247767" lon="8.76431"><ele>168.0</ele><time>2026-04-05T08:52:21.002Z</time></trkpt><trkpt lat="45.524705" lon="8.764415"><ele>168.0</ele><time>2026-04-05T08:52:23.002Z</time></trkpt><trkpt lat="45.5246467" lon="8.7645183"><ele>168.0</ele><time>2026-04-05T08:52:25.002Z</time></trkpt><trkpt lat="45.5245883" lon="8.76462"><ele>168.0</ele><time>2026-04-05T08:52:27.002Z</time></trkpt><trkpt lat="45.52452" lon="8.7647133"><ele>167.66666666666666</ele><time>2026-04-05T08:52:29.002Z</time></trkpt><trkpt lat="45.5244533" lon="8.7648083"><ele>167.33333333333334</ele><time>2026-04-05T08:52:31.002Z</time></trkpt><trkpt lat="45.5244083" lon="8.7649"><ele>167.0</ele><time>2026-04-05T08:52:33.002Z</time></trkpt><trkpt lat="45.5243517" lon="8.7649967"><ele>166.66666666666669</ele><time>2026-04-05T08:52:35.002Z</time></trkpt><trkpt lat="45.5243017" lon="8.76509"><ele>166.33333333333334</ele><time>2026-04-05T08:52:37.002Z</time></trkpt><trkpt lat="45.5242367" lon="8.7651783"><ele>166.0</ele><time>2026-04-05T08:52:39.002Z</time></trkpt><trkpt lat="45.524175" lon="8.7652967"><ele>166.0</ele><time>2026-04-05T08:52:41.002Z</time></trkpt><trkpt lat="45.5241183" lon="8.7654117"><ele>166.0</ele><time>2026-04-05T08:52:43.002Z</time></trkpt><trkpt lat="45.5240733" lon="8.76551"><ele>166.0</ele><time>2026-04-05T08:52:45.002Z</time></trkpt><trkpt lat="45.5240167" lon="8.7656067"><ele>166.0</ele><time>2026-04-05T08:52:47.002Z</time></trkpt><trkpt lat="45.5239333" lon="8.7657033"><ele>166.0</ele><time>2026-04-05T08:52:49.002Z</time></trkpt><trkpt lat="45.5238617" lon="8.7658233"><ele>166.0</ele><time>2026-04-05T08:52:51.002Z</time></trkpt><trkpt lat="45.5238083" lon="8.765935"><ele>166.0</ele><time>2026-04-05T08:52:53.002Z</time></trkpt><trkpt lat="45.5237517" lon="8.7660467"><ele>166.0</ele><time>2026-04-05T08:52:55.002Z</time></trkpt><trkpt lat="45.5236867" lon="8.76615"><ele>166.0</ele><time>2026-04-05T08:52:57.002Z</time></trkpt><trkpt lat="45.5236317" lon="8.766245"><ele>166.0</ele><time>2026-04-05T08:52:59.002Z</time></trkpt><trkpt lat="45.5235633" lon="8.7663467"><ele>165.4</ele><time>2026-04-05T08:53:01.002Z</time></trkpt><trkpt lat="45.523505" lon="8.766465"><ele>164.8</ele><time>2026-04-05T08:53:03.002Z</time></trkpt><trkpt lat="45.52352" lon="8.7665883"><ele>164.20000000000002</ele><time>2026-04-05T08:53:05.002Z</time></trkpt><trkpt lat="45.5235817" lon="8.7666883"><ele>163.60000000000002</ele><time>2026-04-05T08:53:07.002Z</time></trkpt><trkpt lat="45.5236367" lon="8.7667733"><ele>163.0</ele><time>2026-04-05T08:53:09.002Z</time></trkpt><trkpt lat="45.52371" lon="8.7668533"><ele>163.8</ele><time>2026-04-05T08:53:11.002Z</time></trkpt><trkpt lat="45.523785" lon="8.7669283"><ele>164.60000000000002</ele><time>2026-04-05T08:53:13.002Z</time></trkpt><trkpt lat="45.52387" lon="8.76702"><ele>165.39999999999998</ele><time>2026-04-05T08:53:15.002Z</time></trkpt><trkpt lat="45.523955" lon="8.7671117"><ele>166.2</ele><time>2026-04-05T08:53:17.003Z</time></trkpt><trkpt lat="45.5240367" lon="8.7671967"><ele>167.0</ele><time>2026-04-05T08:53:19.002Z</time></trkpt><trkpt lat="45.5241167" lon="8.767275"><ele>167.0</ele><time>2026-04-05T08:53:21.002Z</time></trkpt><trkpt lat="45.524195" lon="8.7673567"><ele>167.0</ele><time>2026-04-05T08:53:23.002Z</time></trkpt><trkpt lat="45.5242717" lon="8.7674417"><ele>167.0</ele><time>2026-04-05T08:53:25.002Z</time></trkpt><trkpt lat="45.5243483" lon="8.7675217"><ele>167.0</ele><time>2026-04-05T08:53:27.002Z</time></trkpt><trkpt lat="45.5244183" lon="8.7675933"><ele>167.0</ele><time>2026-04-05T08:53:29.002Z</time></trkpt><trkpt lat="45.5244983" lon="8.767685"><ele>166.8</ele><time>2026-04-05T08:53:31.002Z</time></trkpt><trkpt lat="45.5245667" lon="8.7677667"><ele>166.6</ele><time>2026-04-05T08:53:33.002Z</time></trkpt><trkpt lat="45.5246483" lon="8.7678483"><ele>166.4</ele><time>2026-04-05T08:53:35.003Z</time></trkpt><trkpt lat="45.5247417" lon="8.7679267"><ele>166.20000000000002</ele><time>2026-04-05T08:53:37.002Z</time></trkpt><trkpt lat="45.5248317" lon="8.7680117"><ele>166.0</ele><time>2026-04-05T08:53:39.002Z</time></trkpt><trkpt lat="45.5249167" lon="8.7681083"><ele>166.0</ele><time>2026-04-05T08:53:41.002Z</time></trkpt><trkpt lat="45.5249917" lon="8.7682083"><ele>166.0</ele><time>2026-04-05T08:53:43.002Z</time></trkpt><trkpt lat="45.5250717" lon="8.7683033"><ele>166.0</ele><time>2026-04-05T08:53:45.002Z</time></trkpt><trkpt lat="45.5251517" lon="8.7683917"><ele>166.0</ele><time>2026-04-05T08:53:47.002Z</time></trkpt><trkpt lat="45.5252317" lon="8.768475"><ele>166.0</ele><time>2026-04-05T08:53:49.002Z</time></trkpt><trkpt lat="45.5253117" lon="8.768565"><ele>166.20000000000002</ele><time>2026-04-05T08:53:51.002Z</time></trkpt><trkpt lat="45.52539" lon="8.7686383"><ele>166.4</ele><time>2026-04-05T08:53:53.002Z</time></trkpt><trkpt lat="45.5254733" lon="8.7687317"><ele>166.6</ele><time>2026-04-05T08:53:55.003Z</time></trkpt><trkpt lat="45.5255517" lon="8.7688067"><ele>166.8</ele><time>2026-04-05T08:53:57.002Z</time></trkpt><trkpt lat="45.5256267" lon="8.7688967"><ele>167.0</ele><time>2026-04-05T08:53:59.002Z</time></trkpt><trkpt lat="45.5257167" lon="8.7689967"><ele>167.0</ele><time>2026-04-05T08:54:01.002Z</time></trkpt><trkpt lat="45.5257817" lon="8.7690917"><ele>167.0</ele><time>2026-04-05T08:54:03.003Z</time></trkpt><trkpt lat="45.52585" lon="8.7691917"><ele>167.0</ele><time>2026-04-05T08:54:05.002Z</time></trkpt><trkpt lat="45.5259133" lon="8.7693"><ele>167.0</ele><time>2026-04-05T08:54:07.002Z</time></trkpt><trkpt lat="45.5259767" lon="8.76942"><ele>167.0</ele><time>2026-04-05T08:54:09.002Z</time></trkpt><trkpt lat="45.526045" lon="8.769515"><ele>167.2</ele><time>2026-04-05T08:54:11.002Z</time></trkpt><trkpt lat="45.5261117" lon="8.769595"><ele>167.39999999999998</ele><time>2026-04-05T08:54:13.002Z</time></trkpt><trkpt lat="45.5261733" lon="8.76969"><ele>167.60000000000002</ele><time>2026-04-05T08:54:15.002Z</time></trkpt><trkpt lat="45.5262417" lon="8.76977"><ele>167.8</ele><time>2026-04-05T08:54:17.002Z</time></trkpt><trkpt lat="45.5263233" lon="8.7698633"><ele>168.0</ele><time>2026-04-05T08:54:19.002Z</time></trkpt><trkpt lat="45.526405" lon="8.7699533"><ele>167.8</ele><time>2026-04-05T08:54:21.002Z</time></trkpt><trkpt lat="45.526485" lon="8.7700417"><ele>167.60000000000002</ele><time>2026-04-05T08:54:23.002Z</time></trkpt><trkpt lat="45.526575" lon="8.7701433"><ele>167.39999999999998</ele><time>2026-04-05T08:54:25.002Z</time></trkpt><trkpt lat="45.5266533" lon="8.7702533"><ele>167.2</ele><time>2026-04-05T08:54:27.002Z</time></trkpt><trkpt lat="45.5267283" lon="8.770355"><ele>167.0</ele><time>2026-04-05T08:54:29.002Z</time></trkpt><trkpt lat="45.5268133" lon="8.7704383"><ele>167.0</ele><time>2026-04-05T08:54:31.002Z</time></trkpt><trkpt lat="45.5268933" lon="8.770535"><ele>167.0</ele><time>2026-04-05T08:54:33.002Z</time></trkpt><trkpt lat="45.5269617" lon="8.7706083"><ele>167.0</ele><time>2026-04-05T08:54:35.002Z</time></trkpt><trkpt lat="45.5270167" lon="8.77068"><ele>167.0</ele><time>2026-04-05T08:54:37.002Z</time></trkpt><trkpt lat="45.527095" lon="8.77075"><ele>167.0</ele><time>2026-04-05T08:54:39.002Z</time></trkpt><trkpt lat="45.5271633" lon="8.7708483"><ele>167.2</ele><time>2026-04-05T08:54:41.003Z</time></trkpt><trkpt lat="45.5272417" lon="8.770935"><ele>167.39999999999998</ele><time>2026-04-05T08:54:43.002Z</time></trkpt><trkpt lat="45.5273267" lon="8.7710317"><ele>167.60000000000002</ele><time>2026-04-05T08:54:45.002Z</time></trkpt><trkpt lat="45.5273983" lon="8.771115"><ele>167.8</ele><time>2026-04-05T08:54:47.002Z</time></trkpt><trkpt lat="45.5274583" lon="8.7712033"><ele>168.0</ele><time>2026-04-05T08:54:49.002Z</time></trkpt><trkpt lat="45.527525" lon="8.7713067"><ele>168.2</ele><time>2026-04-05T08:54:51.002Z</time></trkpt><trkpt lat="45.5276067" lon="8.7714167"><ele>168.4</ele><time>2026-04-05T08:54:53.002Z</time></trkpt><trkpt lat="45.527685" lon="8.7715217"><ele>168.6</ele><time>2026-04-05T08:54:55.002Z</time></trkpt><trkpt lat="45.52775" lon="8.7716067"><ele>168.79999999999998</ele><time>2026-04-05T08:54:57.002Z</time></trkpt><trkpt lat="45.52783" lon="8.771685"><ele>169.0</ele><time>2026-04-05T08:54:59.002Z</time></trkpt><trkpt lat="45.5278917" lon="8.771745"><ele>169.0</ele><time>2026-04-05T08:55:01.002Z</time></trkpt><trkpt lat="45.52795" lon="8.7718233"><ele>169.0</ele><time>2026-04-05T08:55:03.002Z</time></trkpt><trkpt lat="45.52802" lon="8.7718933"><ele>169.0</ele><time>2026-04-05T08:55:06.002Z</time></trkpt><trkpt lat="45.5280683" lon="8.7719517"><ele>169.0</ele><time>2026-04-05T08:55:12.002Z</time></trkpt><trkpt lat="45.528125" lon="8.7719983"><ele>169.0</ele><time>2026-04-05T08:55:15.002Z</time></trkpt><trkpt lat="45.5281783" lon="8.7720833"><ele>169.0</ele><time>2026-04-05T08:55:17.002Z</time></trkpt><trkpt lat="45.5282417" lon="8.7721583"><ele>168.83333333333334</ele><time>2026-04-05T08:55:19.002Z</time></trkpt><trkpt lat="45.5283067" lon="8.7722383"><ele>168.66666666666669</ele><time>2026-04-05T08:55:21.003Z</time></trkpt><trkpt lat="45.5283617" lon="8.772325"><ele>168.5</ele><time>2026-04-05T08:55:23.002Z</time></trkpt><trkpt lat="45.5284233" lon="8.7723883"><ele>168.33333333333334</ele><time>2026-04-05T08:55:25.002Z</time></trkpt><trkpt lat="45.5284917" lon="8.772475"><ele>168.16666666666666</ele><time>2026-04-05T08:55:27.003Z</time></trkpt><trkpt lat="45.5285617" lon="8.772545"><ele>168.0</ele><time>2026-04-05T08:55:29.002Z</time></trkpt><trkpt lat="45.5286433" lon="8.7726133"><ele>168.4</ele><time>2026-04-05T08:55:31.002Z</time></trkpt><trkpt lat="45.5287367" lon="8.7726783"><ele>168.8</ele><time>2026-04-05T08:55:33.002Z</time></trkpt><trkpt lat="45.5288183" lon="8.772775"><ele>169.2</ele><time>2026-04-05T08:55:35.002Z</time></trkpt><trkpt lat="45.5288967" lon="8.7728633"><ele>169.6</ele><time>2026-04-05T08:55:37.002Z</time></trkpt><trkpt lat="45.5289767" lon="8.7729417"><ele>170.0</ele><time>2026-04-05T08:55:39.002Z</time></trkpt><trkpt lat="45.5290583" lon="8.7730133"><ele>170.0</ele><time>2026-04-05T08:55:41.002Z</time></trkpt><trkpt lat="45.5291333" lon="8.7731083"><ele>170.0</ele><time>2026-04-05T08:55:43.002Z</time></trkpt><trkpt lat="45.5292" lon="8.773195"><ele>170.0</ele><time>2026-04-05T08:55:45.002Z</time></trkpt><trkpt lat="45.529275" lon="8.773295"><ele>170.0</ele><time>2026-04-05T08:55:47.002Z</time></trkpt><trkpt lat="45.5293533" lon="8.77339"><ele>170.0</ele><time>2026-04-05T08:55:49.002Z</time></trkpt><trkpt lat="45.5294233" lon="8.7734883"><ele>170.0</ele><time>2026-04-05T08:55:51.002Z</time></trkpt><trkpt lat="45.5294883" lon="8.7735767"><ele>170.0</ele><time>2026-04-05T08:55:53.002Z</time></trkpt><trkpt lat="45.529565" lon="8.773665"><ele>170.0</ele><time>2026-04-05T08:55:55.002Z</time></trkpt><trkpt lat="45.5296433" lon="8.7737467"><ele>170.0</ele><time>2026-04-05T08:55:57.002Z</time></trkpt><trkpt lat="45.529715" lon="8.7738267"><ele>170.0</ele><time>2026-04-05T08:55:59.002Z</time></trkpt><trkpt lat="45.5297967" lon="8.7739083"><ele>170.0</ele><time>2026-04-05T08:56:01.002Z</time></trkpt><trkpt lat="45.52987" lon="8.7739983"><ele>170.0</ele><time>2026-04-05T08:56:03.002Z</time></trkpt><trkpt lat="45.5299533" lon="8.77409"><ele>170.0</ele><time>2026-04-05T08:56:05.003Z</time></trkpt><trkpt lat="45.5300233" lon="8.7741667"><ele>170.0</ele><time>2026-04-05T08:56:07.002Z</time></trkpt><trkpt lat="45.5301083" lon="8.7742733"><ele>170.0</ele><time>2026-04-05T08:56:09.002Z</time></trkpt><trkpt lat="45.5301717" lon="8.77438"><ele>169.6</ele><time>2026-04-05T08:56:11.002Z</time></trkpt><trkpt lat="45.5302533" lon="8.774425"><ele>169.2</ele><time>2026-04-05T08:56:13.002Z</time></trkpt><trkpt lat="45.5303233" lon="8.774475"><ele>168.8</ele><time>2026-04-05T08:56:15.002Z</time></trkpt><trkpt lat="45.5303933" lon="8.7745683"><ele>168.4</ele><time>2026-04-05T08:56:17.002Z</time></trkpt><trkpt lat="45.5304733" lon="8.774665"><ele>168.0</ele><time>2026-04-05T08:56:19.002Z</time></trkpt><trkpt lat="45.5305617" lon="8.7747567"><ele>168.8</ele><time>2026-04-05T08:56:21.002Z</time></trkpt><trkpt lat="45.5306417" lon="8.77483"><ele>169.60000000000002</ele><time>2026-04-05T08:56:23.002Z</time></trkpt><trkpt lat="45.5307117" lon="8.77493"><ele>170.39999999999998</ele><time>2026-04-05T08:56:25.002Z</time></trkpt><trkpt lat="45.530765" lon="8.7750517"><ele>171.2</ele><time>2026-04-05T08:56:27.002Z</time></trkpt><trkpt lat="45.530815" lon="8.77518"><ele>172.0</ele><time>2026-04-05T08:56:29.002Z</time></trkpt><trkpt lat="45.5308617" lon="8.7753067"><ele>172.0</ele><time>2026-04-05T08:56:31.003Z</time></trkpt><trkpt lat="45.5308933" lon="8.7754417"><ele>172.0</ele><time>2026-04-05T08:56:33.002Z</time></trkpt><trkpt lat="45.5309333" lon="8.7755767"><ele>172.0</ele><time>2026-04-05T08:56:35.002Z</time></trkpt><trkpt lat="45.53098" lon="8.7757033"><ele>172.0</ele><time>2026-04-05T08:56:37.003Z</time></trkpt><trkpt lat="45.5310283" lon="8.7758267"><ele>172.0</ele><time>2026-04-05T08:56:39.002Z</time></trkpt><trkpt lat="45.5310733" lon="8.7759583"><ele>171.8</ele><time>2026-04-05T08:56:41.002Z</time></trkpt><trkpt lat="45.53111" lon="8.7760817"><ele>171.6</ele><time>2026-04-05T08:56:43.002Z</time></trkpt><trkpt lat="45.53117" lon="8.7761817"><ele>171.4</ele><time>2026-04-05T08:56:45.002Z</time></trkpt><trkpt lat="45.5312383" lon="8.7762917"><ele>171.20000000000002</ele><time>2026-04-05T08:56:47.002Z</time></trkpt><trkpt lat="45.5313033" lon="8.7764017"><ele>171.0</ele><time>2026-04-05T08:56:49.002Z</time></trkpt><trkpt lat="45.5313683" lon="8.7765017"><ele>171.0</ele><time>2026-04-05T08:56:51.002Z</time></trkpt><trkpt lat="45.5314017" lon="8.776625"><ele>171.0</ele><time>2026-04-05T08:56:53.002Z</time></trkpt><trkpt lat="45.53136" lon="8.77675"><ele>171.0</ele><time>2026-04-05T08:56:55.003Z</time></trkpt><trkpt lat="45.5312867" lon="8.7768617"><ele>171.0</ele><time>2026-04-05T08:56:57.002Z</time></trkpt><trkpt lat="45.5312183" lon="8.7769733"><ele>171.0</ele><time>2026-04-05T08:56:59.002Z</time></trkpt><trkpt lat="45.531155" lon="8.7770833"><ele>171.20000000000002</ele><time>2026-04-05T08:57:01.002Z</time></trkpt><trkpt lat="45.5311" lon="8.77718"><ele>171.4</ele><time>2026-04-05T08:57:03.002Z</time></trkpt><trkpt lat="45.5310367" lon="8.7773"><ele>171.6</ele><time>2026-04-05T08:57:05.002Z</time></trkpt><trkpt lat="45.5309633" lon="8.7774167"><ele>171.8</ele><time>2026-04-05T08:57:07.002Z</time></trkpt><trkpt lat="45.5308967" lon="8.7775217"><ele>172.0</ele><time>2026-04-05T08:57:09.002Z</time></trkpt><trkpt lat="45.5308283" lon="8.7776117"><ele>171.6</ele><time>2026-04-05T08:57:11.002Z</time></trkpt><trkpt lat="45.5307667" lon="8.7777167"><ele>171.2</ele><time>2026-04-05T08:57:13.002Z</time></trkpt><trkpt lat="45.5306917" lon="8.777815"><ele>170.8</ele><time>2026-04-05T08:57:15.002Z</time></trkpt><trkpt lat="45.5306117" lon="8.7779067"><ele>170.4</ele><time>2026-04-05T08:57:17.002Z</time></trkpt><trkpt lat="45.530535" lon="8.778015"><ele>170.0</ele><time>2026-04-05T08:57:19.002Z</time></trkpt><trkpt lat="45.530465" lon="8.7781217"><ele>170.0</ele><time>2026-04-05T08:57:21.002Z</time></trkpt><trkpt lat="45.5303883" lon="8.7782317"><ele>170.0</ele><time>2026-04-05T08:57:23.002Z</time></trkpt><trkpt lat="45.5303117" lon="8.7783417"><ele>170.0</ele><time>2026-04-05T08:57:25.002Z</time></trkpt><trkpt lat="45.5302217" lon="8.7784517"><ele>170.0</ele><time>2026-04-05T08:57:27.002Z</time></trkpt><trkpt lat="45.5301433" lon="8.7785567"><ele>170.0</ele><time>2026-04-05T08:57:29.002Z</time></trkpt><trkpt lat="45.53007" lon="8.7786467"><ele>170.0</ele><time>2026-04-05T08:57:31.002Z</time></trkpt><trkpt lat="45.5299917" lon="8.7787583"><ele>170.0</ele><time>2026-04-05T08:57:33.002Z</time></trkpt><trkpt lat="45.5299233" lon="8.77886"><ele>170.0</ele><time>2026-04-05T08:57:35.002Z</time></trkpt><trkpt lat="45.5298517" lon="8.778955"><ele>170.0</ele><time>2026-04-05T08:57:37.002Z</time></trkpt><trkpt lat="45.5297767" lon="8.7790533"><ele>170.0</ele><time>2026-04-05T08:57:39.002Z</time></trkpt><trkpt lat="45.5297083" lon="8.77917"><ele>170.0</ele><time>2026-04-05T08:57:41.002Z</time></trkpt><trkpt lat="45.52964" lon="8.77926"><ele>170.0</ele><time>2026-04-05T08:57:43.002Z</time></trkpt><trkpt lat="45.5295633" lon="8.77935"><ele>170.0</ele><time>2026-04-05T08:57:45.003Z</time></trkpt><trkpt lat="45.5294783" lon="8.7794483"><ele>170.0</ele><time>2026-04-05T08:57:47.002Z</time></trkpt><trkpt lat="45.5293883" lon="8.77951"><ele>170.0</ele><time>2026-04-05T08:57:49.002Z</time></trkpt><trkpt lat="45.52929" lon="8.77952"><ele>170.0</ele><time>2026-04-05T08:57:51.003Z</time></trkpt><trkpt lat="45.529185" lon="8.7795017"><ele>170.0</ele><time>2026-04-05T08:57:53.003Z</time></trkpt><trkpt lat="45.5290683" lon="8.779465"><ele>170.0</ele><time>2026-04-05T08:57:55.002Z</time></trkpt><trkpt lat="45.52897" lon="8.7794683"><ele>170.0</ele><time>2026-04-05T08:57:57.002Z</time></trkpt><trkpt lat="45.5288717" lon="8.7795267"><ele>170.0</ele><time>2026-04-05T08:57:59.002Z</time></trkpt><trkpt lat="45.5287783" lon="8.7795867"><ele>169.4</ele><time>2026-04-05T08:58:01.002Z</time></trkpt><trkpt lat="45.5286917" lon="8.7796617"><ele>168.8</ele><time>2026-04-05T08:58:03.002Z</time></trkpt><trkpt lat="45.5286017" lon="8.77973"><ele>168.2</ele><time>2026-04-05T08:58:05.002Z</time></trkpt><trkpt lat="45.5285083" lon="8.7797817"><ele>167.6</ele><time>2026-04-05T08:58:07.002Z</time></trkpt><trkpt lat="45.5284183" lon="8.779845"><ele>167.0</ele><time>2026-04-05T08:58:09.002Z</time></trkpt><trkpt lat="45.5283233" lon="8.779915"><ele>167.0</ele><time>2026-04-05T08:58:11.002Z</time></trkpt><trkpt lat="45.5282333" lon="8.77999"><ele>167.0</ele><time>2026-04-05T08:58:13.002Z</time></trkpt><trkpt lat="45.528135" lon="8.7800617"><ele>167.0</ele><time>2026-04-05T08:58:15.002Z</time></trkpt><trkpt lat="45.5280333" lon="8.780125"><ele>167.0</ele><time>2026-04-05T08:58:17.002Z</time></trkpt><trkpt lat="45.5279283" lon="8.780195"><ele>167.0</ele><time>2026-04-05T08:58:19.002Z</time></trkpt><trkpt lat="45.527825" lon="8.7802683"><ele>166.8</ele><time>2026-04-05T08:58:21.002Z</time></trkpt><trkpt lat="45.52773" lon="8.780335"><ele>166.6</ele><time>2026-04-05T08:58:23.002Z</time></trkpt><trkpt lat="45.527645" lon="8.7804017"><ele>166.4</ele><time>2026-04-05T08:58:25.002Z</time></trkpt><trkpt lat="45.5275483" lon="8.78047"><ele>166.20000000000002</ele><time>2026-04-05T08:58:27.002Z</time></trkpt><trkpt lat="45.52745" lon="8.78053"><ele>166.0</ele><time>2026-04-05T08:58:29.001Z</time></trkpt><trkpt lat="45.5273517" lon="8.7806017"><ele>166.0</ele><time>2026-04-05T08:58:31.001Z</time></trkpt><trkpt lat="45.52726" lon="8.7806667"><ele>166.0</ele><time>2026-04-05T08:58:33.001Z</time></trkpt><trkpt lat="45.5271633" lon="8.7807367"><ele>166.0</ele><time>2026-04-05T08:58:35.001Z</time></trkpt><trkpt lat="45.5270683" lon="8.7808033"><ele>166.0</ele><time>2026-04-05T08:58:37.001Z</time></trkpt><trkpt lat="45.52697" lon="8.7808717"><ele>166.0</ele><time>2026-04-05T08:58:39.001Z</time></trkpt><trkpt lat="45.5268783" lon="8.7809533"><ele>166.0</ele><time>2026-04-05T08:58:41.001Z</time></trkpt><trkpt lat="45.5267883" lon="8.781025"><ele>166.0</ele><time>2026-04-05T08:58:43.001Z</time></trkpt><trkpt lat="45.5266917" lon="8.7810883"><ele>166.0</ele><time>2026-04-05T08:58:45.001Z</time></trkpt><trkpt lat="45.5266" lon="8.7811533"><ele>166.0</ele><time>2026-04-05T08:58:47.001Z</time></trkpt><trkpt lat="45.5265083" lon="8.78122"><ele>166.0</ele><time>2026-04-05T08:58:49.001Z</time></trkpt><trkpt lat="45.52642" lon="8.7812867"><ele>166.0</ele><time>2026-04-05T08:58:51.001Z</time></trkpt><trkpt lat="45.526335" lon="8.7813483"><ele>166.0</ele><time>2026-04-05T08:58:53.001Z</time></trkpt><trkpt lat="45.5262583" lon="8.7814017"><ele>166.0</ele><time>2026-04-05T08:58:55.001Z</time></trkpt><trkpt lat="45.5261833" lon="8.7814667"><ele>166.0</ele><time>2026-04-05T08:58:57.001Z</time></trkpt><trkpt lat="45.52611" lon="8.78153"><ele>166.0</ele><time>2026-04-05T08:58:59.001Z</time></trkpt><trkpt lat="45.5260433" lon="8.78157"><ele>166.0</ele><time>2026-04-05T08:59:01.001Z</time></trkpt><trkpt lat="45.5259767" lon="8.781625"><ele>166.33333333333334</ele><time>2026-04-05T08:59:03.001Z</time></trkpt><trkpt lat="45.5259067" lon="8.78166"><ele>166.66666666666669</ele><time>2026-04-05T08:59:05.001Z</time></trkpt><trkpt lat="45.5258217" lon="8.7816683"><ele>167.0</ele><time>2026-04-05T08:59:07.001Z</time></trkpt><trkpt lat="45.5257383" lon="8.78166"><ele>167.33333333333334</ele><time>2026-04-05T08:59:09.001Z</time></trkpt><trkpt lat="45.5256567" lon="8.7816567"><ele>167.66666666666666</ele><time>2026-04-05T08:59:11.001Z</time></trkpt><trkpt lat="45.5255883" lon="8.78168"><ele>168.0</ele><time>2026-04-05T08:59:13.001Z</time></trkpt><trkpt lat="45.5255133" lon="8.7817167"><ele>168.0</ele><time>2026-04-05T08:59:15.001Z</time></trkpt></trkseg></trk></gpx>